[[{"header":{"parameterUnit":"m.s-1","parameterCategory":1,"la1":30.6,"la2":29.2853,"lo1":-89.7004,"lo2":-87.6739,"dy":0.0162,"dx":0.0183,"nx":112,"ny":82,"refTime":"2024-09-02T18:00:00:Z","depth":0,"parameterNumber":2,"parameterNumberName":"U-component_of_WINDS"},"data":[0.0,0.0,0.0,0.0,0.0,0.0,0.0,0.0,0.0,0.0,0.0,0.0,0.0,0.0,0.0,0.0,0.0,0.0,0.0,0.0,0.0,0.0,0.0,0.0,0.0,0.0,0.0,0.0,0.0,0.0,0.0,0.0,0.0,0.0,0.0,0.0,0.0,0.0,0.0,0.0,0.0,0.0,0.0,0.0,0.0,0.0,0.0,0.0,0.0,0.0,0.0,0.0,0.0,0.0,0.0,0.0,0.0,0.0,0.0,0.0,0.0,0.0,0.0,0.0,0.0,0.0,0.0,0.0,0.0,0.0,0.0,0.0,0.0,0.0,0.0,0.0,0.0,0.0,0.0,0.0,0.0,0.0,0.0,0.0,0.0,0.0,0.0,0.0,0.0,0.0,4.5835,4.8122,5.0293,5.0596,4.8102,4.8335,4.7097,4.3552,0.0,0.0,0.0,0.0,0.0,0.0,0.0,0.0,0.0,0.0,0.0,0.0,0.0,0.0,0.0,0.0,0.0,0.0,0.0,0.0,0.0,0.0,0.0,0.0,0.0,0.0,0.0,0.0,0.0,0.0,0.0,0.0,0.0,0.0,0.0,0.0,0.0,0.0,0.0,0.0,0.0,0.0,0.0,0.0,0.0,0.0,0.0,0.0,0.0,0.0,0.0,0.0,0.0,0.0,0.0,0.0,0.0,0.0,0.0,0.0,0.0,0.0,0.0,0.0,0.0,0.0,0.0,0.0,0.0,0.0,0.0,0.0,0.0,0.0,0.0,0.0,0.0,0.0,0.0,0.0,0.0,0.0,0.0,0.0,0.0,0.0,0.0,0.0,0.0,0.0,0.0,0.0,0.0,0.0,0.0,0.0,0.0,0.0,0.0,0.0,0.0,0.0,0.0,0.0,4.5749,4.7904,4.9206,4.9179,4.7468,4.7311,4.6041,4.3153,0.0,0.0,0.0,0.0,0.0,0.0,0.0,0.0,0.0,0.0,0.0,0.0,0.0,0.0,0.0,0.0,0.0,0.0,0.0,0.0,0.0,0.0,0.0,0.0,0.0,0.0,0.0,0.0,0.0,0.0,0.0,0.0,0.0,0.0,0.0,0.0,0.0,0.0,0.0,0.0,0.0,0.0,0.0,0.0,0.0,0.0,0.0,0.0,0.0,0.0,0.0,0.0,0.0,0.0,0.0,0.0,0.0,0.0,0.0,0.0,0.0,0.0,0.0,0.0,0.0,0.0,0.0,0.0,0.0,0.0,0.0,0.0,0.0,0.0,0.0,0.0,0.0,0.0,0.0,0.0,0.0,0.0,0.0,0.0,0.0,0.0,0.0,0.0,0.0,0.0,0.0,0.0,0.0,0.0,0.0,0.0,0.0,0.0,0.0,0.0,0.0,0.0,0.0,4.5016,4.6471,4.8403,4.928,4.8981,4.7129,4.6932,4.5522,4.2305,4.2297,0.0,0.0,0.0,0.0,0.0,0.0,0.0,0.0,0.0,0.0,0.0,0.0,0.0,0.0,0.0,0.0,0.0,0.0,0.0,0.0,0.0,0.0,0.0,0.0,0.0,0.0,0.0,0.0,0.0,0.0,0.0,0.0,0.0,0.0,0.0,0.0,0.0,0.0,0.0,0.0,0.0,0.0,0.0,0.0,0.0,0.0,0.0,0.0,0.0,0.0,0.0,0.0,0.0,0.0,0.0,0.0,0.0,0.0,0.0,0.0,0.0,0.0,0.0,0.0,0.0,0.0,0.0,0.0,0.0,0.0,0.0,0.0,0.0,0.0,0.0,0.0,0.0,0.0,0.0,0.0,0.0,0.0,0.0,0.0,0.0,0.0,0.0,0.0,0.0,0.0,0.0,0.0,0.0,0.0,0.0,0.0,0.0,0.0,0.0,0.0,0.0,0.0,4.6199,4.7234,4.8835,4.9429,4.8924,4.698,4.6488,4.4894,4.1614,4.1076,0.0,0.0,0.0,0.0,0.0,0.0,0.0,0.0,0.0,0.0,0.0,0.0,0.0,0.0,0.0,0.0,0.0,0.0,0.0,0.0,0.0,0.0,0.0,0.0,0.0,0.0,0.0,0.0,0.0,0.0,0.0,0.0,0.0,0.0,0.0,0.0,0.0,0.0,0.0,0.0,0.0,0.0,0.0,0.0,0.0,0.0,0.0,0.0,0.0,0.0,0.0,0.0,0.0,0.0,0.0,0.0,0.0,0.0,0.0,0.0,0.0,0.0,0.0,0.0,0.0,0.0,0.0,0.0,0.0,0.0,0.0,0.0,0.0,0.0,0.0,0.0,0.0,0.0,0.0,0.0,0.0,0.0,0.0,0.0,0.0,0.0,0.0,0.0,0.0,0.0,0.0,0.0,0.0,0.0,0.0,0.0,0.0,0.0,0.0,0.0,0.0,0.0,4.6307,4.75,4.8865,4.9146,4.858,4.6943,4.5548,4.3783,4.1546,4.0118,0.0,0.0,0.0,0.0,0.0,0.0,0.0,0.0,0.0,0.0,0.0,0.0,0.0,0.0,0.0,0.0,0.0,0.0,0.0,0.0,0.0,0.0,0.0,0.0,0.0,0.0,0.0,0.0,0.0,0.0,0.0,0.0,0.0,0.0,0.0,0.0,0.0,0.0,0.0,0.0,0.0,0.0,0.0,0.0,0.0,0.0,0.0,0.0,0.0,0.0,0.0,0.0,0.0,0.0,0.0,0.0,0.0,0.0,0.0,0.0,0.0,0.0,0.0,0.0,0.0,0.0,0.0,0.0,0.0,0.0,0.0,0.0,0.0,0.0,0.0,0.0,0.0,0.0,0.0,0.0,0.0,0.0,0.0,0.0,0.0,0.0,0.0,0.0,0.0,0.0,0.0,0.0,0.0,0.0,0.0,0.0,0.0,0.0,0.0,0.0,0.0,0.0,4.6025,4.7428,0.0,4.9065,4.847,4.6928,4.5879,4.3972,4.0894,0.0,0.0,0.0,0.0,0.0,0.0,0.0,0.0,0.0,0.0,0.0,0.0,0.0,0.0,0.0,0.0,0.0,0.0,0.0,0.0,0.0,0.0,0.0,0.0,0.0,0.0,0.0,0.0,0.0,0.0,0.0,0.0,0.0,0.0,0.0,0.0,0.0,0.0,0.0,0.0,0.0,0.0,0.0,0.0,0.0,0.0,0.0,0.0,0.0,0.0,0.0,0.0,0.0,0.0,0.0,0.0,0.0,0.0,0.0,0.0,0.0,0.0,0.0,0.0,0.0,0.0,0.0,0.0,0.0,0.0,0.0,0.0,0.0,0.0,0.0,0.0,0.0,0.0,0.0,0.0,0.0,0.0,0.0,0.0,0.0,0.0,0.0,0.0,0.0,0.0,0.0,0.0,0.0,0.0,0.0,0.0,0.0,0.0,0.0,0.0,0.0,0.0,4.4438,4.6082,4.7631,0.0,4.9011,4.8409,4.6928,4.5669,4.3606,4.0451,0.0,0.0,0.0,0.0,0.0,0.0,0.0,0.0,0.0,0.0,0.0,0.0,0.0,0.0,0.0,0.0,0.0,0.0,0.0,0.0,0.0,0.0,0.0,0.0,0.0,0.0,0.0,0.0,0.0,0.0,0.0,0.0,0.0,0.0,0.0,0.0,0.0,0.0,0.0,0.0,0.0,0.0,0.0,0.0,0.0,0.0,0.0,0.0,0.0,0.0,0.0,0.0,0.0,0.0,0.0,0.0,0.0,0.0,0.0,0.0,0.0,0.0,0.0,0.0,0.0,0.0,0.0,0.0,0.0,0.0,0.0,0.0,0.0,0.0,0.0,0.0,0.0,0.0,0.0,0.0,0.0,0.0,0.0,0.0,0.0,0.0,0.0,0.0,0.0,0.0,0.0,0.0,0.0,0.0,0.0,0.0,0.0,0.0,0.0,0.0,0.0,0.0,4.4506,4.6549,4.8191,4.8909,4.9011,4.8409,4.6928,4.4715,4.2469,0.0,0.0,0.0,0.0,0.0,0.0,0.0,0.0,0.0,0.0,0.0,0.0,0.0,0.0,0.0,0.0,0.0,0.0,0.0,0.0,0.0,0.0,0.0,0.0,0.0,0.0,0.0,0.0,0.0,0.0,0.0,0.0,0.0,0.0,0.0,0.0,0.0,0.0,0.0,0.0,0.0,0.0,0.0,0.0,0.0,0.0,0.0,0.0,0.0,0.0,0.0,0.0,0.0,0.0,0.0,0.0,0.0,0.0,0.0,0.0,0.0,0.0,0.0,0.0,0.0,0.0,0.0,0.0,0.0,0.0,0.0,0.0,0.0,0.0,0.0,0.0,0.0,0.0,0.0,0.0,0.0,0.0,0.0,0.0,0.0,0.0,0.0,0.0,0.0,0.0,0.0,0.0,0.0,0.0,0.0,0.0,0.0,0.0,0.0,0.0,0.0,0.0,0.0,4.4574,4.6996,4.8774,4.8977,4.9011,4.8409,4.6928,4.5237,4.3112,4.0423,0.0,0.0,0.0,0.0,0.0,0.0,0.0,0.0,0.0,0.0,0.0,0.0,0.0,0.0,0.0,0.0,0.0,0.0,0.0,0.0,0.0,0.0,0.0,0.0,0.0,0.0,0.0,0.0,0.0,0.0,0.0,0.0,0.0,0.0,0.0,0.0,0.0,0.0,0.0,0.0,0.0,0.0,0.0,0.0,0.0,0.0,0.0,0.0,0.0,0.0,0.0,0.0,0.0,0.0,0.0,0.0,0.0,0.0,0.0,0.0,0.0,0.0,0.0,0.0,0.0,0.0,0.0,0.0,0.0,0.0,0.0,0.0,0.0,0.0,0.0,0.0,0.0,0.0,0.0,0.0,0.0,0.0,0.0,0.0,0.0,0.0,0.0,0.0,0.0,0.0,0.0,0.0,0.0,0.0,0.0,0.0,0.0,0.0,0.0,0.0,0.0,0.0,4.4608,4.7165,4.9011,4.9011,4.9011,4.8409,4.6928,4.5447,4.345,4.0811,0.0,0.0,0.0,0.0,0.0,0.0,0.0,0.0,0.0,0.0,0.0,0.0,0.0,0.0,0.0,0.0,0.0,0.0,0.0,0.0,0.0,0.0,0.0,0.0,0.0,0.0,0.0,0.0,0.0,0.0,0.0,0.0,0.0,0.0,0.0,0.0,0.0,0.0,0.0,0.0,0.0,0.0,0.0,0.0,0.0,0.0,0.0,0.0,0.0,0.0,0.0,0.0,0.0,0.0,0.0,0.0,0.0,0.0,0.0,0.0,0.0,0.0,0.0,0.0,0.0,0.0,0.0,0.0,0.0,0.0,0.0,0.0,0.0,0.0,0.0,0.0,0.0,0.0,0.0,0.0,0.0,0.0,0.0,0.0,0.0,0.0,0.0,0.0,0.0,0.0,0.0,0.0,0.0,0.0,0.0,0.0,0.0,0.0,0.0,0.0,0.0,0.0,4.4709,4.7233,4.9011,4.9011,4.9011,4.8409,4.6928,4.5514,4.3687,4.1339,0.0,0.0,0.0,0.0,0.0,0.0,0.0,0.0,0.0,0.0,0.0,0.0,0.0,0.0,0.0,0.0,0.0,0.0,0.0,0.0,0.0,0.0,0.0,0.0,0.0,0.0,0.0,0.0,0.0,0.0,0.0,0.0,0.0,0.0,0.0,0.0,0.0,0.0,0.0,0.0,0.0,0.0,0.0,0.0,0.0,0.0,0.0,0.0,0.0,0.0,0.0,0.0,0.0,0.0,0.0,0.0,0.0,0.0,0.0,0.0,3.9514,0.0,0.0,0.0,0.0,0.0,0.0,0.0,0.0,0.0,0.0,0.0,0.0,0.0,0.0,0.0,0.0,0.0,0.0,0.0,0.0,0.0,0.0,0.0,0.0,0.0,0.0,0.0,0.0,0.0,0.0,0.0,0.0,0.0,0.0,0.0,0.0,0.0,0.0,0.0,0.0,0.0,4.5399,4.753,4.9011,4.9011,4.9011,4.8409,4.6928,4.5974,4.4248,4.1366,4.0246,0.0,0.0,0.0,0.0,0.0,0.0,0.0,0.0,0.0,0.0,0.0,0.0,0.0,0.0,0.0,0.0,0.0,0.0,0.0,0.0,0.0,0.0,0.0,0.0,0.0,0.0,0.0,0.0,0.0,0.0,0.0,0.0,0.0,0.0,0.0,0.0,0.0,0.0,0.0,0.0,0.0,0.0,0.0,0.0,0.0,0.0,0.0,0.0,0.0,0.0,0.0,0.0,0.0,0.0,0.0,0.0,0.0,0.0,0.0,0.0,4.1435,0.0,0.0,0.0,0.0,0.0,0.0,0.0,0.0,0.0,0.0,0.0,0.0,0.0,0.0,0.0,0.0,0.0,0.0,0.0,0.0,0.0,0.0,0.0,0.0,0.0,0.0,0.0,0.0,0.0,0.0,0.0,0.0,0.0,0.0,0.0,0.0,0.0,0.0,0.0,0.0,4.5602,4.7624,4.9011,4.9011,4.9011,4.8409,4.6928,4.6109,4.4715,4.2408,4.0964,0.0,0.0,0.0,0.0,0.0,0.0,0.0,0.0,0.0,0.0,0.0,0.0,0.0,0.0,0.0,0.0,0.0,0.0,0.0,0.0,0.0,0.0,0.0,0.0,0.0,0.0,0.0,0.0,0.0,0.0,0.0,0.0,0.0,0.0,0.0,0.0,0.0,0.0,0.0,0.0,0.0,0.0,0.0,0.0,0.0,0.0,0.0,0.0,0.0,0.0,0.0,0.0,0.0,4.5888,4.5988,4.6584,4.6584,4.6212,4.5623,4.5004,4.4805,4.4803,0.0,0.0,0.0,0.0,0.0,0.0,0.0,0.0,0.0,0.0,0.0,0.0,0.0,0.0,0.0,0.0,0.0,0.0,0.0,0.0,0.0,0.0,0.0,0.0,0.0,4.612,4.664,0.0,0.0,0.0,0.0,0.0,0.0,0.0,0.0,0.0,0.0,0.0,0.0,4.5966,4.7793,4.9011,4.9011,4.9011,4.8443,4.7097,4.6312,4.5222,4.3693,4.1877,4.0716,0.0,0.0,0.0,0.0,0.0,0.0,0.0,0.0,0.0,0.0,0.0,0.0,0.0,0.0,0.0,0.0,0.0,0.0,0.0,0.0,0.0,0.0,0.0,0.0,0.0,0.0,0.0,0.0,0.0,0.0,0.0,0.0,4.3008,4.3145,0.0,0.0,0.0,0.0,0.0,0.0,0.0,0.0,0.0,0.0,0.0,0.0,0.0,4.6113,4.7396,4.8059,4.8456,4.8655,4.9218,4.9516,4.9615,4.9615,4.9582,4.9483,4.9375,0.0,4.559,4.4762,0.0,0.0,0.0,0.0,0.0,0.0,0.0,0.0,0.0,0.0,0.0,0.0,0.0,0.0,0.0,0.0,0.0,0.0,0.0,0.0,0.0,0.0,4.7404,4.675,4.7239,4.7777,0.0,4.5961,4.4373,4.3698,4.3067,0.0,0.0,0.0,0.0,0.0,0.0,0.0,4.7447,4.8436,4.9011,4.9011,4.9011,4.8672,4.7819,4.709,4.6015,4.4533,4.3518,4.2699,4.2029,4.1223,0.0,0.0,0.0,0.0,0.0,0.0,0.0,0.0,0.0,0.0,0.0,0.0,0.0,0.0,0.0,0.0,0.0,0.0,0.0,0.0,0.0,0.0,0.0,0.0,0.0,0.0,0.0,0.0,0.0,4.2887,4.4196,4.3419,4.4269,4.4299,0.0,0.0,0.0,0.0,0.0,0.0,0.0,0.0,0.0,4.8846,4.8879,4.9409,5.0461,5.0792,5.1148,5.1537,5.1826,5.1801,5.1446,5.1835,5.1329,5.0203,5.0651,4.9864,4.8233,4.7471,4.6452,4.5325,0.0,0.0,0.0,0.0,4.5807,4.5633,4.6892,4.7024,0.0,4.5733,0.0,0.0,0.0,0.0,0.0,0.0,0.0,0.0,0.0,0.0,4.8034,4.81,4.8688,4.9119,4.8721,4.7868,4.6749,0.0,4.4793,4.4264,4.3375,0.0,0.0,0.0,0.0,4.6718,4.7744,4.8537,4.9011,4.9011,4.9011,4.8706,4.7954,4.7225,4.6353,4.5304,4.4065,4.3254,4.2922,4.2219,4.1271,0.0,0.0,0.0,0.0,0.0,0.0,0.0,0.0,0.0,0.0,0.0,0.0,0.0,0.0,0.0,0.0,0.0,0.0,0.0,0.0,0.0,0.0,0.0,0.0,0.0,0.0,0.0,0.0,4.3661,4.4914,4.3649,4.4942,4.5097,0.0,0.0,0.0,0.0,0.0,0.0,4.8477,4.9201,5.0173,5.1442,5.1615,5.2032,5.2768,5.2891,5.3202,5.368,5.368,5.3424,5.2946,5.3458,5.2819,5.1329,5.1877,5.1587,5.0675,4.9748,4.839,4.6974,4.7305,4.6775,4.5988,4.7471,4.7636,4.7404,4.9086,4.9284,4.8655,4.7769,0.0,4.6841,4.5004,0.0,0.0,0.0,0.0,4.5557,4.6841,4.7736,4.8423,4.8986,4.964,5.0046,4.9516,4.9384,4.8821,0.0,4.6361,4.5796,4.4493,0.0,0.0,0.0,0.0,4.7361,4.809,4.8672,4.9011,4.9011,4.9011,4.8774,4.8225,4.7327,4.6556,4.6007,4.4546,4.37,4.37,4.3173,4.2293,4.0981,0.0,0.0,0.0,0.0,0.0,0.0,0.0,0.0,0.0,0.0,0.0,0.0,0.0,0.0,0.0,0.0,0.0,0.0,0.0,0.0,0.0,0.0,0.0,0.0,0.0,0.0,0.0,0.0,0.0,4.4694,4.6383,0.0,0.0,0.0,0.0,4.7133,4.8794,4.9867,4.9904,5.0538,5.1268,5.2032,5.2486,5.3072,5.3821,5.4189,5.4409,5.4442,5.4442,5.4442,5.4409,5.4442,5.4376,5.4276,5.4309,5.3557,5.2192,5.0742,5.0079,4.9905,4.9251,4.8953,4.8821,4.8233,4.7968,4.7968,4.8059,4.81,4.8166,4.8787,4.8522,4.7802,4.6974,4.6245,0.0,0.0,4.6253,4.6982,4.7736,4.8489,4.9052,4.9086,4.964,5.0179,5.0137,5.0137,4.9715,0.0,4.7313,4.6927,4.7157,0.0,4.6562,4.7571,4.7819,4.8124,4.8841,4.8977,4.9011,4.9011,4.9011,4.8977,4.8951,4.7639,4.6793,4.6759,4.5345,4.454,4.454,4.4506,4.4086,4.3247,4.1874,0.0,0.0,0.0,0.0,0.0,0.0,0.0,0.0,0.0,0.0,0.0,0.0,0.0,0.0,0.0,0.0,0.0,0.0,0.0,0.0,0.0,0.0,0.0,0.0,0.0,0.0,0.0,0.0,4.5761,4.7926,0.0,4.6782,4.8014,4.8867,4.8737,5.0777,5.2269,5.2754,5.311,5.4,5.5532,5.4568,5.465,5.5948,5.5666,5.5659,5.5918,5.5918,5.5677,5.5204,5.5204,5.4929,5.4508,5.4508,5.4219,5.3723,5.3184,5.1859,5.0278,5.0958,5.0925,5.0536,5.0759,5.0825,5.0825,5.0825,5.0825,5.0623,4.9438,4.8558,4.7844,4.7085,4.7005,4.7206,4.7206,4.7404,4.7669,4.7926,4.8556,4.9086,4.9086,4.964,5.0203,5.0203,5.0203,5.0038,4.9516,4.9218,4.8796,4.8026,4.8203,4.8253,4.779,4.8224,4.8706,4.8984,4.9011,4.9011,4.9011,4.9011,4.9011,4.9011,4.7639,4.6793,4.6793,4.542,4.4608,4.4608,4.4608,4.4222,4.3416,4.2787,4.164,0.0,0.0,0.0,0.0,0.0,0.0,0.0,0.0,0.0,0.0,0.0,0.0,0.0,0.0,0.0,0.0,0.0,0.0,0.0,0.0,0.0,0.0,0.0,0.0,0.0,0.0,4.7667,4.6824,4.968,5.0863,4.8688,5.005,5.1142,5.1355,5.2905,5.4168,5.4895,5.507,5.5622,5.6612,5.56,5.5442,5.6348,5.6378,5.658,5.6941,5.7271,5.7177,5.6694,5.6472,5.6074,5.5591,5.5018,5.4816,5.4844,5.4547,5.3342,5.1693,5.2217,5.1969,5.134,5.1554,5.1653,5.1618,5.1328,5.1206,5.0949,4.9397,4.8611,4.82,4.794,4.8252,4.8631,4.8368,4.8302,4.8252,4.7945,4.8639,4.9387,4.9387,5.0196,5.0949,5.0949,5.0949,5.0949,5.0949,5.0543,4.9931,4.9077,4.9299,4.9302,4.8479,4.8733,4.9011,4.9011,4.9011,4.9011,4.9011,4.9011,4.9011,4.9011,4.7639,4.6793,4.6793,4.542,4.4608,4.4608,4.433,4.4079,4.3809,4.3371,4.2122,4.0107,0.0,0.0,0.0,0.0,0.0,0.0,0.0,0.0,0.0,0.0,0.0,0.0,0.0,0.0,0.0,0.0,0.0,0.0,0.0,0.0,0.0,0.0,0.0,4.479,4.7211,4.8645,4.7896,5.153,5.3234,5.1089,5.2833,5.4386,5.5049,5.509,5.5416,5.6166,5.6164,5.5774,5.5043,5.5405,5.5408,5.495,5.6307,5.712,5.7397,5.8378,5.8849,5.8786,5.8088,5.7777,5.7694,5.6107,5.5522,5.5601,5.4721,5.4443,5.4409,5.3012,5.1994,5.1265,5.055,5.0226,5.0064,4.9209,4.8907,4.8877,4.8704,4.8653,4.8817,4.9617,4.9909,4.9798,4.9069,4.8875,4.8661,4.7832,4.8796,4.9997,4.9997,5.1214,5.2382,5.2365,5.2356,5.2347,5.2329,5.1195,5.027,5.0408,5.0,4.9696,4.9782,4.9359,0.0,4.9011,4.9011,4.9011,4.9011,4.9011,4.9011,4.9011,4.7673,4.6827,4.6793,4.5447,4.4642,4.4642,4.3862,4.3815,4.4559,4.3562,4.2185,4.0547,0.0,0.0,0.0,0.0,0.0,0.0,0.0,0.0,0.0,0.0,0.0,0.0,0.0,0.0,0.0,0.0,0.0,0.0,0.0,0.0,0.0,4.5443,4.605,4.6159,4.8139,4.967,4.9975,5.2324,5.3671,5.31,5.3545,5.4187,5.4977,5.4981,5.5274,5.6019,5.5187,5.4988,5.5621,5.4478,5.459,5.6203,5.6438,5.6678,5.6916,5.7502,5.7428,5.6733,5.7276,5.7492,5.7513,5.7781,5.7631,5.7109,5.6197,5.562,5.5204,5.4276,5.3458,5.2732,5.1954,5.0903,4.9885,4.9623,4.9187,4.8634,4.7866,4.7754,4.7822,4.7329,4.7688,4.8227,4.8027,4.7964,4.7908,4.7672,4.8796,4.9997,4.9997,5.1214,5.2239,5.1582,5.1462,5.1252,5.0634,5.0694,5.0894,5.1031,5.1007,5.0685,4.9796,4.9622,0.0,4.9063,4.9011,4.9011,4.9011,4.9011,4.9011,4.9011,4.8131,4.7353,4.6827,4.5913,4.5399,4.5399,4.504,4.4596,4.4088,4.3762,4.2776,0.0,0.0,0.0,0.0,0.0,0.0,0.0,0.0,0.0,0.0,0.0,0.0,0.0,0.0,0.0,0.0,0.0,0.0,0.0,0.0,0.0,0.0,4.7283,4.7876,4.8635,5.007,5.1184,5.1579,5.3439,5.4552,5.4242,5.4504,5.4885,5.5352,5.5359,5.5524,5.594,5.5262,5.5012,5.5378,5.4334,5.4329,5.5524,5.5941,5.6246,5.6507,5.7298,5.7376,5.6827,5.7122,5.7214,0.0,5.7131,5.7054,5.6928,5.5709,5.5292,0.0,0.0,0.0,0.0,0.0,5.1198,5.0048,4.9674,4.9074,4.8302,4.7286,4.7179,4.7403,4.7089,4.7473,4.802,4.802,4.802,4.7931,4.7553,4.8441,4.9411,4.9411,5.0383,5.1177,5.0653,5.0548,5.0413,4.9894,5.0219,0.0,5.1127,5.1455,5.137,5.061,5.0194,4.9805,4.951,4.9187,4.9011,4.9011,4.9011,4.9011,4.9011,4.8326,0.0,0.0,0.0,4.5877,4.55,4.5358,0.0,0.0,0.0,0.0,0.0,0.0,0.0,0.0,4.1282,4.1291,0.0,0.0,0.0,0.0,0.0,0.0,0.0,0.0,0.0,0.0,0.0,0.0,0.0,0.0,0.0,0.0,4.9443,4.976,5.1572,5.2419,5.2833,5.2758,5.4454,5.5396,5.4747,5.524,5.57,5.5848,5.5803,5.5821,5.5969,0.0,0.0,0.0,0.0,5.4587,5.4215,5.542,5.6108,5.6238,5.7464,5.796,5.7761,5.7213,5.6952,5.6887,5.5554,5.537,5.5904,5.443,5.4245,5.4806,5.4338,5.3668,5.2901,5.1964,5.1069,5.0185,4.9313,0.0,0.0,4.6909,4.6855,4.7344,4.7852,4.8199,4.8418,4.8449,4.8449,4.8292,4.7585,4.8055,4.8717,4.881,4.9426,5.0008,4.9909,4.9899,4.9837,4.9769,4.9829,5.0105,5.0804,5.1382,5.1729,5.179,5.0932,5.0272,5.0244,4.9593,4.9112,4.9112,0.0,0.0,4.9018,4.8469,4.8082,4.789,4.7004,4.6058,4.5207,4.5182,4.4756,4.3784,4.3795,4.3613,4.3243,4.3208,4.3152,4.304,4.1759,4.1374,0.0,0.0,0.0,0.0,0.0,0.0,0.0,0.0,0.0,0.0,0.0,0.0,0.0,0.0,0.0,5.0269,5.1249,5.2149,5.3023,5.3282,5.3405,5.3558,5.3779,5.4149,5.4646,5.4252,5.4462,5.5653,5.5142,5.5257,5.6398,5.5853,5.5413,5.5282,5.5252,5.5534,5.6074,5.6968,5.7079,5.6456,0.0,0.0,5.5769,5.6406,5.6674,5.671,5.7203,5.7196,5.6728,5.5717,5.4734,5.3819,5.3343,5.2639,5.179,5.0782,4.9907,4.9067,4.8138,4.7882,4.7762,4.6638,4.6602,4.6975,4.6912,4.7054,0.0,4.7495,4.7549,4.7626,4.8022,4.8702,4.9455,4.9998,5.0788,5.1224,5.0525,5.0366,5.0163,4.9521,4.9925,5.0244,4.9864,5.06,5.1366,5.1737,5.1598,5.1337,5.1034,5.0338,4.9872,4.9872,4.9872,4.9635,4.9044,4.9424,4.9099,4.7723,4.6779,4.5832,4.4927,4.5446,4.5071,4.3607,4.4087,4.365,4.2273,4.333,4.3744,4.3546,4.2583,4.2179,0.0,0.0,0.0,0.0,0.0,0.0,0.0,0.0,0.0,0.0,0.0,4.6141,4.7114,0.0,5.0233,5.1851,5.2643,5.3397,5.4329,5.4445,5.4256,5.3723,5.3574,5.3803,5.4515,5.4232,5.4415,5.5483,5.5181,5.5273,5.5966,5.5604,5.5403,5.5403,5.5552,5.5769,5.5993,5.6842,5.6967,5.6421,5.7062,5.6919,5.6162,5.6335,5.6391,5.6416,5.6561,5.6441,5.6043,5.5256,5.4351,5.3385,5.3136,5.2676,5.1963,5.0876,4.9915,4.913,4.8666,4.8278,4.7861,4.6977,4.6928,4.7115,4.6731,4.6982,4.7451,4.7722,4.8038,4.8379,4.8708,4.9101,4.9491,4.9824,5.0225,5.0432,4.9984,4.9885,4.9783,4.9378,4.9616,4.9907,4.9973,5.0543,5.1134,5.1633,5.1845,5.1891,5.1785,5.1108,5.0642,5.0642,5.0642,5.0499,5.0119,4.9988,4.9277,4.7828,4.7298,4.6788,4.6212,4.619,4.583,4.5024,4.4835,4.4349,4.3486,4.3942,4.4099,4.3984,4.3441,4.3253,0.0,0.0,0.0,0.0,0.0,0.0,0.0,4.3206,4.4338,4.5743,4.6928,4.8281,5.0109,5.0544,5.1327,5.3516,5.3865,5.4213,5.5258,5.5403,5.5026,5.3981,5.3865,5.4068,5.4619,5.4677,5.4938,5.5562,5.5577,5.5649,5.5765,5.5751,5.5751,5.5751,5.6094,5.6135,5.5876,5.6673,5.6894,5.6592,5.7067,5.7214,5.7064,5.6611,5.6372,5.6342,5.5671,5.5401,5.5341,5.467,5.4012,5.3396,5.3396,5.3108,5.2555,5.1373,5.0413,4.9675,4.9434,4.8887,4.8191,4.7582,4.7525,4.7607,4.7166,4.754,4.8146,4.8432,4.8887,4.9318,4.9426,4.9486,4.9516,4.9636,4.9666,4.9666,4.9666,4.9666,4.9666,4.9666,4.9666,4.9832,5.0362,5.0723,5.1064,5.1442,5.1764,5.1974,5.1983,5.1463,5.1125,5.1192,5.1134,5.1043,5.0861,4.9923,4.8859,4.7757,4.7653,4.7491,4.7175,4.658,4.6273,4.6273,4.5419,4.496,4.4918,4.4603,4.4437,4.4434,4.4385,4.4309,4.0699,4.1308,4.2063,4.3264,4.3612,4.428,0.0,4.7155,4.7805,4.9664,5.0598,5.1485,5.282,5.3574,5.4242,5.5055,5.5171,5.5242,5.5374,5.5403,5.5358,5.52,5.5171,5.5229,5.5287,5.5287,5.5577,5.6258,5.6273,5.6506,5.7071,5.71,5.71,5.71,5.7408,5.7576,5.7534,5.8169,5.8145,5.7541,5.7849,5.7679,5.7094,5.7047,5.7017,5.6958,5.6342,5.6102,5.6042,5.5371,5.47,5.4089,5.4089,5.3697,5.2984,5.1824,5.0991,5.0223,4.9171,4.8872,4.8892,4.8284,4.8212,4.843,4.8593,4.8725,4.8852,4.9119,4.9228,4.9426,4.9949,5.0088,5.0249,5.0858,5.0978,5.0978,5.0978,5.0978,5.0978,5.0978,5.0978,5.0822,5.0315,5.0894,5.1345,5.1172,5.1337,5.1312,5.0927,5.0868,5.0895,5.1093,5.0939,5.049,4.9586,4.866,4.7725,4.6872,4.6738,4.6333,4.5594,4.5471,4.5419,4.5419,4.5148,4.4876,4.4666,4.4936,4.5011,4.4847,4.5424,4.5075,4.2382,4.3264,4.3961,4.489,4.5674,4.6574,4.8014,4.8926,4.9925,5.1494,5.2601,5.3545,5.4445,5.4822,5.5229,5.5867,5.5983,5.6099,5.6461,5.652,5.6374,5.6012,5.6273,5.6361,5.6026,5.5983,5.6244,5.6868,5.6912,5.7042,5.7303,5.7303,5.7303,5.7303,5.7765,5.7961,5.7795,5.8555,5.8722,5.8291,5.8562,5.853,5.8261,5.7859,5.7483,5.7077,5.6462,5.6192,5.6162,5.5491,5.5029,5.479,5.479,5.4284,5.3377,5.1999,5.1406,5.1099,5.0091,4.9826,4.9827,4.9345,4.9132,4.9055,4.8935,4.9182,4.9525,4.9754,5.0092,5.0451,5.0727,5.0775,5.0847,5.1116,5.1206,5.1295,5.1696,5.1487,5.1307,5.1708,5.1457,5.1116,5.0817,5.1174,5.1307,5.0668,5.096,5.1064,5.0576,5.0549,5.0589,5.0672,5.0607,5.0148,4.9095,4.8647,4.8209,4.7662,4.7202,4.7154,4.7611,4.6871,4.6651,4.7051,4.6661,4.6243,4.5743,4.6023,4.5916,4.55,4.5761,4.5616,4.3816,4.4821,4.5634,4.6446,4.7648,4.8822,4.9611,5.0656,5.1888,5.3339,5.4371,5.52,5.5809,5.5925,5.607,5.6564,5.6665,5.6796,5.7245,5.7158,5.6955,5.668,5.6897,5.6955,5.6651,5.6665,5.6839,5.7274,5.7303,5.7303,5.7303,5.7303,5.7331,5.7416,5.7932,5.8169,5.8045,5.8746,5.8991,5.88,5.9004,5.9099,5.9085,5.8607,5.8098,5.7603,5.6987,5.6718,5.6658,5.582,5.5491,5.5461,5.5281,5.4779,5.3999,5.2566,5.1842,5.1507,5.0853,5.054,5.0352,5.0141,4.9964,4.9798,4.951,4.9811,5.0279,5.043,5.0966,5.1487,5.1487,5.1606,5.1756,5.1756,5.1756,5.1876,5.2366,5.2097,5.1858,5.2127,5.1816,5.1427,5.1236,5.1322,5.1144,5.0311,5.0574,5.0621,4.9975,4.9989,5.0029,4.997,4.996,4.962,4.8737,4.8663,4.8631,4.8573,4.8128,4.8278,4.9258,4.8379,4.8068,4.8558,4.8044,4.7548,4.711,4.7071,4.6754,4.6156,4.6156,4.6051,4.4687,4.5808,4.705,4.831,4.9611,5.0942,5.2191,5.2962,5.3952,5.5896,5.6316,5.6549,5.7129,5.7245,5.7245,5.7274,5.7274,5.7274,5.7303,5.681,5.6636,5.7216,5.6767,5.6665,5.7216,5.7274,5.7274,5.7303,5.7303,5.7303,5.7303,5.7303,5.7444,5.7767,5.8043,5.8362,5.868,5.895,5.9085,5.9085,5.9099,5.9099,5.9099,5.9069,5.9069,5.9009,5.8338,5.8025,5.7935,5.6688,5.6162,5.6102,5.5461,5.5179,5.5026,5.3782,5.2373,5.101,5.0998,5.0601,5.0147,5.0399,5.0609,5.0751,5.0751,5.0958,5.1164,5.1176,5.1636,5.2187,5.2187,5.2648,5.3139,5.3139,5.3139,5.3126,5.3169,5.3169,5.2947,5.2306,5.2187,5.1977,5.1295,5.1199,5.0971,5.0297,5.0235,4.9851,4.8783,4.8994,4.9146,4.8892,4.884,4.8695,4.8342,4.8333,4.8591,4.9228,4.9258,4.9258,4.9288,4.9258,4.9258,4.9258,4.8736,4.8473,4.8443,4.7998,4.7433,4.676,4.676,4.6464,4.5651,4.7091,4.8484,5.0196,5.1294,5.2307,5.3572,5.4342,5.4952,5.5606,5.5736,5.5664,5.5461,5.5432,5.5577,5.5954,5.6419,5.6839,5.7245,5.7129,5.6912,5.6723,5.6868,5.6926,5.6709,5.7071,0.0,5.7303,5.7303,5.7303,5.7303,5.7303,5.7444,5.7795,5.8043,5.8362,5.8707,5.8964,5.9099,5.9099,5.9099,5.9099,5.9099,5.9099,5.9099,5.9069,5.8397,5.8085,5.8025,5.7154,5.6808,5.6778,5.6539,5.6362,5.6091,5.5243,5.4212,5.3116,5.2238,5.1908,5.1952,5.219,5.2335,5.2306,5.1846,5.2097,5.2426,5.2007,5.2336,5.2857,5.2857,5.3049,5.3198,5.3198,5.3198,5.3306,5.3773,5.3516,5.3276,5.3461,5.3186,5.2648,5.1977,5.1846,5.1636,5.0966,5.014,4.9468,4.9108,4.9181,4.9248,4.913,4.912,4.9087,4.8981,4.8947,4.9235,4.9871,4.9505,4.9666,5.0541,4.9756,4.9418,4.9683,4.9348,4.8857,4.8231,4.833,4.8072,4.7462,4.7462,4.7358,4.6859,4.8438,4.9889,5.1804,5.2601,5.3252,5.4532,5.4938,5.5084,5.5084,5.488,5.459,5.4213,5.4155,5.4416,5.5258,5.5954,5.668,5.7536,5.7274,5.6999,5.7071,5.7013,5.6926,5.6752,5.7071,0.0,5.7303,5.7303,5.7345,5.7458,5.736,5.7542,5.81,5.8183,5.8417,5.8857,5.9004,5.9099,5.9099,5.9099,5.9099,5.9099,5.9099,5.9099,5.9069,5.8637,5.8457,5.8397,5.7739,5.7453,5.7423,5.7184,5.6989,5.6789,5.6268,5.5708,5.4986,5.3453,5.2842,5.2837,5.2991,5.3113,5.3114,5.2557,5.2784,5.3097,5.2677,5.3037,5.3575,5.3575,5.3725,5.3905,5.3905,5.3905,5.4024,5.4461,5.4234,5.3964,5.4149,5.3862,5.3336,5.2677,5.2558,5.2336,5.1666,5.0852,5.0175,4.9684,4.9426,4.9288,4.9288,4.9288,4.9396,4.9595,4.9625,4.9883,5.0518,5.0182,5.0331,5.1187,5.0421,5.0048,5.021,4.9994,4.9498,4.8817,4.8976,4.8728,4.813,4.813,4.8026,4.8263,4.9756,5.122,5.3052,5.3487,5.3807,5.5026,5.4851,5.4416,5.4329,5.3836,5.3371,5.3226,5.3313,5.3807,5.5055,5.5867,5.681,5.8116,5.7274,5.6955,5.8203,5.726,5.6767,5.7361,5.739,0.0,5.739,0.0,5.7488,5.7811,5.7573,5.7811,5.8666,5.8419,5.8543,5.9085,5.9099,5.9099,5.9099,5.9099,5.9099,5.9099,5.9099,5.9099,5.9099,5.9099,5.9099,5.9069,5.8427,5.8145,5.8098,5.7453,5.7184,5.7158,5.6865,5.676,5.6492,5.4603,5.3521,5.2961,5.2944,5.3098,5.324,5.297,5.3068,5.3288,5.3258,5.3713,5.4239,5.4239,5.473,5.5192,5.5192,5.5192,5.5192,5.5192,5.5192,5.4999,5.4359,5.4209,5.4012,5.3366,5.3216,5.2977,5.2336,5.2247,5.1768,5.0416,4.9733,4.9408,4.9408,4.9408,4.9625,5.0207,5.0267,5.0506,5.1146,5.1206,5.1206,5.1206,5.1206,5.1047,5.0799,5.0579,5.0357,5.0074,4.9803,4.9361,4.8745,4.8745,4.8438,4.9042,5.0755,5.2336,5.3255,5.3487,5.3603,5.3923,5.3865,5.3342,5.1975,5.1904,5.1514,4.9582,5.0801,5.2356,5.3165,5.4633,5.6273,5.8058,5.8029,5.8116,5.8958,5.8755,5.861,5.8784,5.8784,0.0,0.0,5.8319,5.8087,5.8172,5.8751,5.8845,5.8351,5.8974,5.9252,5.9085,5.9099,5.9099,5.9099,5.9099,5.9099,5.9099,5.9099,5.9099,5.9099,5.9099,5.9099,5.9099,5.8919,5.8846,5.8816,5.865,5.859,5.8517,5.7959,5.7753,5.7603,5.6614,5.5696,5.4917,5.4686,5.462,5.4581,5.4027,5.4232,5.4593,5.4072,5.4431,5.494,5.494,5.5059,5.5192,5.5192,5.5192,5.5192,5.5192,5.5192,5.5162,5.4982,5.4551,5.4149,5.397,5.3545,5.3139,5.2977,5.2947,5.2456,5.1128,5.0799,5.072,5.072,5.072,5.0769,5.0936,5.0936,5.1026,5.1176,5.1206,5.1206,5.1206,5.1011,5.0787,5.0567,5.0327,5.0074,4.979,4.9717,4.9606,4.9449,4.9449,4.9361,5.0622,5.1946,5.3165,5.3778,5.353,5.3094,5.3094,5.2443,5.1456,5.0104,4.9872,4.9494,4.8055,4.9681,5.1497,5.2452,5.4181,5.6186,5.8435,5.8493,5.8755,5.9974,5.9858,5.9684,5.9684,5.9684,5.9684,0.0,5.9204,5.8985,5.9128,5.9621,5.9789,5.9486,5.9868,5.9916,5.9548,5.9548,5.9398,5.9099,5.9099,5.9099,5.9099,5.9099,5.9099,5.9099,0.0,5.9099,5.9099,5.9099,5.9099,5.9099,5.9099,5.9099,5.9069,5.8667,5.8547,5.8457,5.7769,5.6989,5.6229,5.5799,5.5431,5.5132,5.476,5.491,5.5119,5.473,5.491,5.5192,5.5192,5.5192,5.5192,5.5192,5.5192,5.5192,5.5192,5.5192,5.5192,5.5192,5.491,5.464,5.464,5.4324,5.3994,5.3695,5.3635,5.3144,5.1816,5.1636,5.1517,5.1236,5.1206,5.1206,5.1206,5.1206,5.1206,5.1206,5.1206,5.1206,5.1206,5.0941,5.0704,5.0501,5.0231,4.9977,4.9693,4.9693,4.9693,4.9693,4.9693,4.9693,5.2394,5.321,5.3865,5.4387,5.3588,5.2655,5.2394,5.0975,4.9453,4.8513,4.8043,4.7718,4.7445,4.9129,5.0987,5.2249,5.4052,5.6215,5.8929,5.8813,5.9161,6.1077,6.0816,6.0438,6.0438,6.0526,6.0555,6.0467,6.0341,6.0266,6.026,6.0362,6.0692,6.1225,6.0867,6.0539,6.025,6.022,5.9907,5.9249,5.9249,5.9189,5.9099,5.9099,5.9099,5.9099,5.9099,0.0,5.9099,5.9099,5.9099,5.9099,5.9099,5.9099,5.9099,5.9099,5.9099,5.9009,5.8414,5.7799,5.7124,5.6432,5.5743,5.5192,5.5192,5.5192,5.5192,5.5192,5.5192,5.5192,5.5192,5.5192,5.5192,5.5192,5.5192,5.5192,5.5192,5.5192,5.5192,5.5192,5.5192,5.5192,5.5192,5.5192,5.4999,5.4418,5.4329,5.3892,5.2636,5.2396,5.2067,5.1397,5.1427,5.1457,5.1457,5.1457,5.1427,5.1337,5.1325,5.1284,5.1141,5.0893,5.0644,5.0453,5.0171,4.9941,4.9693,4.9693,4.9693,4.9693,4.9693,4.9693,5.3152,5.4184,5.4967,5.459,5.3923,5.2949,5.1378,5.0332,4.9071,4.6835,4.7126,4.7312,4.5703,4.784,5.0295,5.1572,5.34,5.5751,5.8871,5.919,5.9829,6.1716,6.1832,6.1774,6.1774,6.2267,0.0,0.0,6.2742,6.2542,6.0721,6.1366,6.1803,6.1928,6.1347,6.0974,6.094,6.0924,6.0595,5.9921,5.9921,5.9651,5.9099,5.9099,5.9099,5.9099,5.9099,0.0,5.9099,5.9099,5.9099,5.9099,5.9099,5.9099,5.9099,5.9099,5.9099,5.9085,5.8979,5.8487,5.7739,5.6568,5.5743,5.5192,5.5192,5.5192,5.5192,5.5192,5.5192,5.5192,5.5192,5.5192,5.5192,5.5192,5.5192,5.5192,5.5192,5.5192,5.5192,5.5192,5.5192,5.5192,5.5192,5.5192,5.5162,5.5029,5.5042,5.473,5.394,5.3366,5.2767,5.2097,5.2516,5.2857,5.2857,5.2857,5.2618,5.2067,5.2037,5.1673,5.0893,5.0674,5.0423,5.0159,4.9917,4.9742,4.9693,4.9693,4.9693,4.9693,4.9693,4.9693,5.3849,5.4706,5.5258,5.4648,5.3487,5.2094,5.0523,4.8909,4.737,4.6138,4.6382,4.6527,4.5587,4.748,4.9627,5.0917,5.2468,5.4749,5.829,5.9074,6.0119,6.237,6.2906,6.3094,6.3094,6.3384,6.3297,6.2689,6.3214,6.3269,6.2511,6.2854,6.2953,6.263,6.2301,6.1972,6.1598,6.1598,6.1283,6.0625,6.028,5.9921,5.9608,5.9249,5.9099,5.9099,5.9099,0.0,5.9099,5.9099,5.9099,5.9099,5.9099,5.9099,5.9099,5.9099,5.9099,5.9099,5.9099,5.8667,5.7995,5.7393,5.6735,5.606,5.5401,5.5431,5.5641,5.5311,5.5192,5.5192,5.5192,5.5461,5.573,5.573,5.573,5.573,5.573,5.5461,5.5192,5.5192,5.5192,5.5192,5.5192,5.5192,5.5192,5.5192,5.5192,5.497,5.4299,5.4221,5.3845,5.2827,5.3007,5.3198,5.3198,5.3198,5.3067,5.2737,5.2396,5.1948,5.1345,5.1093,5.0839,5.0571,5.0647,5.0523,5.0216,5.0552,5.0523,5.0245,5.0552,5.0685,5.4561,5.5229,5.5649,5.488,5.3226,5.1427,5.0029,4.7823,4.6051,4.5935,4.5906,4.5906,4.5906,4.7317,4.9001,5.0448,5.1871,5.4094,5.7768,5.8987,6.038,6.279,6.3645,6.4065,6.421,6.421,0.0,6.3625,6.3735,6.3838,6.3899,6.3966,6.3722,6.3123,6.3108,6.2854,6.2301,6.2301,6.1972,6.1299,6.0775,6.037,6.007,5.9548,5.9249,5.9099,5.9099,0.0,0.0,5.9099,5.9099,5.9099,5.9099,5.9099,5.9099,5.9099,5.9099,5.9099,5.9099,5.8756,5.8308,5.8145,5.7649,5.6898,5.576,5.579,5.6072,5.5401,5.5311,5.5401,5.5401,5.591,5.6402,5.6402,5.6402,5.6372,5.6222,5.588,5.5521,5.5251,5.5431,5.5521,5.5251,5.5311,5.5371,5.5222,5.5192,5.4999,5.4478,5.488,5.4803,5.3725,5.3648,5.3648,5.3648,5.3648,5.3575,5.3426,5.2905,5.2431,5.1943,5.1748,5.1449,5.1145,5.1441,5.1369,5.09,5.1369,5.1369,5.09,5.1369,5.1588,5.5287,5.6186,5.6839,5.5606,5.3907,5.2004,5.0121,4.8135,4.6569,4.6022,4.5906,4.5906,4.5906,4.698,4.849,5.039,5.2223,5.4561,5.7855,5.9364,6.0845,6.2848,6.3645,6.4239,6.4851,6.4909,6.5023,6.5252,6.5832,6.531,6.3295,6.3713,6.3722,6.3123,6.3108,6.3063,6.3003,6.3003,6.2674,6.2002,6.1942,6.1297,6.01,6.004,5.9681,5.9099,5.9099,0.0,0.0,5.9099,5.9099,5.9099,5.9099,5.9099,5.9099,5.9099,5.9099,5.9099,5.9099,5.9069,5.8906,5.8308,5.7649,5.6987,5.6312,5.6162,5.6072,5.5401,5.5641,5.6102,5.6102,5.6551,5.7017,5.7017,5.7017,5.6868,5.6312,5.6568,5.6598,5.5431,5.6137,5.6568,5.5401,5.57,5.5893,5.5281,5.5192,5.5192,5.5132,5.5162,5.5162,5.5042,5.5012,5.5012,5.5012,5.5012,5.476,5.4149,5.4059,5.3508,5.2383,5.2316,5.2067,5.1552,5.1572,5.1572,5.1514,5.1572,5.1572,5.1514,5.1572,5.1588,5.4039,5.5171,5.5852,5.4561,5.3123,5.1497,4.9528,4.7903,4.6627,4.6022,4.5906,4.6022,4.6377,4.687,4.7956,5.0332,5.1336,5.292,5.6113,5.7652,5.9335,6.1687,6.2848,6.3864,6.4896,0.0,6.5676,6.6028,6.6694,6.6355,6.4646,6.4576,6.4291,6.3662,6.3273,6.3108,6.3108,6.3108,6.2988,6.2704,6.2285,6.1822,6.1297,6.0459,5.9951,5.9711,5.9711,0.0,0.0,5.9548,5.9458,5.9099,5.9099,5.9099,5.9099,5.9099,5.9099,5.9099,5.9099,5.9099,5.9069,5.8786,5.8517,5.8112,5.7047,5.7004,5.7214,5.6526,5.6539,5.6748,5.6748,5.7214,5.7799,5.8201,5.7992,5.762,5.7393,5.7214,5.6958,5.6436,5.6735,5.6958,5.6436,5.6239,5.6102,5.5833,5.5461,5.5192,5.5192,5.5192,5.5192,5.5192,5.5192,5.5192,5.5192,5.5192,5.5102,5.482,5.4251,5.3674,5.3019,5.2818,5.2535,5.222,5.2559,5.2559,5.2207,5.2559,5.2559,5.2207,5.2559,5.2733,5.2646,5.3865,5.4561,5.35,5.2281,5.0875,4.9093,4.7718,4.6685,4.6243,4.6156,4.6359,4.6986,4.7236,4.8019,5.0087,5.0884,5.2236,5.501,5.6839,5.8726,6.0932,6.2325,6.3661,6.5141,6.6093,6.6695,6.6829,6.7228,6.7101,6.6288,6.5621,6.4979,6.4336,6.3887,6.3572,6.3363,6.3363,6.3273,6.3093,6.2614,6.2285,6.2061,6.1118,6.0489,6.01,6.01,0.0,0.0,5.9526,5.945,5.9085,5.9004,5.9018,5.9099,5.9099,5.9099,5.9099,5.9099,5.9099,5.9099,5.9099,5.9099,5.8919,5.7992,5.7889,5.7979,5.7304,5.7244,5.7453,5.7633,5.8038,5.8517,5.9009,5.8726,5.8338,5.8145,5.7889,5.7573,5.7184,5.7423,5.7513,5.6928,5.6628,5.6342,5.5953,5.5671,5.5431,5.5222,5.5371,5.5431,5.5222,5.5192,5.5192,5.5192,5.5146,5.5095,5.5095,5.4365,5.3833,5.3553,5.3323,5.3179,5.3149,5.3588,5.3588,5.3165,5.3588,5.3588,5.3165,5.3371,5.3487,5.1456,5.2559,5.3371,5.2772,5.1639,5.0349,4.9018,4.7718,4.6789,4.6789,4.6789,4.7015,4.7677,4.8275,4.8919,4.9586,5.1323,5.3223,5.5126,5.7652,5.9771,6.1048,6.2325,6.3835,6.5718,6.7398,6.8239,6.7918,6.7589,0.0,6.7956,6.67,6.5697,6.5024,6.4994,6.468,6.4006,6.3977,6.3677,6.3108,6.3108,6.2734,6.2091,6.2091,6.1357,0.0,0.0,0.0,0.0,5.883,5.8885,5.9072,5.8817,5.8855,5.9099,5.9099,5.9099,5.9099,5.9099,5.9099,5.9099,5.9099,5.9099,5.9099,5.9085,5.8637,5.7979,5.7304,5.756,5.8234,5.8919,5.9085,5.9099,5.9099,5.9085,5.8906,5.8234,5.8607,5.868,5.7363,5.8171,5.8471,5.6551,5.6688,5.6658,5.5401,5.576,5.5953,5.5281,5.5773,5.5953,5.5281,5.5192,5.5192,5.5192,5.4968,5.4815,5.4815,5.4487,5.4175,5.3903,5.389,5.4067,5.4474,5.4503,5.4503,5.4474,5.4503,5.4503,5.4474,5.3807,5.3487,4.9453,5.0249,5.0755,5.0104,4.9971,4.9565,4.7787,4.7758,4.7845,4.6963,4.7161,4.7666,4.8292,4.8943,4.9884,5.1423,5.2543,5.3878,5.5809,5.7565,5.9422,6.1542,6.4112,6.6115,0.0,0.0,6.8362,6.8256,6.7948,6.7694,6.7596,6.6794,6.6127,6.5697,6.5233,6.4904,6.468,6.4665,6.459,6.4381,6.3917,6.3588,6.3378,6.248,6.1866,0.0,0.0,0.0,0.0,6.0365,6.0123,5.9714,5.8965,5.8841,5.9045,5.865,5.8637,5.8787,5.8568,5.8637,5.8844,5.8844,5.8936,5.9099,5.9099,5.8936,5.8726,5.853,5.862,5.8816,5.9026,5.9099,5.9099,5.9099,5.9099,5.9039,5.8816,5.8936,5.8979,5.856,5.88,5.8756,5.7679,5.7274,5.6958,5.6568,5.6329,5.6282,5.6479,5.6688,5.6568,5.5953,5.588,5.57,5.5251,5.4955,5.4803,5.4803,5.4307,5.398,5.3906,5.416,5.4161,5.3836,5.4271,5.4503,5.4503,5.4503,5.4706,5.5113,5.4909,5.4793,4.7828,4.8478,4.8868,4.8449,4.8665,4.8665,4.7451,4.7799,4.8205,4.7642,4.7857,4.842,4.9291,4.9797,5.0564,5.1975,5.2949,5.401,5.5461,5.7405,5.9713,6.2499,6.5025,6.6796,0.0,6.8244,6.8801,6.895,6.8438,6.8051,6.8014,6.7057,6.6452,6.6385,6.5966,6.5637,6.5398,6.5398,6.5233,6.4994,6.4321,6.3948,6.3801,6.2786,6.2088,0.0,0.0,0.0,0.0,6.0485,6.0347,6.0176,5.9103,5.9034,5.9387,5.878,5.8678,5.8814,5.8623,5.8678,5.8841,5.8841,5.895,5.9099,5.9099,5.9099,5.9099,5.9099,5.9099,5.9099,5.9099,5.9099,5.9099,5.9099,5.9099,5.9099,5.9099,5.9099,5.9099,5.9099,5.9099,5.8876,5.8218,5.7739,5.7393,5.7137,5.7017,5.6958,5.7064,5.7334,5.7154,5.6282,5.6089,5.5756,5.5087,5.4905,5.4764,5.4632,5.4165,5.3867,5.3762,5.4219,5.4416,5.4213,5.488,5.5229,5.5229,5.5229,5.5287,5.5403,5.5896,5.5881,0.0,4.7201,4.7648,4.7648,4.7718,4.7718,4.7677,4.7776,0.0,4.8525,4.8716,4.9192,5.0535,5.0768,5.1017,5.1746,5.2878,5.3894,5.4677,5.7579,6.0772,6.3832,6.5341,6.6344,6.6986,6.8386,6.942,6.9787,6.8947,6.8544,6.8909,6.7434,6.669,6.6999,6.6983,6.6684,6.6071,6.6056,6.5757,6.5144,6.4411,6.3949,6.3669,6.2941,6.2099,0.0,0.0,0.0,0.0,5.9596,5.984,6.0509,5.9276,5.9336,6.0018,5.9319,5.908,5.905,5.9007,5.9004,5.9045,5.9085,5.9099,5.9099,5.9099,5.9099,5.9099,5.9099,5.9099,5.9099,5.9099,5.9099,5.9099,5.9099,5.9099,5.9099,5.9099,5.9099,5.9099,5.9099,5.9099,5.8876,5.8218,5.8085,5.7889,5.7274,5.7709,5.7876,5.7277,5.7713,5.758,5.635,5.5883,5.5417,5.4807,5.4764,5.4607,5.4291,5.4065,5.3821,5.35,5.4184,5.4793,5.5258,5.5954,5.6361,5.639,5.6448,5.6128,5.5548,5.6752,5.6665,4.5924,0.0,4.6342,4.6342,4.6708,4.6928,0.0,4.7462,4.8409,4.8072,4.8781,4.9855,5.1137,5.1398,5.2065,5.4155,5.4764,5.5519,5.7187,6.0569,6.3732,6.5954,6.7331,6.8201,6.8347,6.8704,6.8963,6.9064,6.8638,6.8338,6.8176,6.7599,6.7182,6.6999,6.6753,6.6648,6.6759,6.6759,6.67,6.652,6.5338,6.4725,6.4606,6.3237,6.2467,0.0,0.0,0.0,6.1571,6.0908,6.0789,6.0876,5.9866,5.973,5.9958,5.8888,5.8611,5.8677,5.7969,5.8029,5.85,5.895,5.9099,5.9099,5.9099,5.9099,5.9099,5.9099,5.9099,5.9099,5.9099,5.9099,5.9099,5.9099,5.9099,5.9099,5.9099,5.9099,5.9099,5.9099,5.9099,5.8876,5.8218,5.8085,5.8068,5.7889,5.7995,5.8168,5.8294,5.8013,5.7397,5.6383,5.5745,5.5132,5.4453,5.423,5.4075,5.398,5.4203,5.4105,5.3516,5.459,5.4793,5.3952,5.5055,5.5896,5.639,5.6868,5.7013,5.6868,5.7158,5.7158,4.5732,4.6324,4.6777,4.6777,4.7027,4.7259,4.7201,4.7538,4.7816,4.7794,4.8577,4.964,5.0946,5.1891,5.3023,5.4706,5.5693,5.7071,5.9306,6.1643,6.4067,6.6609,6.7492,6.8143,0.0,6.8946,6.8901,6.8627,6.8346,6.7978,6.7524,6.691,6.6581,6.6537,6.6226,6.6336,6.6999,6.6691,6.6629,6.6738,6.5573,6.4767,6.4335,6.3134,6.244,0.0,0.0,0.0,6.1836,6.1321,6.1204,6.1234,6.0279,6.0146,6.0423,5.9168,5.8789,5.8814,5.7999,5.8015,5.85,5.895,5.9099,5.9099,5.9099,5.9099,5.9099,5.9099,5.9099,5.9099,5.9099,5.9099,5.9099,5.9099,5.9099,5.9099,5.9099,5.9099,5.9099,5.9099,5.9099,5.8966,5.8637,5.8577,5.8577,5.8577,5.8577,5.8643,5.8866,5.8584,5.7851,5.6607,5.6034,5.5312,5.4211,5.388,5.3775,5.3906,5.4112,5.3997,5.3516,5.4706,5.5345,5.5242,5.5649,5.6157,5.6796,5.7158,5.7303,5.7303,5.7303,5.7303,4.5935,4.7184,4.8125,4.7631,4.7747,4.8014,4.835,4.7729,4.7236,4.7823,4.8508,4.9453,5.0987,5.2572,5.401,5.5055,5.6651,5.8581,6.099,6.1948,6.3457,6.6406,6.6841,0.0,6.8405,6.876,6.871,6.8218,6.7956,6.7562,6.6946,6.6165,6.5813,6.5992,6.5664,6.5931,6.6845,6.6288,6.6132,6.6428,6.5469,6.4572,6.3798,6.2989,6.2286,6.1745,0.0,0.0,6.1539,6.1219,6.1292,6.1452,6.0603,6.0557,6.0822,5.966,5.916,5.8955,5.8348,5.8321,5.8625,5.8868,5.8964,5.8964,5.8964,5.8991,5.9031,5.9031,5.9058,5.9099,5.9099,5.9099,5.9099,5.9099,5.9099,5.9099,5.9099,5.9099,5.9099,5.9099,5.9058,5.9031,5.9031,5.9031,5.9031,5.9031,5.9031,5.9018,5.8964,5.8833,5.8162,5.6663,5.6217,5.5477,5.4101,5.369,5.3651,5.3974,5.4,5.394,5.3791,5.4822,5.5968,5.7158,5.6665,5.6694,5.7303,5.7303,5.7303,5.7303,5.7303,5.7303,4.6893,4.8851,4.9606,4.6864,4.7375,4.831,4.7323,4.7787,4.8426,4.8554,4.9524,5.1104,5.3471,5.4155,5.5258,5.8102,5.9248,6.0264,6.1745,6.2978,6.4297,6.5864,0.0,6.6986,6.719,6.7239,6.7243,6.7127,6.735,6.7194,6.6534,6.6656,6.652,6.6021,6.5664,6.5696,6.6148,6.6039,6.6023,6.607,6.5345,6.4931,6.4751,6.3256,6.2534,6.2417,0.0,6.1268,6.1268,6.1197,6.1211,6.1239,6.1081,6.0761,6.0252,5.9568,5.8914,5.8374,5.8001,5.7892,5.7975,5.8266,5.8319,5.8319,5.8319,5.8541,5.8746,5.8746,5.8909,5.9099,5.9099,5.9099,5.9099,5.9099,5.9099,5.9099,5.9099,5.9099,5.9099,5.9099,5.8909,5.8746,5.8746,5.8746,5.8746,5.8746,5.8746,5.865,5.836,5.7627,5.6737,5.5692,5.51,5.4682,5.4425,5.3862,5.3762,5.4367,5.4425,5.4615,5.5084,5.5287,5.5765,5.6506,5.6461,5.6694,5.7303,5.7303,5.7303,5.7303,5.7303,5.7303,4.6255,4.8171,4.9262,4.777,4.9366,5.105,5.0133,5.0121,5.0266,5.0266,5.1046,5.2294,5.4155,5.5316,5.6955,5.9858,6.0555,6.1208,6.2441,6.3442,6.4471,0.0,0.0,6.6506,6.687,6.7219,6.7277,6.6928,6.7047,6.6837,6.6164,6.5991,6.5765,6.5473,6.5301,6.5285,6.5457,6.5473,6.5552,6.5711,6.523,6.4814,6.4418,6.3374,6.2762,6.2564,0.0,6.1739,6.1448,6.1798,6.1678,6.1193,6.1193,6.1019,6.0671,6.0032,5.8929,5.781,5.8165,5.8073,5.785,5.8098,5.8195,5.8195,5.8195,5.8321,5.8431,5.8431,5.8746,5.9099,5.9099,5.9099,5.9099,5.9099,5.9099,5.9099,5.9099,5.9099,5.9099,5.9099,5.8868,5.8707,5.8707,5.8541,5.8431,5.8431,5.8431,5.8376,5.8209,5.7835,5.7202,5.6257,5.5896,5.555,5.5039,5.4387,5.4155,5.4474,5.4155,5.4561,5.5896,5.5287,5.5533,5.6868,5.6564,5.6694,5.7303,5.7303,5.7303,5.7303,5.7303,5.7303,4.5906,4.7491,4.8745,4.889,5.0788,5.2659,5.2788,5.2194,5.1775,5.2385,5.2891,5.363,5.4909,5.6709,5.8639,6.0642,6.1338,6.1992,6.2964,6.3761,6.4603,6.5573,6.5706,6.588,6.6406,6.7044,6.7202,6.6709,6.6812,6.6593,6.5922,6.5444,6.5141,6.5012,6.5012,6.5012,6.5012,6.5012,6.5139,6.538,6.511,6.4735,6.4225,6.3457,6.2957,6.2691,6.2399,6.199,6.1552,6.2049,6.1855,6.1193,6.1193,6.1019,6.0671,6.0003,5.8813,5.7651,5.8533,5.8545,5.8192,5.8374,5.8356,5.8223,5.8223,5.8176,5.8128,5.8128,5.8618,5.9091,5.8925,5.895,5.8977,5.8909,5.9004,5.9072,5.9018,5.9004,5.9004,5.9004,5.8719,5.8472,5.8472,5.828,5.8128,5.8128,5.8128,5.8128,5.8128,5.8029,5.7656,5.6807,5.6721,5.6347,5.5488,5.5113,5.4938,5.4938,5.4329,5.4619,5.6099,5.5519,5.5838,5.7274,5.6868,5.6839,5.7303,5.7303,5.7303,5.7303,5.7303,5.7303,4.6992,4.8159,4.8844,4.9478,4.9809,5.0581,5.292,5.2472,5.2268,5.4648,5.5171,5.5591,5.6868,5.8668,6.0061,6.0235,6.1789,6.2993,6.3096,0.0,6.4954,6.5054,6.507,6.5099,6.5128,6.5677,6.6009,6.598,6.6535,6.6593,6.5922,6.5864,6.5589,6.5012,6.5012,6.5012,6.5012,6.5012,6.5012,6.5044,6.5012,6.4983,6.4896,6.3676,6.3096,6.301,6.1804,6.1252,6.1223,6.1296,6.1252,6.1193,6.1193,6.0467,5.9364,5.8668,5.8348,5.8319,5.9001,5.9219,5.9205,5.9219,5.8783,5.8289,5.8289,5.8066,5.7836,5.7836,5.8486,5.9047,5.8427,5.85,5.8637,5.8319,5.8705,5.9018,5.8789,5.8748,5.8748,5.8748,5.8252,5.7864,5.7864,5.7836,5.7836,5.7836,5.7836,5.7836,5.7836,5.7571,5.7127,5.6489,5.6431,5.6156,5.5474,5.5925,5.6244,5.6244,5.5635,5.5329,5.5461,5.652,5.7158,5.7303,5.7274,5.7274,5.7303,5.7303,5.7303,5.7303,5.7303,5.7303,4.6226,4.8258,4.9988,5.0274,5.1191,5.2426,5.3807,5.4648,5.5635,5.7448,5.7826,5.7971,5.8464,5.9132,5.9887,6.07,6.1745,6.2761,6.3558,6.4444,6.5012,6.5012,6.5012,6.5012,6.5012,6.556,6.5893,6.5893,6.6141,6.617,6.5922,6.5531,6.5228,6.5012,6.5012,6.5012,6.5012,6.5012,6.5012,6.5012,6.5012,6.4793,6.4371,6.3877,6.321,6.2499,6.2803,6.2281,6.1251,6.2035,6.1919,6.1164,6.0729,6.0061,5.9306,5.9451,5.9248,5.9016,5.9626,5.9626,5.9306,5.9306,5.8842,5.829,5.829,5.8202,5.8112,5.8112,5.8664,5.9201,5.8908,5.8913,5.8983,5.8858,5.8686,5.8527,5.8417,5.839,5.839,5.839,5.8072,5.7795,5.7795,5.7641,5.7486,5.7486,5.7486,5.7486,5.7486,5.7374,5.7216,5.697,5.6955,5.6723,5.607,5.6244,5.6215,5.5809,5.5548,5.5765,5.6549,5.668,5.6926,5.7303,5.7303,5.7303,5.7303,5.7303,5.7303,5.7303,5.7303,5.7303,4.6255,4.8258,5.0233,5.0842,5.2107,5.3588,5.5055,5.6215,5.7565,5.951,5.9568,5.9248,5.9016,5.9161,5.9597,6.0467,6.1425,6.247,6.3558,6.4284,6.4764,6.4983,6.5012,6.5012,6.5012,6.556,6.5893,6.5893,6.6286,6.6344,6.5922,6.5722,6.5418,6.5012,6.5012,6.5012,6.5012,6.5012,6.5012,6.5012,6.5012,6.4764,6.4313,6.4094,6.3513,6.2732,6.3413,6.2978,6.1832,6.2499,6.2151,6.1106,6.0264,5.9771,5.9626,5.9829,5.9771,5.9684,6.0293,6.0235,5.9916,5.9916,5.9451,5.89,5.89,5.8784,5.861,5.861,5.9074,5.9568,5.9521,5.9442,5.9279,5.8989,5.8866,5.8668,5.8173,5.8219,5.8308,5.8116,5.785,5.7655,5.7655,5.7444,5.7303,5.7303,5.7303,5.7303,5.7303,5.7303,5.7303,5.7303,5.7303,5.7129,5.6723,5.668,5.6477,5.6026,5.6186,5.6549,5.7013,5.6796,5.6883,5.7303,5.7303,5.7303,5.7303,5.7303,5.7303,5.7303,5.7303,5.7303,4.7445,4.8246,4.918,5.1124,5.2149,5.3469,5.6607,5.6868,5.7332,6.0526,6.0206,5.9103,5.8435,5.8871,5.9306,5.9306,6.0874,6.2341,6.2993,6.3616,6.4239,6.4909,6.5012,6.5012,6.5012,6.556,6.5893,6.5893,6.7144,6.7289,6.598,6.6535,6.629,6.5041,6.5012,6.5012,6.5012,6.5012,6.5012,6.5012,6.5012,6.5012,6.4983,6.4313,6.4007,6.3978,6.337,6.3109,6.3067,6.2383,6.1745,6.1077,5.98,5.9684,6.0119,5.951,5.9684,6.0293,6.0961,6.1193,6.1193,6.1193,6.0758,6.0206,6.0206,5.9771,5.9306,5.9306,5.9742,6.0206,6.0206,5.9976,5.9493,5.8536,5.9243,5.9673,5.8143,5.8293,5.8513,5.7927,5.7543,5.7303,5.7303,5.7303,5.7303,5.7303,5.7303,5.7303,5.7303,5.7303,5.7303,5.7303,5.7303,5.7303,5.7303,5.7303,5.7303,5.7303,5.7942,5.7739,5.6461,5.697,5.7303,5.7303,5.7303,5.7303,5.7303,5.7303,5.7303,5.7303,5.7303,5.7303,4.7132,4.8861,5.0991,5.2033,5.4472,5.6998,5.8377,5.8581,5.8958,6.0816,6.0526,5.9858,5.9684,5.9451,5.9451,5.9858,6.0787,6.1687,6.2296,6.3326,6.4065,6.4268,6.4706,6.5012,6.5012,6.556,6.5893,6.5893,6.6286,6.6315,6.5922,6.5693,6.5389,6.5012,6.5012,6.5012,6.5012,6.5012,6.5012,6.5012,6.5012,6.4764,6.4313,6.459,6.4212,6.3399,6.4125,6.3938,6.308,6.2892,6.2412,6.1716,6.0438,6.0032,6.0119,5.951,5.9684,6.0293,6.0961,6.1193,6.1193,6.1193,6.0758,6.0206,6.0206,6.009,5.9916,5.9916,6.0409,6.0903,6.0903,6.0832,6.0557,5.9814,5.9583,5.9407,5.8942,5.8623,5.8361,5.82,5.7679,5.7303,5.7303,5.7303,5.7303,5.7303,5.7303,5.7303,5.7303,5.7303,5.7303,5.7303,5.7303,5.7303,5.7303,5.7303,5.7507,5.7971,5.8203,5.7913,5.7071,5.8116,5.8261,5.7332,5.7768,5.7768,5.7303,5.7303,5.7303,5.7303,5.7303,5.7303,4.8856,5.0701,5.2762,5.4443,5.6607,5.861,5.98,6.0061,6.0264,6.1048,6.0671,6.0206,6.0206,5.9916,5.9771,6.0148,6.0758,6.1483,6.2354,6.3167,6.3819,6.4342,6.4764,6.5012,6.5012,6.5344,6.5531,6.5531,6.5747,6.5805,6.556,6.5431,6.5257,6.5012,6.5012,6.5012,6.5012,6.5012,6.5012,6.5012,6.5012,6.4793,6.44,6.4822,6.4576,6.3909,6.4664,6.4415,6.3442,6.3442,6.2935,6.2006,6.099,6.0438,6.0119,5.951,5.9539,5.9916,6.0584,6.0787,6.0845,6.1106,6.0932,6.0584,6.0584,6.0584,6.0584,6.0584,6.0874,6.1193,6.1193,6.1193,6.1019,6.0351,6.0119,5.9916,5.9422,5.9161,5.8987,5.8755,5.8377,5.8073,5.8073,5.7884,5.771,5.771,5.7477,5.7303,5.7303,5.7303,5.7303,5.7303,5.7303,5.7303,5.7303,5.7303,5.7594,5.8261,5.829,5.8232,5.8116,5.861,5.8406,5.7332,5.771,5.771,5.7303,5.7303,5.7303,5.7303,5.7303,5.7303,5.161,5.2962,5.4271,5.7507,5.8435,5.9016,6.0787,6.1193,6.1193,6.1193,6.07,6.0293,6.0293,6.0293,6.0293,6.0293,6.0787,6.1629,6.2848,6.3051,6.356,6.4764,6.4954,6.5012,6.5012,6.5041,6.5099,6.5099,6.5589,6.5677,6.5112,6.556,6.556,6.5012,6.5012,6.5012,6.5012,6.5012,6.5012,6.5012,6.5012,6.5012,6.5012,6.5012,6.5012,6.5012,6.5012,6.4648,6.4094,6.4094,6.3413,6.2312,6.1571,6.0903,6.0293,5.9568,5.9306,5.9393,5.9916,6.0148,6.0293,6.0903,6.1164,6.1193,6.1193,6.1193,6.1193,6.1193,6.1193,6.1193,6.1193,6.1193,6.1048,6.0438,6.0758,6.0874,5.9713,5.98,5.9945,5.9422,5.9248,5.919,5.9132,5.8668,5.829,5.8232,5.7739,5.739,5.739,5.739,5.739,5.739,5.7332,5.7303,5.7303,5.7303,5.7594,5.8261,5.829,5.861,5.9277,5.8726,5.8087,5.739,5.7448,5.7419,5.7303,5.7361,5.7361,5.7303,5.7303,5.7303,5.0768,5.2294,5.4271,5.7507,5.9451,6.07,6.1106,6.1193,6.1193,6.1193,6.1077,6.099,6.099,6.099,6.099,6.099,6.1106,6.1454,6.2209,6.2776,6.337,6.4138,6.4677,6.5012,6.5012,6.5415,6.5706,6.5706,6.5834,6.5834,6.5706,6.5373,6.5112,6.5012,6.5012,6.5012,6.5012,6.5012,6.5012,0.0,6.5012,6.5012,6.5012,6.5012,6.5012,6.5012,6.5012,6.4925,6.4793,6.4793,6.4619,6.4199,6.2558,6.1803,6.1483,5.9887,5.9306,5.9335,5.9451,5.98,6.0206,6.038,6.0758,6.1193,6.1193,6.1193,6.1193,6.1193,6.1193,6.1193,6.1193,6.1193,6.1164,6.1019,6.1106,6.1106,6.0845,6.0119,5.9451,5.9335,5.8871,5.8348,5.7826,5.8058,5.8116,5.7594,5.7855,5.8073,5.8073,5.8073,5.8073,5.8073,5.7623,5.7303,5.7303,5.7303,5.7594,5.8261,5.829,5.861,5.9277,5.9161,5.8784,5.8116,5.861,5.8348,5.7303,5.7826,5.7826,5.7303,5.7303,5.7303,5.1452,5.321,5.5258,5.8813,6.0438,6.1106,6.0787,6.0961,6.1106,6.0787,6.099,6.1193,6.1193,6.1425,6.1629,6.1629,6.189,6.2325,6.2919,6.3297,6.3761,6.44,6.4793,6.5012,6.5012,6.5286,6.5473,6.5473,6.5473,6.5473,6.5473,6.517,6.5012,6.5012,6.5012,6.5012,6.5012,6.5012,6.5012,6.5012,6.5012,6.5012,6.5012,6.5012,6.5012,6.5012,6.5012,6.5012,6.5012,6.5012,6.4793,6.4429,6.3413,6.247,6.1513,6.0206,5.9335,5.8813,5.8813,5.9016,5.9335,5.9655,6.0003,6.0293,6.0293,6.0496,6.0671,6.038,6.0496,6.0642,6.038,6.0293,6.0293,6.0293,6.0758,6.1193,6.1193,6.0671,6.0206,6.0206,5.9916,5.9568,5.9219,5.919,5.8987,5.8348,5.8552,5.8784,5.8784,5.8784,5.8784,5.8784,5.8174,5.7913,5.8232,5.7681,5.771,5.8726,5.8493,5.8726,5.9684,5.9451,5.9132,5.8784,5.9132,5.8813,5.7768,5.8145,5.7971,5.7303,5.7303,5.7303,5.1933,5.4242,5.6564,6.0148,6.1106,6.1019,6.0351,6.0787,6.1164,6.0496,6.0816,6.1222,6.1338,6.1745,6.2137,6.2238,6.2747,6.3312,6.392,6.4007,6.4239,6.4909,6.5012,6.5012,6.5012,6.5012,6.5012,6.5012,6.5012,6.5012,6.5012,6.5012,6.5012,6.5012,6.5012,6.5012,6.5012,6.5012,6.5012,6.5012,6.5012,6.5012,6.5012,6.5012,6.5012,6.5012,6.5012,6.5012,6.5012,6.5012,6.4677,6.4152,6.4065,6.3049,6.16,6.0816,5.9713,5.861,5.8523,5.8406,5.8406,5.8958,5.9219,5.9306,5.9306,5.9655,5.9945,5.9451,5.9655,5.9916,5.9422,5.9306,5.9306,5.9306,6.0119,6.0874,6.0874,6.0787,6.07,6.07,6.07,6.0758,6.099,6.0467,5.9887,5.9393,5.9393,5.9451,5.9451,5.9451,5.9451,5.9451,5.8871,5.8697,5.9248,5.829,5.8116,5.9248,5.8784,5.8987,6.0148,5.9713,5.9451,5.9451,5.9364,5.89,5.8116,5.8232,5.7971,5.7303,5.7303,5.7303,4.978,5.3543,5.7594,5.9771,6.0758,6.1019,6.0351,6.1106,6.1803,6.1193,6.1135,6.1367,6.189,6.205,6.2312,6.2863,6.3022,6.3312,6.392,6.4007,6.4239,6.4909,6.5012,6.5012,6.5012,6.5012,6.5012,6.5012,6.5012,6.5012,6.5012,6.5012,6.5012,6.5012,6.5012,6.5012,6.5012,6.5012,6.5012,6.5012,6.5012,6.5012,6.5012,6.5012,6.5012,6.5012,6.5012,6.5012,6.5012,6.5012,6.4954,6.4793,6.4225,6.3861,6.3484,6.2296,6.1048,5.9858,5.9364,5.8784,5.8319,5.8406,5.8842,5.9306,5.9306,5.9364,5.9393,5.9335,5.9364,5.9393,5.9335,5.9306,5.9306,5.9306,5.9422,5.9568,5.9568,5.9103,5.8697,5.8697,5.8697,5.9045,6.0148,5.9829,5.9393,5.9306,5.9742,6.009,6.009,6.009,6.009,6.009,5.9539,5.919,5.9306,5.9132,5.9103,5.9306,5.9219,5.948,6.0177,6.0119,6.009,6.009,5.9568,5.8697,5.7448,5.8029,5.7971,5.7303,5.7303,5.7303,5.0975,5.3994,5.6868,5.9539,6.0409,6.0467,5.9829,6.038,6.0961,6.07,6.0932,6.1483,6.2486,6.266,6.2877,6.35,6.3922,6.4241,6.4516,6.4545,6.4677,6.4954,6.5012,6.5012,6.5012,6.5012,6.5012,6.5012,6.5012,6.5012,6.5012,6.5012,6.5012,6.5012,6.5012,6.5012,6.5012,6.5012,6.5012,6.5012,6.5012,6.5012,6.5012,6.5012,6.5012,6.5012,6.5012,6.5012,6.5012,6.5012,6.5012,6.4983,6.4677,6.4342,6.3861,6.2587,6.128,6.0061,5.9074,5.829,5.7739,5.7739,5.7942,5.8174,5.8174,5.8435,5.8668,5.829,5.8464,5.8668,5.829,5.8174,5.8174,5.8174,5.8174,5.8174,5.8174,5.8552,5.8871,5.8871,5.8871,5.9045,5.9597,5.948,5.9422,5.9742,6.0032,6.0322,6.07,6.0758,6.0758,6.0758,6.0177,5.9974,6.0322,5.9713,5.9451,5.9771,5.948,5.9422,5.9684,5.9684,5.951,5.9132,5.9568,5.9161,5.7855,5.8174,5.7971,5.7303,5.7303,5.7303,5.1253,5.3342,5.52,5.8435,5.9597,5.9858,5.9393,5.9887,6.0409,6.0235,6.0845,6.1832,6.3109,6.3341,6.3529,6.4152,6.4677,6.5012,6.5012,6.5012,6.5012,6.5012,6.5012,6.5012,6.5012,6.5141,6.5228,6.5228,6.5228,6.5228,6.5228,6.5228,6.5228,6.5228,6.5389,6.5418,6.5228,6.5099,6.5012,6.5012,6.5012,6.5012,6.5012,6.5012,6.5012,6.5012,6.5012,6.5012,6.5012,6.5012,6.5012,6.4983,6.4793,6.4429,6.3861,6.2761,6.1425,6.0061,5.9103,5.8145,5.7303,5.7303,5.7303,5.7303,5.7303,5.7652,5.7942,5.7448,5.7652,5.7942,5.7448,5.7303,5.7303,5.7303,5.7303,5.7303,5.7303,5.8087,5.8842,5.9016,5.9045,5.9103,5.9277,5.9306,5.9451,5.9916,5.9974,6.0148,6.0642,6.0845,6.0932,6.0932,6.0642,6.0584,6.0932,6.0061,5.9655,5.9945,5.9684,5.9539,5.9539,5.9684,5.9393,5.8581,5.948,5.9335,5.8058,5.8058,5.7797,5.7303,5.7303,5.7303,4.8397,5.0341,5.2588,5.578,5.7986,5.9335,5.9306,6.0264,6.0961,6.0322,6.1208,6.2441,6.3716,6.3949,6.4152,6.4822,6.4983,6.5012,6.5012,6.5012,6.5012,6.5012,6.5012,6.5012,6.5012,6.5502,6.5834,6.5834,6.5834,6.5834,6.5834,6.5834,6.5834,6.5834,6.6476,6.6506,6.5864,6.5286,6.5012,6.5012,6.5012,6.5012,6.5012,6.5012,6.5012,6.5012,6.5012,6.5012,6.5012,6.5012,6.5012,6.4954,6.4313,6.4036,6.392,6.3283,6.1832,6.0177,6.0119,5.8871,5.7303,5.7303,5.7303,5.7303,5.7303,5.7332,5.7332,5.7303,5.7332,5.7332,5.7303,5.7303,5.7303,5.7303,5.7303,5.7303,5.7303,5.7361,5.7594,5.8232,5.8348,5.8552,5.919,5.9306,5.9306,5.9335,5.9364,5.9364,5.9393,5.9887,6.0264,6.0264,6.0787,6.0903,6.0293,6.0177,5.9916,5.9393,5.9858,6.0148,6.0148,6.0758,6.0526,5.9277,5.9306,5.8697,5.7361,5.7361,5.7332,5.7303,5.7303,5.7303,4.8194,4.9511,5.1149,5.4387,5.6593,5.8145,5.8552,5.9335,6.0148,6.0729,6.1193,6.1919,6.3196,6.3745,6.421,6.4896,6.5012,6.5012,6.5012,6.5012,6.5012,6.5012,6.5012,6.5012,6.5012,6.5199,6.5315,6.5315,6.5315,6.5315,6.5315,6.5706,6.5893,6.5893,6.6535,6.6564,6.5922,6.5315,6.5012,6.5012,6.5012,6.5012,6.5012,6.5012,6.5012,6.5012,6.5012,6.5012,6.5012,6.5012,6.5012,6.4909,6.4239,6.4007,6.3861,6.2848,6.1483,6.0148,5.9771,5.861,5.7303,5.7303,5.7303,5.7303,5.7303,5.7303,5.7303,5.7303,5.7303,5.7303,5.7303,5.7303,5.7303,5.7303,5.7303,5.7303,5.7303,5.7303,5.7361,5.7623,5.7652,5.7739,5.7971,5.8029,5.8174,5.8581,5.8668,5.8813,5.9248,5.948,5.9626,5.9626,5.9829,5.9887,5.9626,5.9626,5.9539,5.9306,5.951,5.9626,5.9626,5.9858,5.9771,5.9306,5.8871,5.8203,5.7303,5.7303,5.7303,5.7303,5.7303,5.7303,4.7364,4.8391,4.9884,5.3313,5.4952,5.6287,5.8464,5.8784,5.9045,6.0555,6.1048,6.1513,6.2558,6.3283,6.3906,6.4561,6.4851,6.5012,6.5012,6.5012,6.5012,6.5012,6.5012,6.5012,6.5012,6.517,6.5315,6.5315,6.5315,0.0,6.5315,6.5896,6.6344,6.6547,6.6999,6.6796,6.5922,6.5502,6.5199,6.5012,6.5012,6.5012,6.5012,6.5012,6.5012,6.5012,6.5012,6.5012,6.4983,6.4764,6.4793,6.4909,6.4051,6.3703,6.3587,6.2499,6.128,6.0119,5.951,5.8581,5.7594,5.739,5.7303,5.7303,5.7303,5.7303,5.7303,5.7303,5.7303,5.7303,5.7303,5.7303,5.7303,5.7303,5.7303,5.7303,5.7303,5.7303,5.7303,5.7303,5.7303,5.7303,5.7303,5.7303,5.7448,5.7913,5.7971,5.8116,5.8581,5.8842,5.9045,5.9277,5.9306,5.9306,5.9306,5.9103,5.8871,5.8639,5.8842,5.9074,5.9306,5.948,5.9597,5.9597,5.8958,5.8319,5.7652,5.7419,5.7303,5.7303,5.7536,5.7652,0.0,0.0,0.0,5.2414,5.2962,5.3875,5.8885,5.8581,5.7797,5.9771,6.07,6.1338,6.1963,6.2631,6.3283,6.3861,6.4516,6.4983,6.5012,6.5012,6.5012,6.5012,6.5012,6.5012,6.5012,6.5531,6.5864,6.5864,6.5864,6.5864,6.5864,6.6535,6.7219,6.7916,6.7887,6.7231,6.5922,6.5893,6.5589,6.5012,6.5012,6.5012,6.5012,6.5012,6.5012,6.5012,6.5012,6.4983,6.4909,6.4284,6.4371,6.4838,6.3589,6.3096,6.3008,6.2325,6.128,6.0061,5.951,5.8842,5.8174,5.7507,5.7303,5.7303,5.7303,5.7303,5.7303,5.7303,5.7303,5.7303,5.7303,5.7303,5.7303,5.7303,5.7303,5.7303,5.7303,5.7303,5.7303,5.7303,5.7303,5.7303,5.7303,5.7303,5.7303,5.7303,5.7303,5.7303,5.7303,5.7884,5.8523,5.9161,5.9248,5.9248,5.9277,5.8668,5.8029,5.739,5.8,5.8639,5.9306,5.9916,6.0235,6.0235,5.9626,5.9016,5.8348,5.7652,5.7303,5.7332,5.7971,5.8261,4.5848,0.0,0.0,0.0,0.0,0.0,5.5432,5.5983,5.6593,5.9045,5.9684,6.0148,6.1251,6.2354,6.2993,6.2674,6.3558,6.4458,6.4909,6.5012,6.5012,6.5012,6.5012,6.5012,6.5012,6.5141,6.5257,0.0,6.5257,6.5257,6.5257,6.629,6.7405,6.8521,6.7654,6.7015,6.6622,6.5693,6.517,6.5012,6.5012,6.5012,6.5012,6.5012,6.5012,6.5012,6.5012,6.4735,6.4239,6.4094,6.4123,6.4196,6.3399,6.279,6.2354,6.2166,6.07,5.8871,5.919,5.8552,5.7565,5.7361,5.7303,5.7303,5.7303,5.7303,5.7303,5.7303,5.7303,5.7303,5.7303,5.7303,5.7303,5.7303,5.7303,5.7303,5.7303,5.7303,5.7303,5.7303,5.7303,5.7303,5.7303,5.7303,5.7303,5.7303,5.7303,5.7303,5.7303,5.7477,5.7652,5.7826,5.7855,5.8058,5.8552,5.8406,5.8435,5.8726,5.9335,5.9742,5.9945,6.0584,6.0932,6.0932,6.0293,5.9655,5.9016,5.7855,5.7303,5.7303,5.7507,5.7594,4.6214,4.6522,4.7282,4.9383,0.0,0.0,5.4851,5.5316,5.5838,5.8726,5.951,5.9916,6.0642,6.16,6.2267,6.2122,6.2964,6.3848,6.4487,6.4822,6.5012,6.5012,6.5012,6.5012,6.5012,6.5012,6.5012,6.5012,6.5012,6.5244,6.5767,6.6493,6.7364,6.8392,6.7957,6.7289,6.6476,6.6012,6.5535,6.5012,6.5012,6.5012,6.4983,6.4706,6.4574,6.4574,6.4574,6.4051,6.3239,6.35,6.3774,6.3949,6.3341,6.2848,6.2499,6.2499,6.1222,5.948,5.9364,5.8784,5.8058,5.7477,5.7303,5.7303,5.7303,5.7303,5.7303,5.7303,5.7303,5.7303,5.7303,5.7303,5.7303,5.7303,5.7303,5.7303,5.7303,5.7303,5.7303,5.7303,5.7303,5.7303,5.7303,5.7303,5.7303,5.7303,5.7303,5.7303,5.7303,5.7303,5.7419,5.7681,5.7477,5.7565,5.8232,5.829,5.8464,5.8871,5.948,5.9945,6.0177,6.0584,6.0903,6.1193,6.0526,5.9621,5.8428,5.7945,5.771,5.771,5.7448,5.7448,4.6772,4.7004,4.7787,5.0573,5.0138,0.0,5.5416,5.5329,5.5055,5.8145,5.919,5.9626,5.9829,6.0438,6.1048,6.1586,6.237,6.3167,6.3891,6.459,6.5012,6.5012,6.5012,6.5012,6.5012,6.5012,6.5012,6.5012,6.5012,6.5564,6.6841,6.6899,6.7248,6.7974,6.8463,6.7824,6.6025,6.6535,6.6202,6.5012,6.5012,6.4954,6.4851,6.4342,6.4065,6.4007,6.4007,6.3326,6.2238,6.2761,6.3312,6.3745,6.3196,6.295,6.2906,6.2964,6.2122,6.0845,5.9771,5.9364,5.9103,5.7913,5.7477,5.7419,5.7419,5.7361,5.7303,5.7303,5.7303,5.7303,5.7303,5.7303,5.7303,5.7303,5.7303,5.7303,5.7303,5.7303,5.7303,5.7303,5.7303,5.7303,5.7303,5.7303,5.7303,5.7303,5.7303,5.7303,5.7303,5.7303,5.7565,5.8232,5.7768,5.771,5.8464,5.8523,5.8552,5.861,5.9016,5.9521,6.0057,6.0086,6.0375,6.0953,6.0317,5.9088,5.7292,5.7812,5.8018,5.7845,5.7324,5.7366,4.7695,4.8345,4.9158,4.925,0.0,0.0,5.183,5.2078,5.2791,5.4967,5.5519,5.607,5.7594,5.8406,5.89,5.9016,6.0467,6.2151,6.3774,6.459,6.5012,6.5012,6.5012,6.5012,6.5012,6.5012,6.5012,6.5012,6.5012,6.5564,6.6841,6.6899,6.7434,6.8579,6.8276,6.7609,6.6709,6.6286,6.5735,6.5012,6.5012,6.4706,6.421,6.4619,6.4516,6.4007,6.4007,6.3587,6.2877,6.2441,6.2354,6.247,6.2325,6.2006,6.1629,6.2122,6.1164,5.9713,5.9945,5.9713,5.9248,5.8972,5.8552,5.8116,5.8116,5.7739,5.7303,5.7303,5.7303,5.7303,5.7303,5.7303,5.7303,5.7303,5.7303,5.7303,5.7303,5.7303,5.7303,5.7303,5.7303,5.7303,5.7303,5.7303,5.7303,5.7303,5.7303,5.7303,5.7303,5.7303,5.7565,5.8232,5.8174,5.8581,5.9742,5.9829,6.0061,6.0584,5.9678,5.921,5.9323,5.9323,5.938,5.9493,5.8856,5.8323,5.7923,5.7155,5.6175,5.5096,5.556,5.5591,4.8839,4.9199,4.9768,5.0063,0.0,0.0,0.0,5.2339,5.311,5.5055,5.5171,5.5473,5.7224,5.7678,5.8072,5.8884,6.0237,6.1542,6.2484,6.3428,6.4054,6.4054,6.4054,6.4054,6.4054,6.4328,6.4648,6.4983,6.5012,6.5402,6.636,6.6725,6.7364,6.8334,6.8061,6.7567,6.6899,6.6228,6.5589,6.5012,6.5012,6.4822,6.4487,6.4487,6.4313,6.4007,6.4007,6.3674,6.308,6.2747,6.2383,6.2093,6.2093,6.1919,6.1702,6.1992,6.1309,6.0235,6.0206,6.0003,5.9684,5.9393,5.8842,5.829,5.829,5.7826,5.7049,5.5761,5.6308,5.7162,5.6523,5.6822,5.7303,5.7303,5.7303,5.7303,5.7303,5.7303,5.7303,5.7303,5.7303,5.7303,5.7303,5.7303,5.7303,5.7303,5.7303,5.7303,5.7303,5.7594,5.7942,5.8261,5.861,5.9074,5.9684,6.0032,6.0055,5.9681,5.9308,5.878,5.8088,5.8718,5.9105,5.9105,5.8768,5.7916,5.6556,5.5692,5.4902,5.4302,5.4688,5.4384,0.0,0.0,0.0,0.0,0.0,5.2472,0.0,0.0,0.0,0.0,5.5242,5.5281,5.6693,5.6847,5.7199,5.8473,5.9685,6.0438,0.0,6.1542,0.0,6.2848,6.3022,6.308,6.308,6.3326,6.379,6.4576,6.4518,6.4822,6.5677,6.636,6.6999,6.7683,6.7712,6.7393,6.6709,6.617,6.5589,6.5012,6.5012,6.4909,6.4793,6.3972,6.3599,6.3538,6.3185,6.2872,6.2663,6.2547,6.2269,6.1904,6.1616,6.1524,6.1524,6.1524,6.1191,6.0775,6.0494,6.038,6.0322,5.9829,5.9132,5.8421,5.8046,5.7484,5.6523,5.4427,5.5368,5.6751,5.5963,5.6537,5.7303,5.7303,5.7303,5.7262,5.7123,5.7294,5.7393,5.7152,5.7308,5.7448,5.7332,5.7303,5.7303,5.7303,5.7303,5.7361,5.7477,5.7971,5.8406,5.8639,5.9045,5.9291,5.9273,5.9604,5.9237,5.7967,5.8157,5.7802,5.665,5.7585,5.8324,5.8686,5.834,5.709,5.502,5.4138,5.3712,5.3731,5.3861,5.3262,0.0,0.0,0.0,0.0,5.3746,0.0,0.0,0.0,0.0,5.3004,0.0,5.3149,5.3859,0.0,0.0,0.0,0.0,0.0,5.7739,5.89,6.0351,6.2006,6.2747,6.308,6.308,6.2151,6.2006,6.3241,6.2776,6.3196,6.4996,6.5677,6.6315,6.6986,6.7015,6.668,6.6009,6.5922,6.5589,6.5012,6.5012,6.4706,6.4091,6.2801,6.2163,6.196,6.0165,6.0053,6.1111,6.05,6.0683,6.1175,5.9944,5.9451,5.9451,5.9451,5.9395,5.9508,6.0686,6.1077,6.1077,6.1019,6.0177,5.8871,5.7156,5.6152,5.5572,5.528,5.5397,5.5847,5.6822,5.7191,5.7303,5.7303,5.7303,5.7123,5.6482,5.7324,5.783,5.6566,5.7325,5.8,5.739,5.7303,5.7303,5.7303,5.7303,5.7507,5.8116,5.8261,5.8726,5.9858,5.9568,5.9241,5.912,5.8631,5.7976,5.7175,5.6097,5.5393,5.5227,5.485,5.5466,5.7188,5.5541,5.4784,5.502,5.3206,5.2093,5.166,5.2316,5.172,0.0,0.0,0.0,0.0,0.0,0.0,5.3052,0.0,5.3291,0.0,0.0,0.0,0.0,0.0,0.0,0.0,5.6093,0.0,0.0,0.0,5.8726,6.0293,0.0,0.0,6.1919,6.1164,6.1309,6.2964,6.2151,6.2412,6.4313,6.5009,6.5664,6.6286,6.6315,6.617,6.5893,6.556,6.5257,6.5012,6.5012,6.4406,6.3285,6.2703,6.1979,6.104,5.9884,5.9712,6.0254,6.0078,5.9753,5.9331,5.9167,5.9586,6.0318,6.0318,6.0318,6.0394,6.0997,6.1193,6.0957,5.9444,5.8575,5.7576,5.45,5.39,5.4129,5.3365,5.4221,5.5528,5.605,5.6751,5.712,5.638,5.6435,5.6369,5.5328,5.6456,5.7482,5.6888,5.7595,5.8203,5.7942,5.7884,5.7739,5.7361,5.7283,5.751,5.8219,5.823,5.8698,6.0074,5.9974,5.937,5.8223,5.751,5.6378,5.4528,5.3704,5.3814,5.4944,5.4759,5.4997,5.5828,5.5057,5.4343,5.3784,5.2329,5.1348,5.0787,5.0768,4.9852,5.2701,0.0,0.0,0.0,0.0,0.0,0.0,0.0,0.0,0.0,0.0,0.0,0.0,0.0,0.0,0.0,0.0,5.607,0.0,5.639,0.0,0.0,0.0,0.0,0.0,5.9771,6.0032,6.2151,6.1135,6.1294,6.3368,6.4254,6.4922,6.537,6.5544,6.5648,6.5648,6.483,6.4393,6.4393,6.4005,6.323,6.2192,6.163,6.0882,5.9939,5.9005,5.8727,5.8927,5.9073,5.8817,5.8347,5.8885,5.9722,6.0636,6.0636,6.0379,6.0091,6.047,6.0364,5.9782,5.8115,5.7212,5.6135,5.2793,5.2333,5.283,5.2231,5.3411,5.4944,5.5324,5.6078,5.6466,5.5164,5.5284,5.5499,5.4734,5.6099,5.7443,5.7443,5.7757,5.7974,5.7815,5.7743,5.7456,5.6693,5.6616,5.6889,5.7456,5.7734,5.8404,5.9813,5.9318,5.8265,5.6699,5.5569,5.399,5.1854,5.165,5.2269,5.3677,5.3736,5.3891,5.4202,5.4047,5.3553,5.2686,5.1749,5.0896,5.0151,4.9615,4.856,0.0,0.0,0.0,5.4793,0.0,0.0,0.0,0.0,5.501,0.0,0.0,0.0,0.0,0.0,0.0,0.0,0.0,0.0,0.0,0.0,0.0,0.0,0.0,0.0,0.0,5.7652,5.7565,0.0,5.9103,5.951,6.2035,6.3355,6.4036,6.4065,6.4706,6.5041,6.5041,6.3602,6.2873,6.284,6.1419,6.0705,6.0593,5.8635,5.8035,5.8357,5.64,5.5973,5.6693,5.6692,5.7635,5.9086,5.9089,5.9136,5.9167,5.9167,5.8309,5.7327,5.8686,5.8277,5.725,5.8023,5.6963,5.4998,5.306,5.2041,5.1845,5.3074,5.351,5.3829,5.5062,5.5441,5.512,5.3844,5.396,5.4526,5.5142,5.6753,5.8063,5.8063,5.7677,5.7161,5.6568,5.6354,5.5917,5.4853,5.5061,5.5438,5.5571,5.6609,5.7827,5.9176,5.7107,5.5325,5.4569,5.2272,5.0545,4.9751,5.0184,5.0469,5.0543,5.0543,5.1087,5.2169,5.1682,5.1649,5.2126,5.1565,5.0711,4.9615,4.9095,4.8209,0.0,0.0,5.5751,5.5751,0.0,0.0,0.0,0.0,0.0,0.0,0.0,0.0,0.0,0.0,0.0,0.0,0.0,0.0,0.0,0.0,0.0,0.0,0.0,5.8145,0.0,0.0,5.7884,6.0032,5.9016,0.0,6.1948,6.2935,6.3587,6.4007,6.4648,6.5012,6.5012,6.449,6.3765,6.279,6.2292,6.1019,5.9113,5.8438,5.7712,5.6888,5.5851,5.5367,5.5314,5.5847,5.5657,5.5194,5.6989,5.7178,5.6612,5.8419,5.8214,5.707,5.7535,5.7391,5.6779,5.5439,5.4538,5.354,5.1271,5.0413,5.0515,5.1813,5.2815,5.3616,5.4024,5.5028,5.5408,5.3281,5.3446,5.3923,5.3311,5.5403,5.7123,5.6208,5.7009,5.7357,5.5933,5.4561,5.3739,5.3832,5.4351,5.4586,5.4291,5.4922,5.544,5.5572,5.4464,5.3102,5.1614,4.9882,4.8896,4.906,4.9565,5.0218,5.0971,5.0268,5.0218,5.0954,5.0795,5.0779,5.0954,5.0444,4.9807,4.9053,4.8109,4.7465,5.4874,5.4854,0.0,5.4927,5.5181,0.0,5.4041,0.0,0.0,0.0,0.0,0.0,0.0,0.0,0.0,0.0,0.0,0.0,0.0,5.4068,0.0,0.0,5.6345,5.7332,5.8203,5.6907,5.7153,5.9974,5.8407,5.8608,0.0,6.2616,6.3036,6.2892,6.374,6.4232,6.4232,6.3181,6.2425,6.2008,6.0951,5.948,5.7608,5.7608,5.701,5.5917,5.5742,5.5157,5.4348,5.5268,5.4868,5.3844,5.5809,5.5931,5.5277,5.7503,5.7471,5.6303,5.6303,5.5976,5.5297,5.3797,5.2978,5.2238,5.0419,4.9741,4.9905,5.1402,5.2297,5.2838,5.3052,5.3973,5.436,5.246,5.267,5.3382,5.3515,5.482,5.595,5.5891,5.5857,5.5429,5.4239,5.2224,5.1127,5.207,5.2681,5.2872,5.2358,5.2962,5.3411,5.3322,5.2202,5.0809,4.9121,4.8146,4.7767,4.8159,4.8686,4.9314,5.0058,4.9606,4.9565,5.0117,5.0302,5.0302,5.0117,4.9967,4.9515,4.8768,4.7832,4.7274]},{"header":{"parameterUnit":"m.s-1","parameterCategory":1,"la1":30.6,"la2":29.2853,"lo1":-89.7004,"lo2":-87.6739,"dy":0.0162,"dx":0.0183,"nx":112,"ny":82,"refTime":"2024-09-02T18:00:00:Z","depth":0,"parameterNumber":3,"parameterNumberName":"V-component_of_WINDS"},"data":[0.0,0.0,0.0,0.0,0.0,0.0,0.0,0.0,0.0,0.0,0.0,0.0,0.0,0.0,0.0,0.0,0.0,0.0,0.0,0.0,0.0,0.0,0.0,0.0,0.0,0.0,0.0,0.0,0.0,0.0,0.0,0.0,0.0,0.0,0.0,0.0,0.0,0.0,0.0,0.0,0.0,0.0,0.0,0.0,0.0,0.0,0.0,0.0,0.0,0.0,0.0,0.0,0.0,0.0,0.0,0.0,0.0,0.0,0.0,0.0,0.0,0.0,0.0,0.0,0.0,0.0,0.0,0.0,0.0,0.0,0.0,0.0,0.0,0.0,0.0,0.0,0.0,0.0,0.0,0.0,0.0,0.0,0.0,0.0,0.0,0.0,0.0,0.0,0.0,0.0,2.177,2.1567,2.2359,2.3392,2.4592,2.5246,2.4664,2.2506,0.0,0.0,0.0,0.0,0.0,0.0,0.0,0.0,0.0,0.0,0.0,0.0,0.0,0.0,0.0,0.0,0.0,0.0,0.0,0.0,0.0,0.0,0.0,0.0,0.0,0.0,0.0,0.0,0.0,0.0,0.0,0.0,0.0,0.0,0.0,0.0,0.0,0.0,0.0,0.0,0.0,0.0,0.0,0.0,0.0,0.0,0.0,0.0,0.0,0.0,0.0,0.0,0.0,0.0,0.0,0.0,0.0,0.0,0.0,0.0,0.0,0.0,0.0,0.0,0.0,0.0,0.0,0.0,0.0,0.0,0.0,0.0,0.0,0.0,0.0,0.0,0.0,0.0,0.0,0.0,0.0,0.0,0.0,0.0,0.0,0.0,0.0,0.0,0.0,0.0,0.0,0.0,0.0,0.0,0.0,0.0,0.0,0.0,0.0,0.0,0.0,0.0,0.0,0.0,2.3185,2.5891,2.6439,2.6407,2.5957,2.6242,2.5472,2.3263,0.0,0.0,0.0,0.0,0.0,0.0,0.0,0.0,0.0,0.0,0.0,0.0,0.0,0.0,0.0,0.0,0.0,0.0,0.0,0.0,0.0,0.0,0.0,0.0,0.0,0.0,0.0,0.0,0.0,0.0,0.0,0.0,0.0,0.0,0.0,0.0,0.0,0.0,0.0,0.0,0.0,0.0,0.0,0.0,0.0,0.0,0.0,0.0,0.0,0.0,0.0,0.0,0.0,0.0,0.0,0.0,0.0,0.0,0.0,0.0,0.0,0.0,0.0,0.0,0.0,0.0,0.0,0.0,0.0,0.0,0.0,0.0,0.0,0.0,0.0,0.0,0.0,0.0,0.0,0.0,0.0,0.0,0.0,0.0,0.0,0.0,0.0,0.0,0.0,0.0,0.0,0.0,0.0,0.0,0.0,0.0,0.0,0.0,0.0,0.0,0.0,0.0,0.0,2.392,2.4595,2.7489,2.7281,2.6854,2.6647,2.6756,2.5837,2.351,2.3763,0.0,0.0,0.0,0.0,0.0,0.0,0.0,0.0,0.0,0.0,0.0,0.0,0.0,0.0,0.0,0.0,0.0,0.0,0.0,0.0,0.0,0.0,0.0,0.0,0.0,0.0,0.0,0.0,0.0,0.0,0.0,0.0,0.0,0.0,0.0,0.0,0.0,0.0,0.0,0.0,0.0,0.0,0.0,0.0,0.0,0.0,0.0,0.0,0.0,0.0,0.0,0.0,0.0,0.0,0.0,0.0,0.0,0.0,0.0,0.0,0.0,0.0,0.0,0.0,0.0,0.0,0.0,0.0,0.0,0.0,0.0,0.0,0.0,0.0,0.0,0.0,0.0,0.0,0.0,0.0,0.0,0.0,0.0,0.0,0.0,0.0,0.0,0.0,0.0,0.0,0.0,0.0,0.0,0.0,0.0,0.0,0.0,0.0,0.0,0.0,0.0,0.0,2.5428,2.5897,2.8071,2.7417,2.6876,2.6987,2.6823,2.5757,2.3544,2.3225,0.0,0.0,0.0,0.0,0.0,0.0,0.0,0.0,0.0,0.0,0.0,0.0,0.0,0.0,0.0,0.0,0.0,0.0,0.0,0.0,0.0,0.0,0.0,0.0,0.0,0.0,0.0,0.0,0.0,0.0,0.0,0.0,0.0,0.0,0.0,0.0,0.0,0.0,0.0,0.0,0.0,0.0,0.0,0.0,0.0,0.0,0.0,0.0,0.0,0.0,0.0,0.0,0.0,0.0,0.0,0.0,0.0,0.0,0.0,0.0,0.0,0.0,0.0,0.0,0.0,0.0,0.0,0.0,0.0,0.0,0.0,0.0,0.0,0.0,0.0,0.0,0.0,0.0,0.0,0.0,0.0,0.0,0.0,0.0,0.0,0.0,0.0,0.0,0.0,0.0,0.0,0.0,0.0,0.0,0.0,0.0,0.0,0.0,0.0,0.0,0.0,0.0,2.5636,2.6943,2.8176,2.8,2.7573,2.7051,2.6264,2.5103,2.3505,2.2698,0.0,0.0,0.0,0.0,0.0,0.0,0.0,0.0,0.0,0.0,0.0,0.0,0.0,0.0,0.0,0.0,0.0,0.0,0.0,0.0,0.0,0.0,0.0,0.0,0.0,0.0,0.0,0.0,0.0,0.0,0.0,0.0,0.0,0.0,0.0,0.0,0.0,0.0,0.0,0.0,0.0,0.0,0.0,0.0,0.0,0.0,0.0,0.0,0.0,0.0,0.0,0.0,0.0,0.0,0.0,0.0,0.0,0.0,0.0,0.0,0.0,0.0,0.0,0.0,0.0,0.0,0.0,0.0,0.0,0.0,0.0,0.0,0.0,0.0,0.0,0.0,0.0,0.0,0.0,0.0,0.0,0.0,0.0,0.0,0.0,0.0,0.0,0.0,0.0,0.0,0.0,0.0,0.0,0.0,0.0,0.0,0.0,0.0,0.0,0.0,0.0,0.0,2.6139,2.7227,0.0,2.822,2.7843,2.7077,2.6472,2.5244,2.3151,0.0,0.0,0.0,0.0,0.0,0.0,0.0,0.0,0.0,0.0,0.0,0.0,0.0,0.0,0.0,0.0,0.0,0.0,0.0,0.0,0.0,0.0,0.0,0.0,0.0,0.0,0.0,0.0,0.0,0.0,0.0,0.0,0.0,0.0,0.0,0.0,0.0,0.0,0.0,0.0,0.0,0.0,0.0,0.0,0.0,0.0,0.0,0.0,0.0,0.0,0.0,0.0,0.0,0.0,0.0,0.0,0.0,0.0,0.0,0.0,0.0,0.0,0.0,0.0,0.0,0.0,0.0,0.0,0.0,0.0,0.0,0.0,0.0,0.0,0.0,0.0,0.0,0.0,0.0,0.0,0.0,0.0,0.0,0.0,0.0,0.0,0.0,0.0,0.0,0.0,0.0,0.0,0.0,0.0,0.0,0.0,0.0,0.0,0.0,0.0,0.0,0.0,2.5608,2.6589,2.75,0.0,2.8314,2.7949,2.7077,2.6367,2.5097,2.3061,0.0,0.0,0.0,0.0,0.0,0.0,0.0,0.0,0.0,0.0,0.0,0.0,0.0,0.0,0.0,0.0,0.0,0.0,0.0,0.0,0.0,0.0,0.0,0.0,0.0,0.0,0.0,0.0,0.0,0.0,0.0,0.0,0.0,0.0,0.0,0.0,0.0,0.0,0.0,0.0,0.0,0.0,0.0,0.0,0.0,0.0,0.0,0.0,0.0,0.0,0.0,0.0,0.0,0.0,0.0,0.0,0.0,0.0,0.0,0.0,0.0,0.0,0.0,0.0,0.0,0.0,0.0,0.0,0.0,0.0,0.0,0.0,0.0,0.0,0.0,0.0,0.0,0.0,0.0,0.0,0.0,0.0,0.0,0.0,0.0,0.0,0.0,0.0,0.0,0.0,0.0,0.0,0.0,0.0,0.0,0.0,0.0,0.0,0.0,0.0,0.0,0.0,2.5647,2.6875,2.7858,2.8255,2.8314,2.7949,2.7077,2.5832,2.4566,0.0,0.0,0.0,0.0,0.0,0.0,0.0,0.0,0.0,0.0,0.0,0.0,0.0,0.0,0.0,0.0,0.0,0.0,0.0,0.0,0.0,0.0,0.0,0.0,0.0,0.0,0.0,0.0,0.0,0.0,0.0,0.0,0.0,0.0,0.0,0.0,0.0,0.0,0.0,0.0,0.0,0.0,0.0,0.0,0.0,0.0,0.0,0.0,0.0,0.0,0.0,0.0,0.0,0.0,0.0,0.0,0.0,0.0,0.0,0.0,0.0,0.0,0.0,0.0,0.0,0.0,0.0,0.0,0.0,0.0,0.0,0.0,0.0,0.0,0.0,0.0,0.0,0.0,0.0,0.0,0.0,0.0,0.0,0.0,0.0,0.0,0.0,0.0,0.0,0.0,0.0,0.0,0.0,0.0,0.0,0.0,0.0,0.0,0.0,0.0,0.0,0.0,0.0,2.5686,2.7116,2.8177,2.8295,2.8314,2.7949,2.7077,2.6101,2.4781,2.3031,0.0,0.0,0.0,0.0,0.0,0.0,0.0,0.0,0.0,0.0,0.0,0.0,0.0,0.0,0.0,0.0,0.0,0.0,0.0,0.0,0.0,0.0,0.0,0.0,0.0,0.0,0.0,0.0,0.0,0.0,0.0,0.0,0.0,0.0,0.0,0.0,0.0,0.0,0.0,0.0,0.0,0.0,0.0,0.0,0.0,0.0,0.0,0.0,0.0,0.0,0.0,0.0,0.0,0.0,0.0,0.0,0.0,0.0,0.0,0.0,0.0,0.0,0.0,0.0,0.0,0.0,0.0,0.0,0.0,0.0,0.0,0.0,0.0,0.0,0.0,0.0,0.0,0.0,0.0,0.0,0.0,0.0,0.0,0.0,0.0,0.0,0.0,0.0,0.0,0.0,0.0,0.0,0.0,0.0,0.0,0.0,0.0,0.0,0.0,0.0,0.0,0.0,2.5706,2.7214,2.8314,2.8314,2.8314,2.7949,2.7077,2.6206,2.4976,2.3296,0.0,0.0,0.0,0.0,0.0,0.0,0.0,0.0,0.0,0.0,0.0,0.0,0.0,0.0,0.0,0.0,0.0,0.0,0.0,0.0,0.0,0.0,0.0,0.0,0.0,0.0,0.0,0.0,0.0,0.0,0.0,0.0,0.0,0.0,0.0,0.0,0.0,0.0,0.0,0.0,0.0,0.0,0.0,0.0,0.0,0.0,0.0,0.0,0.0,0.0,0.0,0.0,0.0,0.0,0.0,0.0,0.0,0.0,0.0,0.0,0.0,0.0,0.0,0.0,0.0,0.0,0.0,0.0,0.0,0.0,0.0,0.0,0.0,0.0,0.0,0.0,0.0,0.0,0.0,0.0,0.0,0.0,0.0,0.0,0.0,0.0,0.0,0.0,0.0,0.0,0.0,0.0,0.0,0.0,0.0,0.0,0.0,0.0,0.0,0.0,0.0,0.0,2.5764,2.7253,2.8314,2.8314,2.8314,2.7949,2.7077,2.6245,2.5191,2.3867,0.0,0.0,0.0,0.0,0.0,0.0,0.0,0.0,0.0,0.0,0.0,0.0,0.0,0.0,0.0,0.0,0.0,0.0,0.0,0.0,0.0,0.0,0.0,0.0,0.0,0.0,0.0,0.0,0.0,0.0,0.0,0.0,0.0,0.0,0.0,0.0,0.0,0.0,0.0,0.0,0.0,0.0,0.0,0.0,0.0,0.0,0.0,0.0,0.0,0.0,0.0,0.0,0.0,0.0,0.0,0.0,0.0,0.0,0.0,0.0,2.4706,0.0,0.0,0.0,0.0,0.0,0.0,0.0,0.0,0.0,0.0,0.0,0.0,0.0,0.0,0.0,0.0,0.0,0.0,0.0,0.0,0.0,0.0,0.0,0.0,0.0,0.0,0.0,0.0,0.0,0.0,0.0,0.0,0.0,0.0,0.0,0.0,0.0,0.0,0.0,0.0,0.0,2.6211,2.7441,2.8314,2.8314,2.8314,2.7949,2.7077,2.6543,2.5547,2.3898,2.3104,0.0,0.0,0.0,0.0,0.0,0.0,0.0,0.0,0.0,0.0,0.0,0.0,0.0,0.0,0.0,0.0,0.0,0.0,0.0,0.0,0.0,0.0,0.0,0.0,0.0,0.0,0.0,0.0,0.0,0.0,0.0,0.0,0.0,0.0,0.0,0.0,0.0,0.0,0.0,0.0,0.0,0.0,0.0,0.0,0.0,0.0,0.0,0.0,0.0,0.0,0.0,0.0,0.0,0.0,0.0,0.0,0.0,0.0,0.0,0.0,2.5907,0.0,0.0,0.0,0.0,0.0,0.0,0.0,0.0,0.0,0.0,0.0,0.0,0.0,0.0,0.0,0.0,0.0,0.0,0.0,0.0,0.0,0.0,0.0,0.0,0.0,0.0,0.0,0.0,0.0,0.0,0.0,0.0,0.0,0.0,0.0,0.0,0.0,0.0,0.0,0.0,2.6328,2.7513,2.8314,2.8314,2.8314,2.7949,2.7077,2.6621,2.5832,2.4515,2.3502,0.0,0.0,0.0,0.0,0.0,0.0,0.0,0.0,0.0,0.0,0.0,0.0,0.0,0.0,0.0,0.0,0.0,0.0,0.0,0.0,0.0,0.0,0.0,0.0,0.0,0.0,0.0,0.0,0.0,0.0,0.0,0.0,0.0,0.0,0.0,0.0,0.0,0.0,0.0,0.0,0.0,0.0,0.0,0.0,0.0,0.0,0.0,0.0,0.0,0.0,0.0,0.0,0.0,2.8657,2.8719,2.9091,2.9091,2.8876,2.8491,2.8156,2.8031,2.7962,0.0,0.0,0.0,0.0,0.0,0.0,0.0,0.0,0.0,0.0,0.0,0.0,0.0,0.0,0.0,0.0,0.0,0.0,0.0,0.0,0.0,0.0,0.0,0.0,0.0,2.8802,2.9002,0.0,0.0,0.0,0.0,0.0,0.0,0.0,0.0,0.0,0.0,0.0,0.0,2.6555,2.7611,2.8314,2.8314,2.8314,2.7969,2.7175,2.6738,2.6126,2.5258,2.395,2.3227,0.0,0.0,0.0,0.0,0.0,0.0,0.0,0.0,0.0,0.0,0.0,0.0,0.0,0.0,0.0,0.0,0.0,0.0,0.0,0.0,0.0,0.0,0.0,0.0,0.0,0.0,0.0,0.0,0.0,0.0,0.0,0.0,2.9283,2.9222,0.0,0.0,0.0,0.0,0.0,0.0,0.0,0.0,0.0,0.0,0.0,0.0,0.0,2.8814,2.9635,3.0049,3.0297,3.0421,3.0774,3.096,3.1022,3.1022,3.1001,3.0939,3.0891,0.0,2.8471,2.7953,0.0,0.0,0.0,0.0,0.0,0.0,0.0,0.0,0.0,0.0,0.0,0.0,0.0,0.0,0.0,0.0,0.0,0.0,0.0,0.0,0.0,0.0,2.9622,2.9195,2.9518,2.9836,0.0,2.8615,2.7543,2.6778,2.6311,0.0,0.0,0.0,0.0,0.0,0.0,0.0,2.7428,2.7982,2.8314,2.8314,2.8314,2.8119,2.7643,2.7187,2.655,2.5679,2.5093,2.4637,2.4235,2.3755,0.0,0.0,0.0,0.0,0.0,0.0,0.0,0.0,0.0,0.0,0.0,0.0,0.0,0.0,0.0,0.0,0.0,0.0,0.0,0.0,0.0,0.0,0.0,0.0,0.0,0.0,0.0,0.0,0.0,2.8555,2.9618,2.9859,2.986,2.9252,0.0,0.0,0.0,0.0,0.0,0.0,0.0,0.0,0.0,3.0485,3.0506,3.0837,3.1512,3.1719,3.1961,3.2223,3.2424,3.2389,3.2147,3.241,3.2113,3.1408,3.165,3.114,3.0139,2.9663,2.9009,2.8305,0.0,0.0,0.0,0.0,2.864,2.8549,2.9337,2.942,0.0,2.8612,0.0,0.0,0.0,0.0,0.0,0.0,0.0,0.0,0.0,0.0,3.0015,3.0056,3.0442,3.0711,3.0463,2.9911,2.9123,0.0,2.7533,2.6976,2.5725,0.0,0.0,0.0,0.0,2.6973,2.7617,2.8041,2.8314,2.8314,2.8314,2.8138,2.7721,2.7266,2.6745,2.614,2.5473,2.5004,2.4797,2.4375,2.3828,0.0,0.0,0.0,0.0,0.0,0.0,0.0,0.0,0.0,0.0,0.0,0.0,0.0,0.0,0.0,0.0,0.0,0.0,0.0,0.0,0.0,0.0,0.0,0.0,0.0,0.0,0.0,0.0,2.999,3.051,3.0759,3.0816,3.0169,0.0,0.0,0.0,0.0,0.0,0.0,3.0995,3.1458,3.2041,3.2812,3.2685,3.283,3.3274,3.3151,3.3244,3.3584,3.3584,3.3404,3.3064,3.3424,3.3045,3.2113,3.2416,3.2216,3.1685,3.1105,3.0256,2.9352,2.9559,2.9228,2.8719,2.9663,2.9766,2.9622,3.0691,3.0815,3.0421,2.9849,0.0,2.927,2.8156,0.0,0.0,0.0,0.0,2.845,2.927,2.9829,3.0276,3.0629,3.1056,3.1291,3.096,3.0877,3.0451,0.0,2.8637,2.8064,2.652,0.0,0.0,0.0,0.0,2.7344,2.78,2.8119,2.8314,2.8314,2.8314,2.8177,2.7878,2.7324,2.6862,2.6562,2.5735,2.5246,2.5246,2.491,2.4402,2.3705,0.0,0.0,0.0,0.0,0.0,0.0,0.0,0.0,0.0,0.0,0.0,0.0,0.0,0.0,0.0,0.0,0.0,0.0,0.0,0.0,0.0,0.0,0.0,0.0,0.0,0.0,0.0,0.0,0.0,3.2454,3.3718,0.0,0.0,0.0,0.0,3.3003,3.3418,3.3715,3.38,3.4188,3.4642,3.5117,3.4576,3.4465,3.4889,3.4315,3.404,3.406,3.406,3.406,3.404,3.406,3.4019,3.3957,3.3978,3.3486,3.2574,3.1726,3.1312,3.1222,3.0794,3.0608,3.0525,3.0139,2.9973,2.9973,3.0049,3.0056,3.0098,3.0504,3.0339,2.987,2.9352,2.8897,0.0,0.0,2.8884,2.934,2.9829,3.0318,3.067,3.0691,3.1056,3.1374,3.1367,3.1367,3.1084,0.0,2.9547,2.9057,2.8457,0.0,2.7702,2.7604,2.7643,2.7819,2.8216,2.8295,2.8314,2.8314,2.8314,2.8295,2.8262,2.7487,2.6999,2.6979,2.6147,2.5667,2.5667,2.5647,2.5437,2.5016,2.4191,0.0,0.0,0.0,0.0,0.0,0.0,0.0,0.0,0.0,0.0,0.0,0.0,0.0,0.0,0.0,0.0,0.0,0.0,0.0,0.0,0.0,0.0,0.0,0.0,0.0,0.0,0.0,0.0,3.5074,3.5181,0.0,3.4165,3.3992,3.3999,3.4186,3.4878,3.5463,3.5792,3.6587,3.7222,3.7611,3.7154,3.6754,3.642,3.5849,3.5352,3.4941,3.4941,3.4812,3.4537,3.4537,3.4386,3.4102,3.4102,3.3901,3.359,3.3273,3.2444,3.1436,3.1823,3.1802,3.154,3.1698,3.174,3.174,3.174,3.174,3.1768,3.2029,3.1159,3.0096,3.0632,3.018,2.9497,2.9497,2.9622,2.9787,2.9966,3.0359,3.0691,3.0691,3.1056,3.1408,3.1408,3.1408,3.1305,3.096,3.0774,3.0343,2.9359,2.9143,2.8832,2.8081,2.8035,2.8138,2.8281,2.8314,2.8314,2.8314,2.8314,2.8314,2.8314,2.7487,2.6999,2.6999,2.6174,2.5706,2.5706,2.5706,2.5515,2.5114,2.4952,2.4436,0.0,0.0,0.0,0.0,0.0,0.0,0.0,0.0,0.0,0.0,0.0,0.0,0.0,0.0,0.0,0.0,0.0,0.0,0.0,0.0,0.0,0.0,0.0,0.0,0.0,0.0,3.6247,3.7329,3.7014,3.6722,3.671,3.6447,3.6332,3.6505,3.7087,3.7665,3.8126,3.883,3.9469,4.0032,3.9568,3.9183,3.8908,3.7894,3.7095,3.6538,3.6092,3.5728,3.5469,3.5309,3.506,3.4801,3.505,3.4859,3.4375,3.4771,3.3901,3.2341,3.2609,3.2415,3.2022,3.2195,3.2257,3.2313,3.27,3.2818,3.2929,3.3574,3.2924,3.1922,3.2241,3.1843,3.1262,3.1093,3.1051,3.113,3.1528,3.1681,3.1748,3.1748,3.1786,3.1836,3.1836,3.1836,3.1836,3.1836,3.1602,3.1106,3.0185,2.9897,2.9514,2.8681,2.8403,2.8314,2.8314,2.8314,2.8314,2.8314,2.8314,2.8314,2.8314,2.7487,2.6999,2.6999,2.6174,2.5706,2.5706,2.5562,2.5449,2.5293,2.55,2.5309,2.4713,0.0,0.0,0.0,0.0,0.0,0.0,0.0,0.0,0.0,0.0,0.0,0.0,0.0,0.0,0.0,0.0,0.0,0.0,0.0,0.0,0.0,0.0,0.0,3.6738,3.7218,3.8048,3.9111,3.9362,3.9436,3.9424,3.9452,3.965,4.0133,4.0209,4.0424,4.0854,4.0923,4.1388,4.2355,4.1751,4.1682,4.2284,4.0326,3.9166,3.8829,3.7482,3.6885,3.6912,3.6408,3.6169,3.6227,3.6961,3.6358,3.4933,3.6154,3.5652,3.404,3.3105,3.245,3.1995,3.1664,3.1518,3.1703,3.2803,3.3183,3.3435,3.5042,3.5511,3.5285,3.422,3.3862,3.3748,3.3292,3.3161,3.3405,3.4514,3.4306,3.3803,3.3803,3.3239,3.2712,3.2741,3.2755,3.2769,3.2798,3.2107,3.1374,3.1004,3.0322,2.9768,2.947,2.8803,0.0,2.8314,2.8314,2.8314,2.8314,2.8314,2.8314,2.8314,2.7506,2.7018,2.6999,2.6206,2.5725,2.5725,2.5356,2.536,2.5791,2.5868,2.6328,2.7205,0.0,0.0,0.0,0.0,0.0,0.0,0.0,0.0,0.0,0.0,0.0,0.0,0.0,0.0,0.0,0.0,0.0,0.0,0.0,0.0,0.0,3.9416,4.0563,3.9423,4.0349,4.1379,4.205,4.2395,4.2525,4.2427,4.2496,4.2312,4.1734,4.2691,4.3015,4.2429,4.3506,4.4256,4.4466,4.4018,4.3253,4.2184,4.0746,3.9871,3.9599,3.8672,3.8782,3.9725,3.8588,3.8053,3.8022,3.7255,3.6473,3.5837,3.7108,3.6423,3.4537,3.3957,3.3424,3.3111,3.382,3.4415,3.493,3.5233,3.5105,3.5072,3.6501,3.6067,3.5125,3.5787,3.5307,3.45,3.4376,3.4331,3.4409,3.4735,3.4306,3.3803,3.3803,3.3239,3.2941,3.3818,3.4001,3.4246,3.5085,3.4375,3.3229,3.1926,3.1372,3.0775,2.9828,2.9357,0.0,2.838,2.8314,2.8314,2.8314,2.8314,2.8314,2.8314,2.7806,2.7357,2.7018,2.6491,2.6211,2.6211,2.6283,2.6879,2.807,2.8216,2.865,0.0,0.0,0.0,0.0,0.0,0.0,0.0,0.0,0.0,0.0,0.0,0.0,0.0,0.0,0.0,0.0,0.0,0.0,0.0,0.0,0.0,0.0,4.1763,4.2919,4.2887,4.3263,4.3885,4.4862,4.4667,4.4546,4.4863,4.4606,4.4198,4.3612,4.4356,4.4588,4.4001,4.485,4.5525,4.5879,4.5667,4.5185,4.4463,4.3046,4.2192,4.1908,4.0752,4.0643,4.1406,4.0393,3.9922,0.0,3.9495,3.8847,3.8196,3.9212,3.8581,0.0,0.0,0.0,0.0,0.0,3.6456,3.678,3.7284,3.7106,3.6896,3.8313,3.7886,3.691,3.731,3.682,3.6103,3.6103,3.6103,3.6221,3.6716,3.6193,3.553,3.553,3.483,3.4357,3.5057,3.5209,3.5402,3.6063,3.5676,0.0,3.3301,3.2133,3.1153,3.0447,2.9696,2.9046,2.8621,2.8398,2.8314,2.8314,2.8314,2.8314,2.8314,2.7936,0.0,0.0,0.0,2.6788,2.6735,2.7507,0.0,0.0,0.0,0.0,0.0,0.0,0.0,0.0,3.2435,3.2297,0.0,0.0,0.0,0.0,0.0,0.0,0.0,0.0,0.0,0.0,0.0,0.0,0.0,0.0,0.0,0.0,4.3743,4.4854,4.6461,4.5919,4.5801,4.7011,4.6252,4.5919,4.663,4.6045,4.5611,4.5553,4.567,4.571,4.5652,0.0,0.0,0.0,0.0,4.7296,4.7781,4.6195,4.5233,4.4884,4.3302,4.2571,4.2643,4.207,4.1831,4.1854,4.246,4.2057,4.1014,4.1742,4.1342,4.0002,3.7695,3.667,3.6614,3.7733,3.8027,3.8032,3.9094,0.0,0.0,4.0109,4.0173,3.9595,3.8793,3.8361,3.8148,3.8108,3.8108,3.837,3.9488,3.8915,3.8019,3.8091,3.7224,3.6437,3.6574,3.6587,3.6605,3.6764,3.6682,3.6237,3.5182,3.305,3.139,3.1138,2.9982,2.9098,2.899,2.8633,2.8373,2.8373,0.0,0.0,2.8301,2.8001,2.7813,2.7754,2.7722,2.7708,2.7754,2.9114,2.9835,2.9741,3.1095,3.2604,3.4301,3.4658,3.5532,3.676,3.3217,3.2635,0.0,0.0,0.0,0.0,0.0,0.0,0.0,0.0,0.0,0.0,0.0,0.0,0.0,0.0,0.0,4.4695,4.5943,4.6929,4.7768,4.7713,4.7223,4.6276,4.7034,4.7383,4.6749,4.7265,4.75,4.7192,4.7908,4.8193,4.7824,4.8579,4.908,4.9287,4.9261,4.8943,4.8263,4.7144,4.6454,4.6229,0.0,0.0,4.5464,4.4293,4.3758,4.3712,4.274,4.1962,4.1476,4.2632,4.2499,4.132,3.9024,3.8663,3.9471,3.9564,4.0166,4.0944,4.0955,4.0714,4.0433,4.0721,4.0466,4.0032,4.0045,3.9878,0.0,3.9413,3.9349,3.95,4.0184,3.9482,3.8725,3.9172,3.8402,3.7818,3.8747,3.8953,3.9214,4.0146,3.9579,3.8728,3.8068,3.5678,3.3219,3.1376,3.085,3.0372,2.9576,2.9062,2.8775,2.8775,2.8775,2.8639,2.8334,2.8535,2.8473,2.8041,2.9001,3.0049,3.1113,3.1803,3.2465,3.3066,3.3791,3.4605,3.555,3.6539,3.7258,3.7729,3.6692,3.6444,0.0,0.0,0.0,0.0,0.0,0.0,0.0,0.0,0.0,0.0,0.0,4.0755,4.2305,0.0,4.4442,4.6559,4.7374,4.8053,4.8945,4.9049,4.8558,4.7217,4.7738,4.8127,4.7913,4.8351,4.8674,4.8764,4.9224,4.9414,4.9162,4.9629,4.9912,4.9912,4.9746,4.9503,4.9131,4.8147,4.7695,4.7737,4.6907,4.6712,4.7074,4.613,4.569,4.5659,4.4664,4.4122,4.3933,4.4298,4.3988,4.3134,4.2006,4.1201,4.0781,4.1452,4.2,4.238,4.2258,4.1991,4.1697,4.1402,4.1042,4.0709,4.0555,4.0504,4.0437,4.0177,4.0287,4.0549,4.0826,4.0475,4.0121,4.0392,4.0018,3.9757,4.0319,4.0441,4.0629,4.1181,4.0832,4.0166,3.933,3.7293,3.4979,3.2657,3.1499,3.0662,2.9992,2.9526,2.9238,2.9238,2.9238,2.9174,2.8973,2.9813,3.0605,3.1208,3.1866,3.261,3.3421,3.4179,3.479,3.5196,3.6125,3.6782,3.714,3.7988,3.8462,3.8594,3.856,3.8477,0.0,0.0,0.0,0.0,0.0,0.0,0.0,3.8881,3.99,4.1142,4.2278,4.352,4.5167,4.556,4.6266,4.8213,4.8527,4.884,4.9782,4.9912,4.9572,4.8631,4.8527,4.871,4.9206,4.9259,4.9494,5.0028,5.0069,5.0106,5.0211,5.0226,5.0226,5.0226,4.9901,4.9855,5.0146,4.9184,4.8807,4.8978,4.8364,4.8008,4.7883,4.745,4.7249,4.7224,4.6687,4.6461,4.6411,4.5874,4.5321,4.478,4.478,4.3536,4.1921,4.3179,4.3463,4.3182,4.3162,4.3015,4.2682,4.2074,4.1724,4.1453,4.0888,4.0873,4.1007,4.0729,4.0976,4.1314,4.1428,4.1478,4.1503,4.1603,4.1628,4.1628,4.1628,4.1628,4.1628,4.1628,4.1628,4.1307,4.0285,3.8745,3.6845,3.4454,3.2523,3.1287,3.1119,3.0542,3.0115,3.0079,3.0101,3.0255,3.056,3.1633,3.2975,3.4618,3.4761,3.4982,3.5408,3.625,3.6704,3.6704,3.7817,3.8421,3.847,3.9073,3.9379,3.9442,3.979,3.9699,3.6645,3.7194,3.7874,3.8934,3.9247,3.9848,0.0,4.2435,4.2997,4.4669,4.5558,4.6383,4.7585,4.8265,4.8866,4.9599,4.9703,4.974,4.9886,4.9912,4.9845,4.9729,4.9703,4.9755,4.9808,4.9808,5.0069,5.0655,5.0697,5.0906,5.1387,5.1413,5.1413,5.1413,5.107,5.0939,5.0986,5.026,4.9688,4.9253,4.8891,4.8426,4.7908,4.7842,4.7817,4.7767,4.7224,4.7023,4.6973,4.6436,4.5899,4.5412,4.5412,4.4907,4.4237,4.4458,4.4228,4.3802,4.3814,4.362,4.3304,4.2695,4.2304,4.2054,4.1686,4.1592,4.1563,4.1307,4.1239,4.1428,4.1959,4.2098,4.221,4.2699,4.2799,4.2799,4.2799,4.2799,4.2799,4.2799,4.2799,4.2621,4.2009,4.087,3.9154,3.6627,3.475,3.3802,3.431,3.3054,3.1996,3.1753,3.1927,3.2632,3.392,3.4092,3.4595,3.5743,3.6046,3.6628,3.7606,3.7755,3.7817,3.7817,3.82,3.8519,3.8763,3.9582,4.0086,4.027,4.0855,4.0541,3.8161,3.8934,3.9561,4.0397,4.1102,4.1912,4.3232,4.4029,4.4904,4.6314,4.7362,4.8239,4.9049,4.9389,4.9755,5.0331,5.0435,5.054,5.0838,5.089,5.076,5.0461,5.0697,5.0775,5.0446,5.0435,5.067,5.1204,5.1272,5.1361,5.1596,5.1596,5.1596,5.1596,5.1078,5.0915,5.1104,5.0232,4.9794,4.9758,4.9439,4.9113,4.8887,4.8576,4.8234,4.7867,4.7324,4.7099,4.7074,4.6537,4.6175,4.5974,4.5974,4.5726,4.5287,4.4854,4.4465,4.4103,4.3953,4.384,4.3601,4.2847,4.2616,4.2526,4.1887,4.1959,4.2158,4.1888,4.2032,4.2333,4.2612,4.2676,4.2713,4.2939,4.3014,4.309,4.3402,4.3226,4.3076,4.3388,4.3201,4.2939,4.2688,4.1394,4.0288,3.9899,3.7386,3.5424,3.5168,3.4519,3.4042,3.3918,3.4015,3.4688,3.6163,3.6244,3.6888,3.8531,3.8416,3.8784,3.9884,3.9308,3.9145,3.9458,3.9918,4.0044,3.9786,4.0829,4.1184,4.0946,4.1181,4.105,3.943,4.0357,4.1089,4.1821,4.2879,4.3911,4.467,4.5611,4.6694,4.8001,4.8956,4.9729,5.0278,5.0383,5.0514,5.0958,5.1021,5.1167,5.1544,5.1465,5.1282,5.1063,5.123,5.1282,5.1037,5.1021,5.1178,5.157,5.1596,5.1596,5.1596,5.1596,5.1565,5.1471,5.0889,5.0677,5.082,5.0008,4.9719,4.9944,4.9703,4.959,4.9606,4.9204,4.8777,4.8335,4.7792,4.7566,4.7516,4.6813,4.6537,4.6512,4.6361,4.6169,4.5942,4.5393,4.4917,4.4528,4.4328,4.4152,4.3891,4.3181,4.3028,4.298,4.2356,4.2425,4.2659,4.248,4.2813,4.3226,4.3226,4.3327,4.3452,4.3452,4.3452,4.3553,4.394,4.3714,4.3514,4.374,4.3503,4.3176,4.3039,4.1955,4.1369,4.2075,3.9892,3.7779,3.6748,3.6132,3.5809,3.589,3.5904,3.6571,3.8185,3.8341,3.9009,4.0622,4.0362,4.0487,4.1264,4.0549,4.0312,4.07,4.1306,4.1401,4.0952,4.1943,4.2121,4.1559,4.1559,4.1442,4.0214,4.1246,4.2434,4.3546,4.467,4.5818,4.6941,4.7661,4.8605,5.0357,5.0707,5.0917,5.1439,5.1544,5.1544,5.157,5.157,5.157,5.1596,5.1152,5.0995,5.1518,5.1141,5.1021,5.1518,5.157,5.157,5.1596,5.1596,5.1596,5.1596,5.1596,5.144,5.1136,5.0763,5.0455,5.0145,4.9767,4.9606,4.9606,4.959,4.959,4.959,4.9565,4.9565,4.9515,4.8978,4.8743,4.8667,4.7541,4.7074,4.7023,4.6512,4.6301,4.63,4.6316,4.5854,4.5155,4.5169,4.4792,4.4244,4.3956,4.3655,4.3369,4.3369,4.3187,4.3003,4.2989,4.3352,4.379,4.379,4.4152,4.4539,4.4539,4.4539,4.4554,4.4564,4.4564,4.4403,4.389,4.379,4.3614,4.309,4.2961,4.2746,4.2274,4.2105,4.1529,4.0124,3.8236,3.714,3.741,3.7413,3.8238,4.0228,4.0422,4.066,4.1239,4.1264,4.1264,4.1289,4.1264,4.1264,4.1264,4.1878,4.2183,4.2158,4.2723,4.2709,4.2172,4.2172,4.1859,4.1127,4.2447,4.3703,4.5246,4.6186,4.7046,4.821,4.893,4.9479,5.0095,5.0185,5.0148,4.9965,4.9938,5.0069,5.0409,5.0827,5.1178,5.1544,5.1439,5.1272,5.1073,5.1204,5.1256,5.1089,5.1387,0.0,5.1596,5.1596,5.1596,5.1596,5.1596,5.144,5.1104,5.0763,5.0455,5.0113,4.9751,4.959,4.959,4.959,4.959,4.959,4.959,4.959,4.9565,4.9028,4.8793,4.8743,4.7958,4.7641,4.7616,4.7415,4.7503,4.7642,4.7312,4.6893,4.6428,4.5711,4.5198,4.4789,4.4451,4.428,4.4133,4.377,4.3836,4.3991,4.3639,4.3915,4.4328,4.4328,4.4464,4.4589,4.4589,4.4589,4.4704,4.5121,4.488,4.4679,4.4884,4.4604,4.4152,4.3614,4.3528,4.3352,4.2813,4.2096,4.1439,4.0956,4.0317,3.9925,4.0007,4.0021,4.0307,4.0986,4.1026,4.1291,4.187,4.1517,4.1628,4.2409,4.1704,4.1559,4.2153,4.2545,4.2635,4.246,4.3231,4.3284,4.2735,4.2735,4.2618,4.2238,4.3637,4.4945,4.667,4.7362,4.7922,4.9128,4.9494,4.9625,4.9625,4.9442,4.918,4.884,4.8788,4.9023,4.9782,5.0409,5.1063,5.1805,5.157,5.135,5.1387,5.1335,5.1256,5.11,5.1387,0.0,5.1596,5.1596,5.1549,5.1424,5.1534,5.133,5.0757,5.0661,5.0391,4.9937,4.9703,4.959,4.959,4.959,4.959,4.959,4.959,4.959,4.9565,4.9229,4.9079,4.9028,4.8476,4.8209,4.8184,4.7983,4.8032,4.8209,4.7978,4.779,4.7431,4.6159,4.5431,4.5077,4.4836,4.4691,4.4568,4.4321,4.4414,4.4529,4.4177,4.4478,4.493,4.493,4.5056,4.5206,4.5206,4.5206,4.5307,4.5698,4.5482,4.5257,4.5462,4.5196,4.4729,4.4177,4.4077,4.3915,4.3377,4.2646,4.2055,4.1667,4.1428,4.1289,4.1289,4.1289,4.1403,4.1592,4.1617,4.1856,4.2436,4.2108,4.2233,4.2975,4.2308,4.2205,4.286,4.3172,4.3266,4.3213,4.3857,4.3899,4.3337,4.3337,4.3219,4.348,4.48,4.6093,4.7794,4.8187,4.8474,4.9572,4.9416,4.9023,4.8945,4.85,4.8082,4.7951,4.803,4.8474,4.9599,5.0331,5.1152,5.2328,5.157,5.1282,5.2406,5.1586,5.1141,5.1648,5.1675,0.0,5.1675,0.0,5.1507,5.1203,5.1471,5.1203,5.0161,5.0449,5.0305,4.9606,4.959,4.959,4.959,4.959,4.959,4.959,4.959,4.959,4.959,4.959,4.959,4.9565,4.9053,4.8843,4.8777,4.8209,4.7983,4.8014,4.83,4.8424,4.8196,4.6558,4.566,4.5233,4.5193,4.4951,4.4723,4.5041,4.4926,4.4665,4.464,4.507,4.5537,4.5537,4.5924,4.6286,4.6286,4.6286,4.6286,4.6286,4.6286,4.615,4.5638,4.5512,4.5321,4.4754,4.4629,4.4428,4.3915,4.384,4.3438,4.2375,4.1731,4.1389,4.1389,4.1389,4.1617,4.2199,4.2249,4.245,4.2964,4.3014,4.3014,4.3014,4.3014,4.3142,4.3434,4.375,4.4064,4.4326,4.4573,4.4421,4.3938,4.3938,4.3637,4.4133,4.5675,4.7072,4.7977,4.8187,4.8291,4.8579,4.8527,4.8056,4.6773,4.6734,4.6409,4.4643,4.5741,4.7167,4.7844,4.9191,5.0697,5.2276,5.225,5.2328,5.3086,5.2903,5.2772,5.2929,5.2929,0.0,0.0,5.2511,5.2244,5.2149,5.238,5.1862,5.0528,5.0703,5.0438,4.9606,4.959,4.959,4.959,4.959,4.959,4.959,4.959,4.959,4.959,4.959,4.959,4.959,4.9439,4.9405,4.938,4.9213,4.9163,4.9129,4.8822,4.8702,4.8576,4.7689,4.7202,4.6852,4.6219,4.5933,4.5799,4.5485,4.5607,4.5784,4.5372,4.5673,4.61,4.61,4.62,4.6286,4.6286,4.6286,4.6286,4.6286,4.6286,4.6261,4.611,4.5773,4.5462,4.5311,4.4905,4.4539,4.4428,4.4403,4.4016,4.2925,4.2649,4.2559,4.2559,4.2559,4.2624,4.2788,4.2788,4.2864,4.2989,4.3014,4.3014,4.3014,4.3184,4.3448,4.3764,4.4039,4.4326,4.4586,4.4668,4.4616,4.4499,4.4499,4.4421,4.5531,4.6746,4.7844,4.8448,4.8198,4.7806,4.7806,4.7245,4.6356,4.5114,4.4905,4.4565,4.3245,4.4708,4.6369,4.7176,4.8758,5.0618,5.2616,5.2668,5.2903,5.4001,5.3896,5.3739,5.3739,5.3739,5.3739,0.0,5.3045,5.2588,5.2427,5.2517,5.2089,5.0946,5.116,5.0863,4.9967,4.9967,4.9841,4.959,4.959,4.959,4.959,4.959,4.959,4.959,0.0,4.959,4.959,4.959,4.959,4.959,4.959,4.959,4.9565,4.9254,4.9154,4.9079,4.8501,4.8032,4.7601,4.6899,4.6486,4.6235,4.5949,4.6075,4.625,4.5924,4.6075,4.6286,4.6286,4.6286,4.6286,4.6286,4.6286,4.6286,4.6286,4.6286,4.6286,4.6286,4.6075,4.5849,4.5849,4.5558,4.5282,4.5031,4.498,4.4593,4.3503,4.3352,4.3251,4.3039,4.3014,4.3014,4.3014,4.3014,4.3014,4.3014,4.3014,4.3014,4.3014,4.3268,4.3545,4.3899,4.4148,4.4435,4.4695,4.4695,4.4695,4.4695,4.4695,4.4695,4.7124,4.7911,4.8527,4.8997,4.825,4.7359,4.7124,4.5898,4.4552,4.3729,4.3258,4.2918,4.2696,4.4212,4.5884,4.6994,4.8669,5.0644,5.306,5.2955,5.3269,5.4994,5.4759,5.4419,5.4419,5.4497,5.4524,5.4445,5.365,5.2968,5.2499,5.2501,5.218,5.1431,5.1613,5.1336,5.0528,5.0503,5.0268,4.9715,4.9715,4.9665,4.959,4.959,4.959,4.959,4.959,0.0,4.959,4.959,4.959,4.959,4.959,4.959,4.959,4.959,4.959,4.9515,4.9069,4.8526,4.7933,4.7299,4.6722,4.6286,4.6286,4.6286,4.6286,4.6286,4.6286,4.6286,4.6286,4.6286,4.6286,4.6286,4.6286,4.6286,4.6286,4.6286,4.6286,4.6286,4.6286,4.6286,4.6286,4.6286,4.615,4.5688,4.5612,4.5221,4.4166,4.3966,4.3689,4.3151,4.3176,4.3201,4.3201,4.3201,4.3176,4.3101,4.3115,4.3104,4.3031,4.3323,4.3614,4.3955,4.4217,4.4476,4.4695,4.4695,4.4695,4.4695,4.4695,4.4695,4.7858,4.8814,4.952,4.918,4.8579,4.7675,4.621,4.5269,4.416,4.2148,4.2409,4.2553,4.1129,4.3075,4.5311,4.6461,4.8108,5.0226,5.3008,5.3295,5.387,5.5569,5.5674,5.5621,5.5621,5.6066,0.0,0.0,5.5357,5.4697,5.3515,5.3609,5.3165,5.1992,5.159,5.1305,5.1163,5.1122,5.0845,5.0252,5.0252,5.0026,4.959,4.959,4.959,4.959,4.959,0.0,4.959,4.959,4.959,4.959,4.959,4.959,4.959,4.959,4.959,4.9606,4.949,4.9104,4.8476,4.744,4.6722,4.6286,4.6286,4.6286,4.6286,4.6286,4.6286,4.6286,4.6286,4.6286,4.6286,4.6286,4.6286,4.6286,4.6286,4.6286,4.6286,4.6286,4.6286,4.6286,4.6286,4.6286,4.6261,4.6175,4.616,4.5924,4.5286,4.4754,4.4252,4.3714,4.4066,4.4328,4.4328,4.4328,4.4127,4.3689,4.3664,4.3551,4.3323,4.3639,4.3929,4.4231,4.4504,4.4641,4.4695,4.4695,4.4695,4.4695,4.4695,4.4695,4.8486,4.9285,4.9782,4.9232,4.8187,4.6932,4.5466,4.3989,4.2605,4.152,4.1717,4.1847,4.1024,4.2774,4.4709,4.5846,4.7217,4.9296,5.2485,5.3191,5.4131,5.6127,5.6641,5.6841,5.6841,5.7102,5.7024,5.6415,5.6297,5.5822,5.4791,5.4159,5.3441,5.2553,5.2277,5.2,5.1716,5.1716,5.1423,5.087,5.0553,5.0252,5.0017,4.9715,4.959,4.959,4.959,0.0,4.959,4.959,4.959,4.959,4.959,4.959,4.959,4.959,4.959,4.959,4.959,4.9254,4.8718,4.8159,4.7606,4.7014,4.6461,4.6486,4.6662,4.6386,4.6286,4.6286,4.6286,4.6512,4.6737,4.6737,4.6737,4.6737,4.6737,4.6512,4.6286,4.6286,4.6286,4.6286,4.6286,4.6286,4.6286,4.6286,4.6286,4.6125,4.5587,4.5497,4.5156,4.4303,4.4453,4.4589,4.4589,4.4589,4.4503,4.4227,4.3966,4.3831,4.3877,4.417,4.4462,4.4766,4.5328,4.5466,4.5165,4.5492,4.5466,4.5191,4.5492,4.5637,4.9154,4.9755,5.0106,4.9442,4.7951,4.633,4.5022,4.3036,4.1442,4.1338,4.1311,4.1311,4.1311,4.2605,4.4121,4.5374,4.6654,4.868,5.2014,5.3112,5.4367,5.6536,5.7338,5.7747,5.7878,5.7878,0.0,5.7068,5.6886,5.6417,5.5577,5.4361,5.3439,5.2937,5.2895,5.2711,5.2277,5.2277,5.2,5.1465,5.0996,5.0628,5.0377,4.9967,4.9715,4.959,4.959,0.0,0.0,4.959,4.959,4.959,4.959,4.959,4.959,4.959,4.959,4.959,4.959,4.933,4.8953,4.8843,4.84,4.7716,4.6763,4.6788,4.6998,4.6461,4.6386,4.6461,4.6461,4.6888,4.7274,4.7274,4.7274,4.7249,4.7124,4.6863,4.6562,4.6336,4.6486,4.6562,4.6336,4.6386,4.6436,4.6311,4.6286,4.615,4.5738,4.605,4.5959,4.5056,4.4966,4.4966,4.4966,4.4966,4.493,4.4805,4.4392,4.4288,4.456,4.4786,4.507,4.5474,4.614,4.6278,4.5806,4.6278,4.6278,4.5806,4.6278,4.6501,4.9808,5.0618,5.1178,5.0095,4.8538,4.6799,4.5154,4.3389,4.1977,4.1416,4.1311,4.1311,4.1311,4.2278,4.3637,4.5322,4.7022,4.9154,5.2093,5.3452,5.4785,5.6588,5.7338,5.7904,5.8392,5.8444,5.8259,5.7825,5.7164,5.6275,5.5022,5.4176,5.3439,5.2937,5.2895,5.2887,5.2837,5.2837,5.2561,5.2026,5.1975,5.1406,5.0402,5.0352,5.0051,4.959,4.959,0.0,0.0,4.959,4.959,4.959,4.959,4.959,4.959,4.959,4.959,4.959,4.959,4.9565,4.9455,4.8953,4.84,4.7792,4.7199,4.7074,4.6998,4.6461,4.6662,4.7023,4.7023,4.74,4.7817,4.7817,4.7817,4.7691,4.7199,4.744,4.7465,4.6486,4.7104,4.744,4.6461,4.6712,4.6848,4.6361,4.6286,4.6286,4.6235,4.6261,4.6261,4.616,4.6135,4.6135,4.6135,4.6135,4.5949,4.5462,4.5386,4.5373,4.5485,4.5503,4.5787,4.6367,4.6461,4.6461,4.6409,4.6461,4.6461,4.6409,4.6461,4.6501,4.8683,4.9703,5.0289,4.9154,4.7832,4.6369,4.4644,4.318,4.2029,4.1416,4.1311,4.1416,4.1781,4.2225,4.318,4.5269,4.6198,4.7649,5.0524,5.191,5.3426,5.5543,5.6588,5.7503,5.84,0.0,5.8876,5.8481,5.7721,5.6798,5.561,5.4728,5.3976,5.3389,5.3063,5.2895,5.2895,5.2895,5.2795,5.2586,5.2234,5.1875,5.1406,5.0703,5.0277,5.0076,5.0076,0.0,0.0,4.9967,4.9891,4.959,4.959,4.959,4.959,4.959,4.959,4.959,4.959,4.959,4.9565,4.9355,4.9129,4.8761,4.7842,4.7832,4.8008,4.7431,4.7415,4.7591,4.7591,4.8008,4.8526,4.8837,4.8661,4.8375,4.8159,4.8008,4.7767,4.7355,4.7606,4.7767,4.7355,4.7164,4.7023,4.6798,4.6512,4.6286,4.6286,4.6286,4.6286,4.6286,4.6286,4.6286,4.6286,4.6286,4.621,4.5999,4.5826,4.5842,4.6063,4.6294,4.6556,4.6967,4.735,4.735,4.6982,4.735,4.735,4.6982,4.735,4.7507,4.7428,4.8527,4.9154,4.8172,4.7074,4.5834,4.4252,4.3036,4.2081,4.1638,4.1559,4.1742,4.233,4.2578,4.3284,4.5074,4.5766,4.7008,4.9531,5.1178,5.2877,5.4863,5.6118,5.732,5.8653,5.9347,5.9495,5.8931,5.8119,5.7247,5.6334,5.5368,5.4554,5.3984,5.3607,5.3314,5.3138,5.3138,5.3063,5.2912,5.2511,5.2234,5.2076,5.1256,5.0728,5.0402,5.0402,0.0,0.0,5.0114,5.0023,4.9606,4.9703,4.9687,4.959,4.959,4.959,4.959,4.959,4.959,4.959,4.959,4.959,4.9439,4.8661,4.8601,4.8677,4.8083,4.8033,4.8209,4.836,4.8727,4.9129,4.9515,4.9305,4.8978,4.8843,4.8601,4.8309,4.7983,4.8184,4.8259,4.7741,4.749,4.7224,4.6898,4.6687,4.6486,4.6311,4.6436,4.6486,4.6311,4.6286,4.6286,4.6286,4.6401,4.6461,4.6461,4.6355,4.6436,4.6759,4.7021,4.736,4.7803,4.825,4.825,4.7844,4.825,4.825,4.7844,4.8082,4.8187,4.6356,4.735,4.8082,4.7464,4.6445,4.5309,4.416,4.3036,4.2199,4.2199,4.2199,4.2356,4.2905,4.3467,4.4095,4.4697,4.6212,4.7896,4.9636,5.191,5.3818,5.4968,5.6118,5.7477,5.9238,6.0056,6.0108,5.9171,5.8238,0.0,5.7022,5.5968,5.5157,5.4622,5.4597,5.4303,5.3708,5.3683,5.3432,5.2895,5.2895,5.2611,5.2101,5.2101,5.1456,0.0,0.0,0.0,0.0,4.9969,4.9905,4.9622,4.9985,4.9879,4.959,4.959,4.959,4.959,4.959,4.959,4.959,4.959,4.959,4.959,4.9606,4.9229,4.8677,4.8083,4.8325,4.8919,4.9439,4.9606,4.959,4.959,4.9606,4.9455,4.8919,4.9204,4.9238,4.8134,4.8812,4.9063,4.74,4.7541,4.7516,4.6461,4.6763,4.6898,4.6361,4.6747,4.6898,4.6361,4.6286,4.6286,4.6286,4.6611,4.6791,4.6791,4.7053,4.7353,4.7663,4.7677,4.8125,4.9076,4.9102,4.9102,4.9076,4.9102,4.9102,4.9076,4.8474,4.8187,4.4552,4.5245,4.5675,4.5114,4.497,4.4604,4.3075,4.3049,4.3127,4.2356,4.2487,4.2918,4.3507,4.4068,4.4891,4.6276,4.731,4.8512,5.0278,5.1831,5.3504,5.5412,5.7695,5.9498,0.0,0.0,6.0382,6.009,5.9196,5.8296,5.7509,5.6764,5.598,5.5157,5.4798,5.4522,5.4303,5.4321,5.4228,5.4052,5.3632,5.3356,5.3181,5.2427,5.1883,0.0,0.0,0.0,0.0,5.0877,5.0617,5.0134,5.0111,4.9895,4.9654,5.012,5.0136,4.996,5.0216,5.0136,4.9953,4.9953,4.9783,4.959,4.959,4.948,4.9305,4.9113,4.9188,4.938,4.9556,4.959,4.959,4.959,4.959,4.954,4.938,4.948,4.949,4.9138,4.9339,4.933,4.8426,4.8058,4.7767,4.744,4.7239,4.7174,4.7365,4.7541,4.744,4.6898,4.6863,4.6712,4.6336,4.6626,4.6806,4.6806,4.7261,4.7575,4.7718,4.8314,4.8606,4.85,4.8893,4.9102,4.9102,4.9102,4.9285,4.9651,4.9468,4.9363,4.3088,4.365,4.3977,4.3624,4.3794,4.3794,4.2748,4.3062,4.3428,4.2944,4.3114,4.3598,4.4382,4.4813,4.5478,4.6773,4.7675,4.8657,4.9965,5.1716,5.3766,5.6275,5.8549,6.0143,0.0,6.081,6.077,6.0601,5.9525,5.854,5.7801,5.7178,5.6443,5.5735,5.5383,5.5107,5.4906,5.4906,5.4798,5.4597,5.4002,5.3778,5.3892,5.3035,5.259,0.0,0.0,0.0,0.0,5.146,5.12,5.0858,5.0312,5.0031,4.9915,5.0148,5.0088,4.9928,5.0152,5.0088,4.9895,4.9895,4.9767,4.959,4.959,4.959,4.959,4.959,4.959,4.959,4.959,4.959,4.959,4.959,4.959,4.959,4.959,4.959,4.959,4.959,4.959,4.943,4.8878,4.8476,4.8159,4.7917,4.7817,4.7767,4.7883,4.8109,4.7958,4.7174,4.7221,4.7071,4.6531,4.6686,4.6851,4.6945,4.7423,4.7762,4.788,4.8658,4.9023,4.884,4.9442,4.9755,4.9755,4.9755,4.9808,4.9912,5.0357,5.0315,0.0,4.25,4.2879,4.2879,4.2918,4.2918,4.2905,4.2971,0.0,4.3716,4.3912,4.4317,4.5452,4.5661,4.591,4.6618,4.7638,4.8553,4.9259,5.1873,5.4749,5.7538,5.8898,5.9769,6.0282,6.1003,6.1249,6.0832,5.9474,5.8445,5.8014,5.7277,5.6645,5.6219,5.6237,5.5986,5.544,5.5458,5.5207,5.4723,5.4077,5.3958,5.4288,5.3757,5.3419,0.0,0.0,0.0,0.0,5.1835,5.1732,5.1793,5.071,5.0399,5.05,4.9996,4.9794,4.9769,4.976,4.9703,4.9654,4.9606,4.959,4.959,4.959,4.959,4.959,4.959,4.959,4.959,4.959,4.959,4.959,4.959,4.959,4.959,4.959,4.959,4.959,4.959,4.959,4.943,4.8878,4.8793,4.8601,4.8058,4.8451,4.8617,4.8115,4.8507,4.8422,4.7336,4.7465,4.7409,4.6861,4.6851,4.6974,4.722,4.7597,4.7932,4.8172,4.8814,4.9363,4.9782,5.0409,5.0775,5.0801,5.0854,5.0566,5.0043,5.11,5.1021,4.135,0.0,4.1703,4.1703,4.2056,4.2278,0.0,4.2735,4.3611,4.3284,4.3898,4.4865,4.6069,4.6304,4.6906,4.8788,4.9337,5.0017,5.1492,5.4566,5.7416,5.9385,6.0658,6.1443,6.1573,6.176,6.1823,6.171,6.0659,5.97,5.8874,5.7927,5.7031,5.6219,5.651,5.6453,5.6018,5.6018,5.5968,5.5817,5.4856,5.4431,5.4512,5.3831,5.347,0.0,0.0,0.0,5.3552,5.3005,5.2843,5.2803,5.2357,5.2037,5.1834,5.1814,5.1655,5.1402,5.1202,5.0778,5.0295,4.9767,4.959,4.959,4.959,4.959,4.959,4.959,4.959,4.959,4.959,4.959,4.959,4.959,4.959,4.959,4.959,4.959,4.959,4.959,4.959,4.943,4.8878,4.8793,4.8752,4.8601,4.8718,4.8998,4.9514,4.9302,4.8941,4.8503,4.8166,4.7741,4.7153,4.7349,4.7527,4.7575,4.8325,4.861,4.8213,4.918,4.9363,4.8605,4.9599,5.0357,5.0801,5.1204,5.1335,5.1204,5.1465,5.1465,4.1155,4.1665,4.2095,4.2095,4.2343,4.2552,4.25,4.2827,4.3101,4.301,4.3715,4.4696,4.5872,4.6749,4.7768,4.9285,5.0174,5.1387,5.34,5.5534,5.7686,5.9942,6.0771,6.139,0.0,6.1841,6.1598,6.1319,6.0401,5.9517,5.873,5.8068,5.7433,5.6765,5.7127,5.6939,5.6219,5.6583,5.6656,5.6467,5.5788,5.5408,5.5312,5.4671,5.4219,0.0,0.0,0.0,5.4199,5.3482,5.3438,5.3701,5.2893,5.263,5.267,5.2204,5.1926,5.172,5.1285,5.0794,5.0295,4.9767,4.959,4.959,4.959,4.959,4.959,4.959,4.959,4.959,4.959,4.959,4.959,4.959,4.959,4.959,4.959,4.959,4.959,4.959,4.959,4.9506,4.9229,4.9179,4.9179,4.9179,4.9179,4.9344,4.9806,4.9595,4.9191,4.8722,4.8549,4.8188,4.749,4.7747,4.7865,4.7718,4.8191,4.8379,4.8213,4.9285,4.986,4.974,5.0106,5.0592,5.1167,5.1465,5.1596,5.1596,5.1596,5.1596,4.1338,4.2461,4.3284,4.284,4.2945,4.3232,4.3559,4.3023,4.2578,4.3036,4.3676,4.4552,4.5884,4.7336,4.8657,4.9599,5.1037,5.2746,5.4916,5.5778,5.7137,5.9759,6.0151,0.0,6.1626,6.1405,6.0991,6.0487,5.9661,5.8925,5.8324,5.8089,5.778,5.7397,5.7713,5.7408,5.6401,5.7055,5.7235,5.6892,5.6629,5.641,5.6227,5.5667,5.5106,5.4657,0.0,0.0,5.4535,5.3776,5.393,5.4457,5.3235,5.2991,5.3222,5.2177,5.174,5.156,5.0889,5.0503,5.0209,4.9863,4.9751,4.9751,4.9751,4.9719,4.967,4.967,4.9638,4.959,4.959,4.959,4.959,4.959,4.959,4.959,4.959,4.959,4.959,4.959,4.9638,4.967,4.967,4.967,4.967,4.967,4.967,4.9687,4.9751,4.9724,4.9428,4.8717,4.8815,4.8652,4.7969,4.8078,4.8122,4.7936,4.7906,4.8091,4.8433,4.9389,5.0394,5.1465,5.1021,5.1047,5.1596,5.1596,5.1596,5.1596,5.1596,5.1596,4.22,4.3937,4.4616,4.2174,4.2657,4.3546,4.2657,4.3075,4.365,4.3742,4.4591,4.5989,4.8146,4.8788,4.9782,5.2344,5.3347,5.4262,5.5595,5.6736,5.7957,5.9369,0.0,6.0282,6.0465,6.041,6.0347,6.0243,5.9816,5.9285,5.8735,5.8359,5.7921,5.7423,5.7713,5.7677,5.7217,5.7343,5.7361,5.7307,5.6772,5.6475,5.6443,5.5719,5.5356,5.5252,0.0,5.5015,5.5015,5.4861,5.4903,5.4989,5.4756,5.441,5.3984,5.3342,5.2785,5.2216,5.1343,5.0994,5.0899,5.0566,5.0445,5.0445,5.0445,5.0248,5.0008,5.0008,4.9815,4.959,4.959,4.959,4.959,4.959,4.959,4.959,4.959,4.959,4.959,4.959,4.9815,5.0008,5.0008,5.0008,5.0008,5.0008,5.0008,5.012,5.0397,5.0288,5.0059,4.9707,4.9314,4.902,4.8897,4.8471,4.8407,4.8845,4.8897,4.9094,4.9625,4.9808,5.0211,5.0906,5.0838,5.1047,5.1596,5.1596,5.1596,5.1596,5.1596,5.1596,4.1625,4.335,4.4356,4.3036,4.4474,4.599,4.514,4.5154,4.5284,4.5284,4.5936,4.706,4.8788,4.9834,5.1282,5.3896,5.4524,5.5082,5.6223,5.7155,5.8113,0.0,0.0,5.9882,6.0177,6.0491,6.0543,6.023,6.0039,5.9687,5.9151,5.8641,5.8248,5.7989,5.8124,5.8141,5.8007,5.7989,5.79,5.7659,5.7615,5.7437,5.7118,5.647,5.5864,5.5382,0.0,5.5074,5.4814,5.5126,5.5201,5.5099,5.5099,5.4942,5.4628,5.4053,5.306,5.1967,5.1687,5.1379,5.1041,5.0699,5.0588,5.0588,5.0588,5.0503,5.0375,5.0375,5.0008,4.959,4.959,4.959,4.959,4.959,4.959,4.959,4.959,4.959,4.959,4.959,4.9863,5.0113,5.0113,5.0248,5.0375,5.0375,5.0375,5.0439,5.0572,5.0525,5.0359,5.0129,4.9889,4.969,4.9557,4.8997,4.8788,4.9076,4.8788,4.9154,5.0357,4.9808,5.0002,5.1204,5.0958,5.1047,5.1596,5.1596,5.1596,5.1596,5.1596,5.1596,4.1311,4.2762,4.3938,4.4069,4.5755,4.7414,4.7504,4.6996,4.6644,4.7193,4.7623,4.8262,4.9468,5.1089,5.2798,5.4602,5.5229,5.5787,5.6693,5.7442,5.82,5.9107,5.9194,5.9351,5.9759,6.0334,6.0509,6.0065,6.0125,5.996,5.9421,5.8959,5.8653,5.8505,5.8505,5.8505,5.8505,5.8505,5.8363,5.8034,5.8337,5.8287,5.7861,5.7137,5.6408,5.5709,5.5449,5.5086,5.4697,5.5138,5.5238,5.5099,5.5099,5.4942,5.4628,5.4027,5.2955,5.1852,5.2214,5.2024,5.1598,5.1333,5.1176,5.1032,5.1032,5.0907,5.0725,5.0725,5.0397,5.0024,4.9857,4.9767,4.9735,4.9815,4.9703,4.9622,4.9687,4.9703,4.9703,4.9703,5.004,5.0327,5.0327,5.055,5.0725,5.0725,5.0725,5.0725,5.0725,5.0778,5.073,5.0452,5.0431,5.0264,4.9934,4.9651,4.9494,4.9494,4.8945,4.9206,5.054,5.0017,5.0304,5.157,5.1204,5.1178,5.1596,5.1596,5.1596,5.1596,5.1596,5.1596,4.2265,4.3363,4.4003,4.4525,4.4799,4.5518,4.7649,4.7272,4.7089,4.9232,4.9703,5.0054,5.1204,5.2825,5.4079,5.4236,5.5605,5.6719,5.678,0.0,5.8453,5.8575,5.8557,5.8583,5.8609,5.9168,5.95,5.9473,5.9908,5.996,5.9421,5.9369,5.9089,5.8505,5.8505,5.8505,5.8505,5.8505,5.8505,5.8469,5.8505,5.8479,5.84,5.7303,5.678,5.6641,5.5588,5.5091,5.5065,5.5101,5.5091,5.5099,5.5099,5.4445,5.3452,5.2825,5.2537,5.2511,5.3096,5.3263,5.3221,5.3204,5.2813,5.2369,5.2369,5.174,5.1057,5.1057,5.1206,5.1216,5.0678,5.0295,5.0136,5.0445,5.0056,4.9687,5.0017,5.0065,5.0065,5.0065,5.0582,5.1025,5.1025,5.1057,5.1057,5.1057,5.1057,5.1057,5.1057,5.1356,5.1325,5.0807,5.0755,5.0535,4.9949,5.0383,5.067,5.067,5.0121,4.9819,4.9965,5.089,5.1465,5.1596,5.157,5.157,5.1596,5.1596,5.1596,5.1596,5.1596,5.1596,4.1599,4.3428,4.5009,4.5217,4.6067,4.7205,4.8474,4.9232,5.0121,5.1727,5.2067,5.2197,5.2642,5.3243,5.3922,5.4654,5.5595,5.651,5.7259,5.8026,5.8505,5.8505,5.8505,5.8505,5.8505,5.9063,5.9395,5.9395,5.9586,5.9612,5.9421,5.9037,5.8732,5.8505,5.8505,5.8505,5.8505,5.8505,5.8505,5.8505,5.8505,5.834,5.7991,5.7547,5.6945,5.6275,5.6579,5.6109,5.5151,5.5857,5.5752,5.5072,5.468,5.4079,5.34,5.353,5.3347,5.3138,5.3687,5.3687,5.34,5.34,5.2981,5.2485,5.2485,5.2233,5.1981,5.1981,5.2302,5.2463,5.1434,5.1072,5.0991,5.1136,5.0678,5.0264,5.0391,5.0423,5.0423,5.0423,5.0788,5.1104,5.1104,5.1277,5.1393,5.1393,5.1393,5.1393,5.1393,5.1518,5.1518,5.1324,5.1282,5.1073,5.0514,5.067,5.0644,5.0278,5.0043,5.0211,5.0917,5.1063,5.1256,5.1596,5.1596,5.1596,5.1596,5.1596,5.1596,5.1596,5.1596,5.1596,4.1625,4.3428,4.5205,4.5754,4.6917,4.825,4.9599,5.0644,5.1831,5.3583,5.3635,5.3347,5.3138,5.3269,5.3661,5.4445,5.5308,5.6249,5.7259,5.7913,5.8314,5.8479,5.8505,5.8505,5.8505,5.9063,5.9395,5.9395,5.9717,5.9769,5.9421,5.9176,5.8871,5.8505,5.8505,5.8505,5.8505,5.8505,5.8505,5.8505,5.8505,5.8314,5.7939,5.7773,5.725,5.6484,5.7129,5.6736,5.5674,5.6275,5.5961,5.502,5.4262,5.3818,5.3687,5.387,5.3818,5.3739,5.4288,5.4236,5.3949,5.3949,5.353,5.3034,5.3034,5.2929,5.2772,5.2772,5.3191,5.3459,5.2573,5.2129,5.1901,5.1817,5.1483,5.1056,5.0792,5.0917,5.0994,5.0798,5.1041,5.1262,5.1262,5.144,5.1596,5.1596,5.1596,5.1596,5.1596,5.1596,5.1596,5.1596,5.1596,5.1439,5.1073,5.1063,5.088,5.0446,5.0618,5.0917,5.1335,5.1167,5.1246,5.1596,5.1596,5.1596,5.1596,5.1596,5.1596,5.1596,5.1596,5.1596,4.2696,4.3441,4.433,4.6083,4.6929,4.8091,5.0969,5.1204,5.1622,5.4497,5.421,5.3217,5.2616,5.3008,5.34,5.34,5.4811,5.6101,5.6719,5.7312,5.7904,5.8444,5.8505,5.8505,5.8505,5.9063,5.9395,5.9395,6.0457,6.0588,5.9473,5.9908,5.9655,5.8531,5.8505,5.8505,5.8505,5.8505,5.8505,5.8505,5.8505,5.8505,5.8479,5.7939,5.7695,5.7669,5.7059,5.6824,5.6754,5.617,5.5595,5.4994,5.3844,5.3739,5.4131,5.3583,5.3739,5.4288,5.4889,5.5099,5.5099,5.5099,5.4707,5.421,5.421,5.3818,5.34,5.34,5.3792,5.421,5.421,5.3531,5.278,5.2562,5.2414,5.2102,5.13,5.1602,5.1825,5.1249,5.1387,5.1596,5.1596,5.1596,5.1596,5.1596,5.1596,5.1596,5.1596,5.1596,5.1596,5.1596,5.1596,5.1596,5.1596,5.1596,5.1596,5.1596,5.2171,5.1988,5.0838,5.1324,5.1596,5.1596,5.1596,5.1596,5.1596,5.1596,5.1596,5.1596,5.1596,5.1596,4.2461,4.4043,4.5938,4.6825,4.902,5.1293,5.2563,5.2746,5.3086,5.4759,5.4497,5.3896,5.3739,5.353,5.353,5.3896,5.4733,5.5543,5.6092,5.705,5.7747,5.793,5.8261,5.8505,5.8505,5.9063,5.9395,5.9395,5.9717,5.9743,5.9421,5.915,5.8845,5.8505,5.8505,5.8505,5.8505,5.8505,5.8505,5.8505,5.8505,5.8314,5.7939,5.8157,5.7817,5.7085,5.7739,5.7538,5.6798,5.6597,5.6196,5.5569,5.4419,5.4053,5.4131,5.3583,5.3739,5.4288,5.4889,5.5099,5.5099,5.5099,5.4707,5.421,5.421,5.4105,5.3949,5.3949,5.4393,5.4837,5.4837,5.4624,5.4287,5.3828,5.3384,5.2994,5.2753,5.2524,5.2289,5.2117,5.1821,5.1596,5.1596,5.1596,5.1596,5.1596,5.1596,5.1596,5.1596,5.1596,5.1596,5.1596,5.1596,5.1596,5.1596,5.1596,5.1779,5.2197,5.2406,5.2145,5.1387,5.2328,5.2459,5.1622,5.2014,5.2014,5.1596,5.1596,5.1596,5.1596,5.1596,5.1596,4.399,4.5677,4.7533,4.8994,5.0969,5.2772,5.3844,5.4079,5.4262,5.4968,5.4628,5.421,5.421,5.3949,5.3818,5.4158,5.4707,5.536,5.6144,5.6876,5.7495,5.7965,5.8314,5.8505,5.8505,5.8836,5.9037,5.9037,5.9264,5.9317,5.9063,5.8915,5.8758,5.8505,5.8505,5.8505,5.8505,5.8505,5.8505,5.8505,5.8505,5.834,5.8017,5.8366,5.8113,5.7512,5.8191,5.8,5.7155,5.7155,5.6667,5.583,5.4916,5.4419,5.4131,5.3583,5.3609,5.3949,5.455,5.4733,5.4785,5.502,5.4863,5.455,5.455,5.455,5.455,5.455,5.4811,5.5099,5.5099,5.5099,5.4942,5.4341,5.4131,5.3949,5.3504,5.3269,5.3112,5.2903,5.2563,5.2318,5.2318,5.2119,5.1962,5.1962,5.1753,5.1596,5.1596,5.1596,5.1596,5.1596,5.1596,5.1596,5.1596,5.1596,5.1858,5.2459,5.2485,5.2433,5.2328,5.2772,5.2589,5.1622,5.1962,5.1962,5.1596,5.1596,5.1596,5.1596,5.1596,5.1596,4.6419,4.7661,4.8893,5.1779,5.2616,5.3138,5.4733,5.5099,5.5099,5.5099,5.4654,5.4288,5.4288,5.4288,5.4288,5.4288,5.4733,5.5491,5.6588,5.6771,5.7198,5.8314,5.8453,5.8505,5.8505,5.8531,5.8583,5.8583,5.9089,5.9168,5.8627,5.9063,5.9063,5.8505,5.8505,5.8505,5.8505,5.8505,5.8505,5.8505,5.8505,5.8505,5.8505,5.8505,5.8505,5.8505,5.8505,5.8209,5.7773,5.7773,5.7129,5.6075,5.5438,5.4837,5.4288,5.3635,5.34,5.3478,5.3949,5.4158,5.4288,5.4837,5.5072,5.5099,5.5099,5.5099,5.5099,5.5099,5.5099,5.5099,5.5099,5.5099,5.4968,5.4419,5.4707,5.4811,5.3766,5.3844,5.3975,5.3504,5.3347,5.3295,5.3243,5.2825,5.2485,5.2433,5.1988,5.1675,5.1675,5.1675,5.1675,5.1675,5.1622,5.1596,5.1596,5.1596,5.1858,5.2459,5.2485,5.2772,5.3373,5.2877,5.2302,5.1675,5.1727,5.1701,5.1596,5.1648,5.1648,5.1596,5.1596,5.1596,4.5661,4.706,4.8893,5.1779,5.353,5.4654,5.502,5.5099,5.5099,5.5099,5.4994,5.4916,5.4916,5.4916,5.4916,5.4916,5.502,5.5334,5.6013,5.6493,5.7059,5.7782,5.8235,5.8505,5.8505,5.8933,5.9194,5.9194,5.9343,5.9343,5.9194,5.8862,5.8627,5.8505,5.8505,5.8505,5.8505,5.8505,5.8505,0.0,5.8505,5.8505,5.8505,5.8505,5.8505,5.8505,5.8505,5.8427,5.834,5.834,5.8183,5.7773,5.6327,5.5647,5.536,5.3922,5.34,5.3426,5.353,5.3844,5.421,5.4367,5.4707,5.5099,5.5099,5.5099,5.5099,5.5099,5.5099,5.5099,5.5099,5.5099,5.5072,5.4942,5.502,5.502,5.4785,5.4131,5.353,5.3426,5.3008,5.2537,5.2067,5.2276,5.2328,5.1858,5.2093,5.2318,5.2318,5.2318,5.2318,5.2318,5.1884,5.1596,5.1596,5.1596,5.1858,5.2459,5.2485,5.2772,5.3373,5.3269,5.2929,5.2328,5.2772,5.2537,5.1596,5.2067,5.2067,5.1596,5.1596,5.1596,4.6302,4.7911,4.9782,5.2955,5.4419,5.502,5.4733,5.4889,5.502,5.4733,5.4916,5.5099,5.5099,5.5308,5.5491,5.5491,5.5726,5.6118,5.6684,5.7024,5.7442,5.8017,5.834,5.8505,5.8505,5.8784,5.8985,5.8985,5.8985,5.8985,5.8985,5.8679,5.8505,5.8505,5.8505,5.8505,5.8505,5.8505,5.8505,5.8505,5.8505,5.8505,5.8505,5.8505,5.8505,5.8505,5.8505,5.8505,5.8505,5.8505,5.834,5.8044,5.7129,5.6249,5.5386,5.421,5.3426,5.2955,5.2955,5.3138,5.3426,5.3713,5.4027,5.4288,5.4288,5.4471,5.4628,5.4367,5.4471,5.4602,5.4367,5.4288,5.4288,5.4288,5.4707,5.5099,5.5099,5.4628,5.421,5.421,5.3949,5.3635,5.3321,5.3295,5.3112,5.2537,5.272,5.2929,5.2929,5.2929,5.2929,5.2929,5.238,5.2145,5.2433,5.1936,5.1962,5.2877,5.2668,5.2877,5.3739,5.353,5.3243,5.2929,5.3243,5.2955,5.2014,5.2354,5.2197,5.1596,5.1596,5.1596,4.6761,4.8866,5.0958,5.4158,5.502,5.4942,5.4341,5.4733,5.5072,5.4471,5.4759,5.5125,5.5229,5.5595,5.5918,5.604,5.6467,5.7007,5.7617,5.7695,5.7904,5.8444,5.8505,5.8505,5.8505,5.8505,5.8505,5.8505,5.8505,5.8505,5.8505,5.8505,5.8505,5.8505,5.8505,5.8505,5.8505,5.8505,5.8505,5.8505,5.8505,5.8505,5.8505,5.8505,5.8505,5.8505,5.8505,5.8505,5.8505,5.8505,5.8235,5.7826,5.7747,5.6832,5.5465,5.4759,5.3766,5.2772,5.2694,5.2589,5.2589,5.3086,5.3321,5.34,5.34,5.3713,5.3975,5.353,5.3713,5.3949,5.3504,5.34,5.34,5.34,5.4131,5.4811,5.4811,5.4733,5.4654,5.4654,5.4654,5.4707,5.4916,5.4445,5.3922,5.3478,5.3478,5.353,5.353,5.353,5.353,5.353,5.3008,5.2851,5.3347,5.2485,5.2328,5.3347,5.2929,5.3112,5.4158,5.3766,5.353,5.353,5.3452,5.3034,5.2328,5.2433,5.2197,5.1596,5.1596,5.1596,4.4773,4.8184,5.1858,5.3818,5.4707,5.4942,5.4341,5.502,5.5647,5.5099,5.5046,5.5255,5.5726,5.584,5.6075,5.6571,5.6745,5.7007,5.7617,5.7695,5.7904,5.8444,5.8505,5.8505,5.8505,5.8505,5.8505,5.8505,5.8505,5.8505,5.8505,5.8505,5.8505,5.8505,5.8505,5.8505,5.8505,5.8505,5.8505,5.8505,5.8505,5.8505,5.8505,5.8505,5.8505,5.8505,5.8505,5.8505,5.8505,5.8505,5.8453,5.834,5.7861,5.7564,5.7224,5.6092,5.4968,5.3896,5.3452,5.2929,5.2511,5.2589,5.2981,5.34,5.34,5.3452,5.3478,5.3426,5.3452,5.3478,5.3426,5.34,5.34,5.34,5.3504,5.3635,5.3635,5.3217,5.2851,5.2851,5.2851,5.3164,5.4158,5.387,5.3478,5.34,5.3792,5.4105,5.4105,5.4105,5.4105,5.4105,5.3609,5.3295,5.34,5.3243,5.3217,5.34,5.3321,5.3556,5.4184,5.4131,5.4105,5.4105,5.3635,5.2851,5.1727,5.225,5.2197,5.1596,5.1596,5.1596,4.5898,4.8616,5.1204,5.3609,5.4393,5.4445,5.387,5.4367,5.4889,5.4654,5.4863,5.536,5.6232,5.6388,5.6615,5.7207,5.7556,5.7843,5.8122,5.8148,5.8235,5.8453,5.8505,5.8505,5.8505,5.8505,5.8505,5.8505,5.8505,5.8505,5.8505,5.8505,5.8505,5.8505,5.8505,5.8505,5.8505,5.8505,5.8505,5.8505,5.8505,5.8505,5.8505,5.8505,5.8505,5.8505,5.8505,5.8505,5.8505,5.8505,5.8505,5.8479,5.8235,5.7965,5.7564,5.6353,5.5177,5.4079,5.3191,5.2485,5.1988,5.1988,5.2171,5.238,5.238,5.2616,5.2825,5.2485,5.2642,5.2825,5.2485,5.238,5.238,5.238,5.238,5.238,5.238,5.272,5.3008,5.3008,5.3008,5.3164,5.3661,5.3556,5.3504,5.3792,5.4053,5.4314,5.4654,5.4707,5.4707,5.4707,5.4184,5.4001,5.4314,5.3766,5.353,5.3818,5.3556,5.3504,5.3739,5.3739,5.3583,5.3243,5.3635,5.3269,5.2093,5.238,5.2197,5.1596,5.1596,5.1596,4.6173,4.8056,4.9729,5.2616,5.3661,5.3896,5.3478,5.3922,5.4393,5.4236,5.4785,5.5674,5.6824,5.7033,5.7233,5.7826,5.8235,5.8505,5.8505,5.8505,5.8505,5.8505,5.8505,5.8505,5.8505,5.8653,5.8732,5.8732,5.8732,5.8732,5.8732,5.8732,5.8732,5.8732,5.8845,5.8871,5.8732,5.8583,5.8505,5.8505,5.8505,5.8505,5.8505,5.8505,5.8505,5.8505,5.8505,5.8505,5.8505,5.8505,5.8505,5.8479,5.834,5.8044,5.7564,5.651,5.5308,5.4079,5.3217,5.2354,5.1596,5.1596,5.1596,5.1596,5.1596,5.191,5.2171,5.1727,5.191,5.2171,5.1727,5.1596,5.1596,5.1596,5.1596,5.1596,5.1596,5.2302,5.2981,5.3138,5.3164,5.3217,5.3373,5.34,5.353,5.3949,5.4001,5.4158,5.4602,5.4785,5.4863,5.4863,5.4602,5.455,5.4863,5.4079,5.3713,5.3975,5.3739,5.3609,5.3609,5.3739,5.3478,5.2746,5.3556,5.3426,5.2276,5.2276,5.204,5.1596,5.1596,5.1596,4.3624,4.5377,4.7376,5.0252,5.2239,5.3426,5.34,5.4262,5.4889,5.4314,5.5082,5.6223,5.7433,5.7643,5.7826,5.8366,5.8479,5.8505,5.8505,5.8505,5.8505,5.8505,5.8505,5.8505,5.8505,5.9011,5.9343,5.9343,5.9343,5.9343,5.9343,5.9343,5.9343,5.9343,5.9856,5.9882,5.9369,5.8784,5.8505,5.8505,5.8505,5.8505,5.8505,5.8505,5.8505,5.8505,5.8505,5.8505,5.8505,5.8505,5.8505,5.8453,5.7939,5.7721,5.7617,5.6981,5.5674,5.4184,5.4131,5.3008,5.1596,5.1596,5.1596,5.1596,5.1596,5.1622,5.1622,5.1596,5.1622,5.1622,5.1596,5.1596,5.1596,5.1596,5.1596,5.1596,5.1596,5.1648,5.1858,5.2433,5.2537,5.272,5.3295,5.34,5.34,5.3426,5.3452,5.3452,5.3478,5.3922,5.4262,5.4262,5.4733,5.4837,5.4288,5.4184,5.3949,5.3478,5.3896,5.4158,5.4158,5.4707,5.4497,5.3373,5.34,5.2851,5.1648,5.1648,5.1622,5.1596,5.1596,5.1596,4.3441,4.4605,4.6055,4.8997,5.0984,5.2354,5.272,5.3426,5.4158,5.468,5.5099,5.5752,5.6902,5.746,5.7878,5.84,5.8505,5.8505,5.8505,5.8505,5.8505,5.8505,5.8505,5.8505,5.8505,5.8706,5.881,5.881,5.881,5.881,5.881,5.9194,5.9395,5.9395,5.9908,5.9934,5.9421,5.881,5.8505,5.8505,5.8505,5.8505,5.8505,5.8505,5.8505,5.8505,5.8505,5.8505,5.8505,5.8505,5.8505,5.8444,5.7904,5.7695,5.7564,5.6588,5.536,5.4158,5.3818,5.2772,5.1596,5.1596,5.1596,5.1596,5.1596,5.1596,5.1596,5.1596,5.1596,5.1596,5.1596,5.1596,5.1596,5.1596,5.1596,5.1596,5.1596,5.1596,5.1648,5.1884,5.191,5.1988,5.2197,5.225,5.238,5.2746,5.2825,5.2955,5.3347,5.3556,5.3687,5.3687,5.387,5.3922,5.3687,5.3687,5.3609,5.34,5.3583,5.3687,5.3687,5.3896,5.3818,5.34,5.3008,5.2406,5.1596,5.1596,5.1596,5.1596,5.1596,5.1596,4.267,4.3572,4.4891,4.803,4.9479,5.0681,5.2642,5.2929,5.3164,5.4524,5.4968,5.5386,5.6327,5.6981,5.7573,5.8131,5.8392,5.8505,5.8505,5.8505,5.8505,5.8505,5.8505,5.8505,5.8505,5.8679,5.881,5.881,5.881,0.0,5.881,5.9333,5.9769,5.9952,6.0326,6.0143,5.9421,5.9011,5.8706,5.8505,5.8505,5.8505,5.8505,5.8505,5.8505,5.8505,5.8505,5.8505,5.8479,5.8314,5.834,5.8444,5.7704,5.739,5.7285,5.6275,5.5177,5.4131,5.3583,5.2746,5.1858,5.1675,5.1596,5.1596,5.1596,5.1596,5.1596,5.1596,5.1596,5.1596,5.1596,5.1596,5.1596,5.1596,5.1596,5.1596,5.1596,5.1596,5.1596,5.1596,5.1596,5.1596,5.1596,5.1596,5.1727,5.2145,5.2197,5.2328,5.2746,5.2981,5.3164,5.3373,5.34,5.34,5.34,5.3217,5.3008,5.2798,5.2981,5.3191,5.34,5.3556,5.3661,5.3661,5.3086,5.2511,5.191,5.1701,5.1596,5.1596,5.1805,5.191,0.0,0.0,0.0,4.7219,4.7661,4.8456,5.2992,5.2746,5.204,5.3818,5.4654,5.5229,5.5761,5.6362,5.6981,5.7564,5.8122,5.8479,5.8505,5.8505,5.8505,5.8505,5.8505,5.8505,5.8505,5.9037,5.9369,5.9369,5.9369,5.9369,5.9369,5.9908,6.0491,6.1118,6.1092,6.0535,5.9421,5.9395,5.9089,5.8505,5.8505,5.8505,5.8505,5.8505,5.8505,5.8505,5.8505,5.8479,5.8444,5.7913,5.7991,5.8348,5.7225,5.678,5.6702,5.6118,5.5177,5.4079,5.3583,5.2981,5.238,5.1779,5.1596,5.1596,5.1596,5.1596,5.1596,5.1596,5.1596,5.1596,5.1596,5.1596,5.1596,5.1596,5.1596,5.1596,5.1596,5.1596,5.1596,5.1596,5.1596,5.1596,5.1596,5.1596,5.1596,5.1596,5.1596,5.1596,5.1596,5.2119,5.2694,5.3269,5.3347,5.3347,5.3373,5.2825,5.225,5.1675,5.2223,5.2798,5.34,5.3949,5.4236,5.4236,5.3687,5.3138,5.2537,5.191,5.1596,5.1622,5.2197,5.2459,4.1259,0.0,0.0,0.0,0.0,0.0,4.9938,5.0435,5.0984,5.3164,5.3739,5.4158,5.5151,5.6144,5.6719,5.6432,5.7259,5.807,5.8444,5.8505,5.8505,5.8505,5.8505,5.8505,5.8505,5.8653,5.8758,0.0,5.8758,5.8758,5.8758,5.9655,6.0692,6.173,6.0883,6.0308,5.9986,5.915,5.8679,5.8505,5.8505,5.8505,5.8505,5.8505,5.8505,5.8505,5.8505,5.8287,5.7904,5.7773,5.78,5.7834,5.7085,5.6536,5.6144,5.5944,5.4654,5.3008,5.3295,5.272,5.1831,5.1648,5.1596,5.1596,5.1596,5.1596,5.1596,5.1596,5.1596,5.1596,5.1596,5.1596,5.1596,5.1596,5.1596,5.1596,5.1596,5.1596,5.1596,5.1596,5.1596,5.1596,5.1596,5.1596,5.1596,5.1596,5.1596,5.1596,5.1596,5.1753,5.191,5.2067,5.2093,5.2276,5.272,5.2589,5.2616,5.2877,5.3426,5.3792,5.3975,5.455,5.4863,5.4863,5.4288,5.3713,5.3138,5.2093,5.1596,5.1596,5.1779,5.1858,4.1611,4.1912,4.2643,4.4514,0.0,0.0,4.9416,4.9834,5.0304,5.2877,5.3583,5.3949,5.4602,5.5465,5.6066,5.5935,5.6693,5.7521,5.8096,5.8366,5.8505,5.8505,5.8505,5.8505,5.8505,5.8505,5.8505,5.8505,5.8505,5.8714,5.9184,5.9838,6.0621,6.1581,6.1189,6.0588,5.9856,5.9437,5.8975,5.8505,5.8505,5.8505,5.8479,5.8261,5.8174,5.8174,5.8174,5.7704,5.6972,5.7207,5.7486,5.7643,5.7033,5.6588,5.6275,5.6275,5.5125,5.3556,5.3452,5.2929,5.2276,5.1753,5.1596,5.1596,5.1596,5.1596,5.1596,5.1596,5.1596,5.1596,5.1596,5.1596,5.1596,5.1596,5.1596,5.1596,5.1596,5.1596,5.1596,5.1596,5.1596,5.1596,5.1596,5.1596,5.1596,5.1596,5.1596,5.1596,5.1596,5.1596,5.1701,5.1936,5.1753,5.1831,5.2433,5.2485,5.2642,5.3008,5.3556,5.3975,5.4184,5.455,5.4837,5.5099,5.4497,5.4216,5.4187,5.2691,5.1962,5.1962,5.1727,5.1727,4.216,4.2369,4.3075,4.5586,4.5194,0.0,4.9897,4.9819,4.9599,5.2354,5.3295,5.3687,5.387,5.4419,5.4968,5.5422,5.6127,5.6876,5.759,5.8157,5.8505,5.8505,5.8505,5.8505,5.8505,5.8505,5.8505,5.8505,5.8505,5.9001,6.0151,6.0203,6.0517,6.117,6.1678,6.1103,5.9482,5.9908,5.9576,5.8505,5.8505,5.8453,5.8392,5.7965,5.7747,5.7695,5.7695,5.705,5.604,5.651,5.7007,5.746,5.6902,5.665,5.6641,5.6693,5.5935,5.4785,5.3818,5.3452,5.3217,5.2145,5.1753,5.1701,5.1701,5.1648,5.1596,5.1596,5.1596,5.1596,5.1596,5.1596,5.1596,5.1596,5.1596,5.1596,5.1596,5.1596,5.1596,5.1596,5.1596,5.1596,5.1596,5.1596,5.1596,5.1596,5.1596,5.1596,5.1596,5.1596,5.1831,5.2433,5.2014,5.1962,5.2642,5.2694,5.272,5.2772,5.343,5.4036,5.4492,5.4518,5.4781,5.5306,5.4728,5.474,5.5387,5.3587,5.2786,5.2918,5.2155,5.2051,4.2944,4.3506,4.4238,4.4369,0.0,0.0,4.6642,4.6891,4.7559,4.952,5.0017,5.0514,5.1858,5.2589,5.3034,5.3138,5.4445,5.5961,5.7486,5.8157,5.8505,5.8505,5.8505,5.8505,5.8505,5.8505,5.8505,5.8505,5.8505,5.9001,6.0151,6.0203,6.0718,6.1782,6.1476,6.0875,6.0065,5.9717,5.922,5.8505,5.8505,5.8261,5.7878,5.8183,5.8122,5.7695,5.7695,5.7285,5.6615,5.6223,5.6144,5.6249,5.6118,5.583,5.5491,5.5935,5.5072,5.3766,5.3975,5.3766,5.3347,5.3128,5.272,5.2328,5.2328,5.1988,5.1596,5.1596,5.1596,5.1596,5.1596,5.1596,5.1596,5.1596,5.1596,5.1596,5.1596,5.1596,5.1596,5.1596,5.1596,5.1596,5.1596,5.1596,5.1596,5.1596,5.1596,5.1596,5.1596,5.1596,5.1831,5.2433,5.238,5.2746,5.3792,5.387,5.4079,5.455,5.5711,5.6434,5.6542,5.6542,5.6596,5.6704,5.6127,5.5893,5.6027,5.4684,5.4574,5.5609,5.3918,5.2928,4.3951,4.4251,4.4787,4.5101,0.0,0.0,0.0,4.7127,4.7847,4.9599,4.9703,4.9893,5.1158,5.1763,5.2202,5.2642,5.4059,5.5412,5.6292,5.7111,5.7643,5.7643,5.7643,5.7643,5.7643,5.7921,5.8209,5.8479,5.8505,5.8889,5.9751,6.0047,6.0621,6.1529,6.1249,6.0804,6.0203,5.9665,5.9089,5.8505,5.8505,5.8366,5.8096,5.8096,5.7939,5.7695,5.7695,5.7364,5.6798,5.6467,5.617,5.5909,5.5909,5.5752,5.5526,5.5787,5.5203,5.4236,5.421,5.4027,5.3739,5.3478,5.2981,5.2485,5.2485,5.2067,5.1877,5.3146,5.2566,5.1752,5.2392,5.2068,5.1596,5.1596,5.1596,5.1596,5.1596,5.1596,5.1596,5.1596,5.1596,5.1596,5.1596,5.1596,5.1596,5.1596,5.1596,5.1596,5.1596,5.1858,5.2171,5.2459,5.2772,5.3191,5.3739,5.4053,5.461,5.5593,5.6558,5.7386,5.8088,5.7451,5.7108,5.7108,5.6783,5.7319,5.8661,5.7703,5.6946,5.6385,5.5408,5.4444,0.0,0.0,0.0,0.0,0.0,4.7272,0.0,0.0,0.0,0.0,4.974,4.9639,5.0462,5.0877,5.1361,5.2046,5.3446,5.4419,0.0,5.5412,0.0,5.6588,5.6745,5.6798,5.6798,5.705,5.7468,5.8113,5.8061,5.8366,5.9168,5.9751,6.0326,6.0909,6.0935,6.0648,6.0065,5.9612,5.9089,5.8505,5.8505,5.8444,5.834,5.814,5.8086,5.8095,5.8248,5.7896,5.72,5.7095,5.653,5.5769,5.6029,5.613,5.613,5.613,5.5857,5.5386,5.4649,5.4367,5.4314,5.387,5.3243,5.2689,5.2812,5.2444,5.2392,5.4456,5.3556,5.2145,5.2933,5.2377,5.1596,5.1596,5.1596,5.17,5.2086,5.1956,5.1847,5.2112,5.1941,5.1727,5.1622,5.1596,5.1596,5.1596,5.1596,5.1648,5.1753,5.2197,5.2589,5.2798,5.3164,5.3591,5.4076,5.4408,5.521,5.6654,5.7463,5.8372,5.9436,5.8312,5.7628,5.7483,5.7612,5.8797,6.1106,6.069,5.9392,5.7305,5.6913,5.5974,0.0,0.0,0.0,0.0,4.8367,0.0,0.0,0.0,0.0,4.7673,0.0,4.7803,4.8416,0.0,0.0,0.0,0.0,0.0,5.1988,5.3034,5.4341,5.583,5.6467,5.6798,5.6798,5.5961,5.583,5.6911,5.6493,5.6902,5.8523,5.9168,5.9743,6.0282,6.0308,6.0039,5.95,5.9421,5.9089,5.8505,5.8505,5.8261,5.7835,5.8948,5.9508,5.9606,6.0264,5.9824,5.8629,5.8138,5.6867,5.5294,5.6513,5.6974,5.6974,5.6974,5.692,5.6688,5.5426,5.4994,5.4994,5.4942,5.4184,5.3416,5.4003,5.3754,5.3344,5.3646,5.3525,5.3055,5.2068,5.1721,5.1596,5.1596,5.1596,5.2086,5.3805,5.3252,5.276,5.3943,5.3194,5.2223,5.1675,5.1596,5.1596,5.1596,5.1596,5.1779,5.2328,5.2459,5.2877,5.3896,5.3635,5.4285,5.6472,5.6249,5.6756,5.8659,5.9959,6.0716,6.0867,6.0154,5.9479,5.8865,5.9463,6.0213,6.1106,6.1612,6.1433,6.052,5.8808,5.7033,0.0,0.0,0.0,0.0,0.0,0.0,4.7794,0.0,4.7879,0.0,0.0,0.0,0.0,0.0,0.0,0.0,5.0313,0.0,0.0,0.0,5.2877,5.4288,0.0,0.0,5.5752,5.5072,5.5203,5.6693,5.5961,5.6196,5.7939,5.8567,5.9124,5.9717,5.9743,5.9612,5.9395,5.9063,5.8758,5.8505,5.8505,5.8824,5.9403,5.996,6.0708,6.1542,6.1473,6.1096,6.0451,5.8685,5.7955,5.7829,5.7325,5.6607,5.5941,5.5941,5.5941,5.5858,5.5315,5.5099,5.5127,5.516,5.4832,5.4638,5.5702,5.536,5.4752,5.5443,5.4607,5.3389,5.2842,5.2145,5.1799,5.2546,5.3002,5.3697,5.5268,5.4847,5.434,5.4906,5.3649,5.2406,5.2171,5.2119,5.1988,5.1648,5.2836,5.3453,5.2622,5.3768,5.4528,5.424,5.4001,5.4433,5.5828,5.5386,5.604,5.8378,6.0501,6.1498,6.1122,6.0816,6.0547,6.0262,6.0546,6.1188,6.2248,6.1745,6.1194,6.0492,5.9278,5.7696,4.7426,0.0,0.0,0.0,0.0,0.0,0.0,0.0,0.0,0.0,0.0,0.0,0.0,0.0,0.0,0.0,0.0,5.0514,0.0,5.0801,0.0,0.0,0.0,0.0,0.0,5.3818,5.4053,5.5961,5.5046,5.522,5.712,5.7887,5.8488,5.8924,5.9081,5.9142,5.9142,5.9113,5.907,5.907,5.949,6.02,6.1216,6.1395,6.2191,6.337,6.3068,6.2634,6.1961,6.0081,5.9236,5.8987,5.7614,5.652,5.5654,5.5654,5.5875,5.6127,5.5776,5.5891,5.6114,5.5602,5.5582,5.5952,5.7111,5.6738,5.6007,5.6565,5.5399,5.3934,5.3601,5.2811,5.2454,5.3709,5.4535,5.5318,5.6401,5.6099,5.5624,5.5624,5.4333,5.3181,5.3065,5.3028,5.2764,5.1978,5.3551,5.434,5.2937,5.4015,5.4671,5.4063,5.3969,5.4363,5.5324,5.5026,5.5817,5.8226,6.0374,6.1335,6.0838,6.0838,6.1014,6.1365,6.1189,6.1674,6.2824,6.1672,6.0655,5.9801,5.9129,5.7872,0.0,0.0,0.0,4.9363,0.0,0.0,0.0,0.0,4.9531,0.0,0.0,0.0,0.0,0.0,0.0,0.0,0.0,0.0,0.0,0.0,0.0,0.0,0.0,0.0,0.0,5.191,5.1831,0.0,5.3217,5.3583,5.5857,5.7076,5.7721,5.7747,5.8261,5.8531,5.8531,5.9864,6.0517,6.0551,6.1991,6.2691,6.2745,6.3466,6.4173,6.4883,6.5564,6.4745,6.2964,6.286,6.0602,5.7184,5.7124,5.7076,5.7044,5.7044,5.7865,5.8784,5.7483,5.7897,5.8641,5.6709,5.656,5.7233,5.7873,5.7639,5.692,5.5776,5.5412,5.5047,5.3814,5.348,5.3754,5.5032,5.5846,5.6494,5.7039,5.666,5.6163,5.6163,5.5607,5.496,5.4449,5.439,5.3999,5.2683,5.3143,5.3595,5.3401,5.2415,5.2182,5.3311,5.3428,5.416,5.6017,5.6208,5.7037,5.8964,5.9774,6.0146,6.0135,6.0135,6.0749,6.2034,6.1422,6.1451,6.2121,6.1419,6.0402,5.9129,5.8444,5.7453,0.0,0.0,5.0226,5.0226,0.0,0.0,0.0,0.0,0.0,0.0,0.0,0.0,0.0,0.0,0.0,0.0,0.0,0.0,0.0,0.0,0.0,0.0,0.0,5.2354,0.0,0.0,5.2119,5.4053,5.3138,0.0,5.5778,5.6667,5.7285,5.7695,5.8209,5.8505,5.8505,5.8965,5.969,6.0603,6.1114,6.2331,6.4194,6.4441,6.5196,6.6277,6.6083,6.5366,6.423,6.2882,6.1847,6.0897,5.9111,5.8983,5.9527,5.7754,5.7961,5.9033,5.858,5.8721,5.8989,5.8324,5.8261,5.8493,5.8688,5.8604,5.8207,5.6949,5.6021,5.5309,5.4856,5.4461,5.4688,5.6763,5.8103,5.9202,6.0224,5.9218,5.8383,5.9264,5.7508,5.5936,5.6209,5.6623,5.6383,5.4661,5.4917,5.5125,5.4647,5.4623,5.46,5.4521,5.4198,5.4392,5.538,5.632,5.7281,5.8371,5.9069,5.9847,6.0745,5.9907,5.9847,6.0759,6.0535,6.0549,6.0759,6.0116,5.9325,5.8427,5.7334,5.6598,5.0781,5.1376,0.0,5.2095,5.1655,0.0,4.9955,0.0,0.0,0.0,0.0,0.0,0.0,0.0,0.0,0.0,0.0,0.0,0.0,4.871,0.0,0.0,5.0734,5.1622,5.2406,5.1975,5.2343,5.406,5.3345,5.3646,0.0,5.6379,5.7195,5.8105,5.8856,5.9245,5.9245,6.0252,6.0978,6.1402,6.2397,6.3854,6.5653,6.5653,6.6017,6.664,6.643,6.5697,6.4591,6.3754,6.3015,6.2248,6.0705,6.0539,6.0821,5.8611,5.8643,5.9819,5.9819,6.0125,6.038,5.9421,5.9422,5.9763,5.9524,5.9279,5.8885,5.7844,5.6823,5.6107,5.6334,5.6105,5.6383,5.868,6.0059,6.0837,6.0721,6.0022,5.9347,5.9026,5.7652,5.6652,5.7094,5.7526,5.7252,5.5595,5.5879,5.6021,5.5324,5.5234,5.5128,5.4887,5.4502,5.4635,5.5429,5.6278,5.6958,5.7393,5.8022,5.877,5.9624,5.9085,5.9069,5.9727,5.998,5.998,5.9727,5.9548,5.9009,5.8055,5.7004,5.6402]}]]